[[{"header":{"parameterUnit":"m.s-1","parameterCategory":1,"la1":30.6,"la2":28.766,"lo1":-90.7593,"lo2":-88.6598,"dy":0.0162,"dx":0.0183,"nx":116,"ny":114,"refTime":"2023-07-15T00:00:00:Z","depth":0,"parameterNumber":2,"parameterNumberName":"U-component_of_WINDS"},"data":[0.0,0.0,0.0,0.0,0.0,0.0,0.0,0.0,0.0,0.0,0.0,0.0,0.0,0.0,0.0,0.0,0.0,0.0,0.0,0.0,0.0,0.0,0.0,0.0,0.0,0.0,0.0,0.0,0.0,0.0,0.0,0.0,0.0,0.0,0.0,0.0,0.0,0.0,0.0,0.0,0.0,0.0,0.0,0.0,0.0,0.0,0.0,0.0,0.0,0.0,0.0,0.0,0.0,0.0,0.0,0.0,0.0,0.0,0.0,0.0,0.0,0.0,0.0,0.0,0.0,0.0,0.0,0.0,0.0,0.0,0.0,0.0,0.0,0.0,0.0,0.0,0.0,0.0,0.0,0.0,0.0,0.0,0.0,0.0,0.0,0.0,0.0,0.0,0.0,0.0,0.0,0.0,0.0,0.0,0.0,0.0,0.0,0.0,0.0,0.0,0.0,0.0,0.0,0.0,0.0,0.0,0.0,0.0,0.0,0.0,0.0,0.0,0.0,0.0,0.0,0.0,0.0,0.0,0.0,0.0,0.0,0.0,0.0,0.0,0.0,0.0,0.0,0.0,0.0,0.0,0.0,0.0,0.0,0.0,0.0,0.0,0.0,0.0,0.0,0.0,0.0,0.0,0.0,0.0,0.0,0.0,0.0,0.0,0.0,0.0,0.0,0.0,0.0,0.0,0.0,0.0,0.0,0.0,0.0,0.0,0.0,0.0,0.0,0.0,0.0,0.0,0.0,0.0,0.0,0.0,0.0,0.0,0.0,0.0,0.0,0.0,0.0,0.0,0.0,0.0,0.0,0.0,0.0,0.0,0.0,0.0,0.0,0.0,0.0,0.0,0.0,0.0,0.0,0.0,0.0,0.0,0.0,0.0,0.0,0.0,0.0,0.0,0.0,0.0,0.0,0.0,0.0,0.0,0.0,0.0,0.0,0.0,0.0,0.0,0.0,0.0,0.0,0.0,0.0,0.0,0.0,0.0,0.0,0.0,0.0,0.0,0.0,0.0,0.0,0.0,0.0,0.0,0.0,0.0,0.0,0.0,0.0,0.0,0.0,0.0,0.0,0.0,0.0,0.0,0.0,0.0,0.0,0.0,0.0,0.0,0.0,0.0,0.0,0.0,0.0,0.0,0.0,0.0,0.0,0.0,0.0,0.0,0.0,0.0,0.0,0.0,0.0,0.0,0.0,0.0,0.0,0.0,0.0,0.0,0.0,0.0,0.0,0.0,0.0,0.0,0.0,0.0,0.0,0.0,0.0,0.0,0.0,0.0,0.0,0.0,0.0,0.0,0.0,0.0,0.0,0.0,0.0,0.0,0.0,0.0,0.0,0.0,0.0,0.0,0.0,0.0,0.0,0.0,0.0,0.0,0.0,0.0,0.0,0.0,0.0,0.0,0.0,0.0,0.0,0.0,0.0,0.0,0.0,0.0,0.0,0.0,0.0,0.0,0.0,0.0,0.0,0.0,0.0,0.0,0.0,0.0,0.0,0.0,0.0,0.0,0.0,0.0,0.0,0.0,0.0,0.0,0.0,0.0,0.0,0.0,0.0,0.0,0.0,0.0,0.0,0.0,0.0,0.0,0.0,0.0,0.0,0.0,0.0,0.0,0.0,0.0,0.0,0.0,0.0,0.0,0.0,0.0,0.0,0.0,0.0,0.0,0.0,0.0,0.0,0.0,0.0,0.0,0.0,0.0,0.0,0.0,0.0,0.0,0.0,0.0,0.0,0.0,0.0,0.0,0.0,0.0,0.0,0.0,0.0,0.0,0.0,0.0,0.0,0.0,0.0,0.0,0.0,0.0,0.0,0.0,0.0,0.0,0.0,0.0,0.0,0.0,0.0,0.0,0.0,0.0,0.0,0.0,0.0,0.0,0.0,0.0,0.0,0.0,0.0,0.0,0.0,0.0,0.0,0.0,0.0,0.0,0.0,0.0,0.0,0.0,0.0,0.0,0.0,0.0,0.0,0.0,0.0,0.0,0.0,0.0,0.0,0.0,0.0,0.0,0.0,0.0,0.0,0.0,0.0,0.0,0.0,0.0,0.0,0.0,0.0,0.0,0.0,0.0,0.0,0.0,0.0,0.0,0.0,0.0,0.0,0.0,0.0,0.0,0.0,0.0,0.0,0.0,0.0,0.0,0.0,0.0,0.0,0.0,0.0,0.0,0.0,0.0,0.0,0.0,0.0,0.0,0.0,0.0,0.0,0.0,0.0,0.0,0.0,0.0,0.0,0.0,0.0,0.0,0.0,0.0,0.0,0.0,0.0,0.0,0.0,0.0,0.0,0.0,0.0,0.0,0.0,0.0,0.0,0.0,0.0,0.0,0.0,0.0,0.0,0.0,0.0,0.0,0.0,0.0,0.0,0.0,0.0,0.0,0.0,0.0,0.0,0.0,0.0,0.0,0.0,0.0,0.0,0.0,0.0,0.0,0.0,0.0,0.0,0.0,0.0,0.0,0.0,0.0,0.0,0.0,0.0,0.0,0.0,0.0,0.0,0.0,0.0,0.0,0.0,0.0,0.0,0.0,0.0,0.0,0.0,0.0,0.0,0.0,0.0,0.0,0.0,0.0,0.0,0.0,0.0,0.0,0.0,0.0,0.0,0.0,0.0,0.0,0.0,0.0,0.0,0.0,0.0,0.0,0.0,0.0,0.0,0.0,0.0,0.0,0.0,0.0,0.0,0.0,0.0,0.0,0.0,0.0,0.0,0.0,0.0,0.0,0.0,0.0,0.0,0.0,0.0,0.0,0.0,0.0,0.0,0.0,0.0,0.0,0.0,0.0,0.0,0.0,0.0,0.0,0.0,0.0,0.0,0.0,0.0,0.0,0.0,0.0,0.0,0.0,0.0,0.0,0.0,0.0,0.0,0.0,0.0,0.0,0.0,0.0,0.0,0.0,0.0,0.0,0.0,0.0,0.0,0.0,0.0,0.0,0.0,0.0,0.0,0.0,0.0,0.0,0.0,0.0,0.0,0.0,0.0,0.0,0.0,0.0,0.0,0.0,0.0,0.0,0.0,0.0,0.0,0.0,0.0,0.0,0.0,0.0,0.0,0.0,0.0,0.0,0.0,0.0,0.0,0.0,0.0,0.0,0.0,0.0,0.0,0.0,0.0,0.0,0.0,0.0,0.0,0.0,0.0,0.0,0.0,0.0,0.0,0.0,0.0,0.0,0.0,0.0,0.0,0.0,0.0,0.0,0.0,0.0,0.0,0.0,0.0,0.0,0.0,0.0,0.0,0.0,0.0,0.0,0.0,0.0,0.0,0.0,0.0,0.0,0.0,0.0,0.0,0.0,0.0,0.0,0.0,0.0,0.0,0.0,0.0,0.0,0.0,0.0,0.0,0.0,0.0,0.0,0.0,0.0,0.0,0.0,0.0,0.0,0.0,0.0,0.0,0.0,0.0,0.0,0.0,0.0,0.0,0.0,0.0,0.0,0.0,0.0,0.0,0.0,0.0,0.0,0.0,0.0,0.0,0.0,0.0,0.0,0.0,0.0,0.0,0.0,0.0,0.0,0.0,0.0,0.0,0.0,0.0,0.0,0.0,0.0,0.0,0.0,0.0,0.0,0.0,0.0,0.0,0.0,0.0,0.0,0.0,0.0,0.0,0.0,0.0,0.0,0.0,0.0,0.0,0.0,0.0,0.0,0.0,0.0,0.0,0.0,0.0,0.0,0.0,0.0,0.0,0.0,0.0,0.0,0.0,0.0,0.0,0.0,0.0,0.0,0.0,0.0,0.0,0.0,0.0,0.0,0.0,0.0,0.0,0.0,0.0,0.0,0.0,0.0,0.0,0.0,0.0,0.0,0.0,0.0,0.0,0.0,0.0,0.0,0.0,0.0,0.0,0.0,0.0,0.0,0.0,0.0,0.0,0.0,0.0,0.0,0.0,0.0,0.0,0.0,0.0,0.0,0.0,0.0,0.0,0.0,0.0,0.0,0.0,0.0,0.0,0.0,0.0,0.0,0.0,0.0,0.0,0.0,0.0,0.0,0.0,0.0,0.0,0.0,0.0,0.0,0.0,0.0,0.0,0.0,0.0,0.0,0.0,0.0,0.0,0.0,0.0,0.0,0.0,0.0,0.0,0.0,0.0,0.0,0.0,0.0,0.0,0.0,0.0,0.0,0.0,0.0,0.0,0.0,0.0,0.0,0.0,0.0,0.0,0.0,0.0,0.0,0.0,0.0,0.0,0.0,0.0,0.0,0.0,0.0,0.0,0.0,0.0,0.0,0.0,0.0,0.0,0.0,0.0,0.0,0.0,0.0,0.0,0.0,0.0,0.0,0.0,0.0,0.0,0.0,0.0,0.0,0.0,0.0,0.0,0.0,0.0,0.0,0.0,0.0,0.0,0.0,0.0,0.0,0.0,0.0,0.0,0.0,0.0,0.0,0.0,0.0,0.0,0.0,0.0,0.0,0.0,0.0,0.0,0.0,0.0,0.0,0.0,0.0,0.0,0.0,0.0,0.0,0.0,0.0,0.0,0.0,0.0,0.0,0.0,0.0,0.0,0.0,0.0,0.0,0.0,0.0,0.0,0.0,0.0,0.0,0.0,0.0,0.0,0.0,0.0,0.0,0.0,0.0,0.0,0.0,0.0,0.0,0.0,0.0,0.0,0.0,0.0,0.0,0.0,0.0,0.0,0.0,0.0,0.0,0.0,0.0,0.0,0.0,0.0,0.0,0.0,0.0,0.0,0.0,0.0,0.0,0.0,0.0,0.0,0.0,0.0,0.0,0.0,0.0,0.0,0.0,0.0,0.0,0.0,0.0,0.0,0.0,0.0,0.0,0.0,0.0,0.0,0.0,0.0,0.0,0.0,0.0,0.0,0.0,0.0,0.0,0.0,0.0,0.0,0.0,0.0,0.0,0.0,0.0,0.0,0.0,0.0,0.0,0.0,0.0,0.0,0.0,0.0,0.0,0.0,0.0,0.0,0.0,0.0,0.0,0.0,0.0,0.0,0.0,0.0,0.0,0.0,0.0,0.0,0.0,0.0,0.0,0.0,0.0,0.0,0.0,0.0,0.0,0.0,0.0,0.0,0.0,0.0,0.0,0.0,0.0,0.0,0.0,0.0,0.0,0.0,0.0,0.0,0.0,0.0,0.0,0.0,0.0,0.0,0.0,0.0,0.0,0.0,0.0,0.0,0.0,0.0,0.0,0.0,0.0,0.0,0.0,0.0,0.0,0.0,0.0,0.0,0.0,0.0,0.0,0.0,0.0,0.0,0.0,0.0,0.0,0.0,0.0,0.0,0.0,0.0,0.0,0.0,0.0,0.0,0.0,0.0,0.0,0.0,0.0,0.0,0.0,0.0,0.0,0.0,0.0,0.0,0.0,0.0,0.0,0.0,0.0,0.0,0.0,0.0,0.0,0.0,0.0,0.0,0.0,0.0,0.0,0.0,0.0,0.0,0.0,0.0,0.0,0.0,0.0,0.0,0.0,0.0,0.0,0.0,0.0,0.0,0.0,0.0,0.0,0.0,0.0,0.0,0.0,0.0,0.0,0.0,0.0,0.0,0.0,0.0,0.0,0.0,0.0,0.0,0.0,0.0,0.0,0.0,0.0,0.0,0.0,0.0,0.0,0.0,0.0,0.0,0.0,0.0,0.0,0.0,0.0,0.0,0.0,0.0,0.0,0.0,0.0,0.0,0.0,0.0,0.0,0.0,0.0,0.0,0.0,0.0,0.0,0.0,0.0,0.0,0.0,0.0,0.0,0.0,0.0,0.0,0.0,0.0,0.0,0.0,0.0,0.0,0.0,0.0,0.0,0.0,0.0,0.0,0.0,0.0,0.0,0.0,0.0,0.0,0.0,0.0,0.0,0.0,0.0,0.0,0.0,0.0,0.0,0.0,0.0,0.0,0.0,0.0,0.0,0.0,0.0,0.0,0.0,0.0,0.0,0.0,0.0,0.0,0.0,0.0,0.0,0.0,0.0,0.0,0.0,0.0,0.0,0.0,0.0,0.0,0.0,0.0,0.0,0.0,0.0,0.0,0.0,0.0,0.0,0.0,0.0,0.0,0.0,0.0,0.0,0.0,0.0,0.0,0.0,0.0,0.0,0.0,0.0,0.0,0.0,0.0,0.0,0.0,0.0,-2.2406,0.0,0.0,0.0,0.0,0.0,0.0,0.0,0.0,0.0,0.0,0.0,0.0,0.0,0.0,0.0,0.0,0.0,0.0,0.0,0.0,0.0,0.0,0.0,0.0,0.0,0.0,0.0,0.0,0.0,0.0,0.0,0.0,0.0,0.0,0.0,0.0,0.0,0.0,0.0,0.0,0.0,0.0,0.0,0.0,0.0,0.0,0.0,0.0,0.0,0.0,0.0,0.0,0.0,0.0,0.0,0.0,0.0,0.0,0.0,0.0,0.0,0.0,0.0,0.0,0.0,0.0,0.0,0.0,0.0,0.0,0.0,0.0,0.0,0.0,0.0,0.0,0.0,0.0,0.0,0.0,0.0,0.0,0.0,0.0,0.0,0.0,0.0,0.0,0.0,0.0,0.0,0.0,0.0,0.0,0.0,0.0,0.0,0.0,0.0,0.0,0.0,0.0,0.0,0.0,0.0,0.0,0.0,0.0,0.0,0.0,0.0,0.0,0.0,0.0,0.0,0.0,-2.4254,0.0,0.0,0.0,0.0,0.0,0.0,0.0,0.0,0.0,0.0,0.0,0.0,0.0,0.0,0.0,0.0,0.0,0.0,0.0,0.0,0.0,0.0,0.0,0.0,0.0,0.0,0.0,0.0,0.0,0.0,0.0,0.0,0.0,0.0,0.0,0.0,0.0,0.0,0.0,0.0,0.0,0.0,0.0,0.0,0.0,0.0,0.0,0.0,0.0,0.0,0.0,0.0,0.0,0.0,0.0,0.0,0.0,0.0,0.0,0.0,0.0,0.0,0.0,0.0,0.0,0.0,0.0,0.0,0.0,0.0,0.0,0.0,0.0,0.0,0.0,0.0,0.0,0.0,0.0,0.0,0.0,0.0,0.0,0.0,0.0,0.0,0.0,0.0,0.0,0.0,0.0,0.0,0.0,0.0,0.0,0.0,0.0,0.0,0.0,0.0,0.0,0.0,0.0,0.0,0.0,0.0,0.0,0.0,-2.9897,-3.0539,-3.1267,-3.1267,-3.1326,-3.1295,-2.8777,-2.7554,-2.726,0.0,0.0,0.0,0.0,0.0,0.0,0.0,0.0,0.0,0.0,0.0,0.0,0.0,0.0,0.0,0.0,0.0,0.0,0.0,0.0,0.0,0.0,0.0,0.0,0.0,0.0,0.0,0.0,0.0,0.0,0.0,0.0,0.0,0.0,0.0,0.0,0.0,0.0,-2.7954,-2.8761,-2.9432,-2.9486,-2.8907,-2.664,0.0,0.0,0.0,0.0,0.0,0.0,0.0,0.0,0.0,0.0,0.0,0.0,0.0,0.0,0.0,0.0,0.0,0.0,0.0,0.0,0.0,0.0,0.0,0.0,0.0,0.0,0.0,0.0,0.0,0.0,0.0,0.0,0.0,0.0,0.0,0.0,0.0,0.0,0.0,0.0,0.0,0.0,0.0,-1.6988,-1.912,0.0,0.0,0.0,0.0,0.0,0.0,0.0,0.0,0.0,0.0,0.0,0.0,0.0,0.0,-2.9489,-3.0394,-3.1589,-3.31,-3.3176,-3.3607,-3.4319,-3.4319,-3.4319,-3.4293,-3.3265,0.0,-3.0132,-2.876,0.0,0.0,0.0,0.0,0.0,0.0,0.0,0.0,0.0,0.0,0.0,0.0,0.0,0.0,0.0,0.0,0.0,0.0,0.0,0.0,0.0,0.0,0.0,0.0,0.0,0.0,0.0,0.0,0.0,0.0,0.0,0.0,0.0,0.0,0.0,0.0,-2.839,-2.9902,-3.0502,-3.1632,-3.1861,-3.1291,-3.0581,-2.9399,-2.7896,-2.7245,0.0,0.0,0.0,0.0,0.0,0.0,0.0,0.0,0.0,0.0,0.0,0.0,0.0,0.0,0.0,0.0,0.0,0.0,0.0,0.0,0.0,0.0,0.0,0.0,0.0,0.0,0.0,0.0,0.0,0.0,0.0,0.0,0.0,0.0,0.0,0.0,0.0,0.0,0.0,-1.7652,-1.9609,-2.1331,-2.1869,-2.239,0.0,0.0,0.0,0.0,0.0,0.0,0.0,0.0,0.0,-2.9648,-3.0713,-3.1687,-3.2613,-3.3381,-3.4189,-3.5032,-3.5462,-3.5827,-3.6141,-3.6141,-3.6141,-3.6125,-3.5794,-3.5146,-3.4137,-3.1495,-3.0419,-3.0363,0.0,0.0,0.0,0.0,0.0,-2.9119,0.0,0.0,0.0,0.0,0.0,0.0,0.0,0.0,0.0,0.0,0.0,0.0,0.0,0.0,0.0,-2.6295,0.0,0.0,0.0,0.0,0.0,0.0,0.0,0.0,0.0,0.0,0.0,-2.8956,-3.0742,-3.183,-3.2212,-3.3714,-3.3997,-3.3346,-3.3925,-3.2662,-3.0079,-2.9435,-2.8354,0.0,0.0,0.0,0.0,0.0,0.0,0.0,0.0,0.0,0.0,0.0,0.0,0.0,0.0,0.0,0.0,0.0,0.0,0.0,0.0,0.0,0.0,0.0,0.0,0.0,0.0,0.0,0.0,0.0,0.0,0.0,0.0,0.0,0.0,0.0,0.0,0.0,0.0,-1.9878,-2.168,-2.3246,-2.4191,-2.4997,0.0,0.0,0.0,0.0,0.0,0.0,-2.8773,-3.0366,-3.1825,-3.3064,-3.3793,-3.4713,-3.5873,-3.643,-3.692,-3.74,-3.7947,-3.8212,-3.8195,-3.803,-3.7947,-3.793,-3.7549,-3.7384,-3.7152,-3.413,-3.2785,-3.26,-3.1888,-3.1571,-3.1485,-3.1506,-3.151,-3.151,0.0,0.0,0.0,0.0,0.0,0.0,0.0,0.0,0.0,0.0,0.0,0.0,0.0,0.0,-2.7296,-2.7322,-2.8456,-2.8819,0.0,0.0,0.0,0.0,0.0,0.0,0.0,0.0,0.0,-3.039,-3.3276,-3.4565,-3.4366,-3.5849,-3.6382,-3.6119,-3.6208,-3.4799,-3.2286,-3.1556,-3.0483,-2.9115,0.0,0.0,0.0,0.0,0.0,0.0,0.0,0.0,0.0,0.0,0.0,0.0,0.0,0.0,0.0,0.0,0.0,0.0,0.0,0.0,0.0,0.0,0.0,0.0,0.0,0.0,0.0,0.0,0.0,0.0,0.0,0.0,0.0,0.0,0.0,0.0,0.0,0.0,0.0,-2.4638,-2.6088,0.0,0.0,0.0,0.0,-2.9288,-3.0822,-3.1753,-3.1785,-3.3777,-3.5283,-3.606,-3.6756,-3.7915,-3.9607,-3.9657,-4.0158,-4.1143,-4.1177,-4.1193,-4.1177,-4.0514,-4.0243,-4.016,-3.8758,-3.8146,-3.8004,-3.6439,-3.5387,-3.4691,-3.407,-3.3417,-3.2828,-3.2882,-3.2909,-3.2909,0.0,0.0,0.0,0.0,0.0,0.0,0.0,0.0,0.0,0.0,0.0,0.0,0.0,-2.6289,-2.806,-2.9486,-2.9472,-2.9454,-2.957,0.0,0.0,0.0,0.0,0.0,0.0,0.0,-3.1172,-3.3342,-3.4386,-3.5258,-3.5947,-3.6888,-3.6959,-3.6319,-3.6783,-3.6241,-3.4946,-3.3954,-3.2698,-3.1292,-2.9906,-2.834,0.0,0.0,0.0,0.0,0.0,0.0,0.0,0.0,0.0,0.0,0.0,0.0,0.0,0.0,0.0,0.0,0.0,0.0,0.0,0.0,0.0,0.0,0.0,0.0,0.0,0.0,0.0,0.0,0.0,0.0,0.0,0.0,0.0,0.0,0.0,0.0,0.0,-2.7399,-2.8489,0.0,0.0,-3.1318,-3.1774,-3.2296,-3.3403,-3.4262,-3.4748,-3.6351,-3.7582,-3.8327,-3.9007,-3.9751,-4.059,-4.0607,-4.0865,-4.1409,-4.1409,-4.1409,-4.1409,-4.116,-4.1044,-4.0994,-4.0017,-3.962,-3.9537,-3.8553,-3.74,-3.629,-3.6091,-3.5891,-3.5714,-3.5761,-3.5785,-3.5785,0.0,0.0,0.0,0.0,0.0,0.0,0.0,0.0,0.0,0.0,0.0,-2.3255,-2.5491,-2.7263,-2.9066,-3.1063,-3.0611,-3.0485,-3.1092,0.0,0.0,0.0,0.0,0.0,0.0,-3.1663,-3.2945,-3.4899,-3.5644,-3.6397,-3.7147,-3.7783,-3.772,-3.7086,-3.7485,-3.7447,-3.7021,-3.6051,-3.4701,-3.3067,-3.1957,-3.05,-2.8854,0.0,0.0,0.0,0.0,0.0,0.0,0.0,0.0,0.0,0.0,0.0,0.0,0.0,0.0,0.0,0.0,0.0,0.0,0.0,0.0,0.0,0.0,0.0,0.0,0.0,0.0,0.0,0.0,0.0,0.0,0.0,0.0,0.0,0.0,0.0,-2.7494,-2.9556,-3.0703,-3.1806,-3.3083,-3.3582,-3.4127,-3.4929,-3.5786,-3.6594,-3.7339,-3.8472,-3.9444,-4.0202,-4.0686,-4.1192,-4.1688,-4.1763,-4.191,-4.2125,-4.2125,-4.2125,-4.2125,-4.1877,-4.1761,-4.174,-4.0796,-4.0409,-4.0359,-3.9667,-3.8788,-3.7891,-3.7642,-3.7469,-3.7369,-3.7369,-3.7328,-3.7278,0.0,0.0,0.0,0.0,0.0,0.0,0.0,0.0,0.0,0.0,-2.1289,-2.4078,-2.6384,-2.853,-3.0419,-3.1968,-3.191,-3.2017,-3.2525,-3.1227,0.0,0.0,0.0,0.0,-3.1891,-3.3875,-3.4932,-3.4998,-3.7152,-3.815,-3.8084,-3.8608,-3.8771,-3.8637,-3.848,-3.8424,-3.8359,-3.7785,-3.6388,-3.453,-3.3744,-3.2197,-3.0172,0.0,0.0,0.0,0.0,0.0,0.0,0.0,0.0,0.0,0.0,0.0,0.0,0.0,0.0,0.0,0.0,0.0,0.0,0.0,0.0,0.0,0.0,0.0,0.0,0.0,0.0,0.0,0.0,0.0,0.0,0.0,0.0,0.0,-2.5977,-2.732,-2.8979,-3.1033,-3.2631,-3.3852,-3.4606,-3.5519,-3.6389,-3.7102,-3.7983,-3.878,-3.9538,-4.0173,-4.0853,-4.1612,-4.175,-4.2227,-4.3096,-4.3312,-4.3479,-4.3598,-4.3598,-4.3598,-4.3565,-4.2853,-4.2522,-4.2456,-4.1061,-4.0459,-4.0376,-3.9781,-3.9518,-3.9444,-3.8728,-3.8087,-3.7576,-3.7576,-3.7502,-3.7353,0.0,0.0,0.0,0.0,0.0,0.0,0.0,0.0,0.0,0.0,-2.1289,-2.4272,-2.7087,-2.8889,-3.0469,-3.1969,-3.1965,-3.187,-3.1871,0.0,0.0,0.0,0.0,0.0,-3.4236,-3.4772,-3.5791,-3.7301,-3.7914,-3.8662,-3.9523,-3.9676,-3.9619,-3.941,-3.9353,-3.8991,-3.8391,-3.8337,-3.7671,-3.6545,-3.4873,-3.3842,-3.3104,0.0,0.0,0.0,0.0,0.0,0.0,0.0,0.0,0.0,0.0,0.0,0.0,0.0,0.0,0.0,0.0,0.0,0.0,0.0,0.0,0.0,0.0,0.0,0.0,0.0,0.0,0.0,0.0,0.0,0.0,0.0,0.0,-2.7304,-2.7494,-2.9619,-3.1557,-3.2726,-3.4144,-3.5382,-3.6321,-3.7138,-3.7931,-3.8771,-3.9525,-4.0237,-4.098,-4.1207,-4.1598,-4.231,-4.2497,-4.2749,-4.3113,-4.3312,-4.3479,-4.3598,-4.3598,-4.3598,-4.3582,-4.3383,-4.33,-4.3234,-4.2336,-4.1697,-4.1294,-4.059,-4.0091,-3.9755,-3.946,-3.9242,-3.91,-3.91,-3.9075,-3.9023,0.0,0.0,0.0,0.0,0.0,0.0,0.0,0.0,0.0,0.0,-2.1317,-2.4249,-2.6946,-2.8835,-3.0485,-3.1969,-3.1966,-3.1959,-3.208,0.0,0.0,0.0,0.0,-3.4712,-3.5746,-3.6233,-3.7078,-3.8273,-3.8851,-3.9483,-4.0227,-4.0468,-4.0487,-4.0328,-3.9948,-3.9487,-3.9011,-3.8786,-3.8438,-3.7927,-3.6469,-3.5496,-3.4792,-3.3165,-3.2311,-3.1776,-2.9838,-2.9108,-2.8865,-2.7769,0.0,0.0,0.0,0.0,0.0,0.0,0.0,0.0,0.0,0.0,0.0,0.0,0.0,0.0,0.0,0.0,0.0,0.0,0.0,0.0,0.0,0.0,0.0,0.0,-2.927,-3.0133,-3.0743,-3.1956,-3.3323,-3.476,-3.5719,-3.6682,-3.7874,-3.8459,-3.9179,-4.0316,-4.0753,-4.1257,-4.197,-4.2019,-4.2244,-4.2728,-4.2883,-4.3068,-4.3204,-4.3402,-4.3539,-4.3598,-4.3598,-4.3598,-4.3598,-4.3598,-4.3598,0.0,-4.2908,-4.2446,-4.2082,-4.1153,-4.0611,0.0,0.0,0.0,0.0,0.0,-3.9781,-3.9755,0.0,0.0,0.0,0.0,0.0,0.0,0.0,0.0,0.0,0.0,0.0,-2.404,-2.6363,-2.843,-3.0257,-3.1725,-3.181,-3.2081,0.0,0.0,0.0,-3.4578,-3.5296,-3.602,-3.6828,-3.7895,-3.8487,-3.8502,-3.981,-4.0442,-4.0514,-4.1097,-4.1342,-4.1309,-4.0414,-3.9996,-3.9853,-3.9144,-3.8832,-3.8783,-3.8204,-3.7121,-3.5758,-3.5021,-3.4244,-3.3387,-3.1978,-3.1349,-3.1056,-3.0389,0.0,0.0,0.0,0.0,0.0,0.0,0.0,0.0,0.0,0.0,0.0,0.0,0.0,0.0,0.0,0.0,0.0,0.0,0.0,0.0,0.0,0.0,0.0,0.0,-3.1831,-3.3236,-3.468,-3.4303,-3.4659,-3.6682,-3.7098,-3.7746,-3.9079,-3.9467,-4.0186,-4.1498,-4.1677,-4.197,-4.257,0.0,0.0,0.0,0.0,-4.3253,-4.3534,-4.3654,-4.3714,-4.3714,-4.3714,-4.3664,-4.3598,-4.3598,-4.3628,-4.3595,-4.3124,-4.2894,-4.2767,-4.1594,-4.1021,-4.0845,-4.0179,-3.9986,-4.0087,-3.9977,-3.991,-3.9884,0.0,0.0,0.0,0.0,0.0,0.0,0.0,0.0,0.0,-1.8482,-2.0806,-2.3435,-2.6349,-2.7558,-2.871,-3.0205,-3.0802,-3.1582,0.0,0.0,-3.4099,-3.5484,-3.6192,-3.7125,-3.8353,-3.8581,-3.8907,-3.9285,-4.014,-4.0774,-4.1226,-4.1926,-4.2187,-4.2067,-4.1296,-4.0569,-3.9853,-3.9226,-3.8969,-3.8952,-3.8999,-3.8358,-3.7308,-3.657,-3.5807,-3.5045,-3.4161,-3.3378,-3.2657,-3.198,-3.1115,-3.0192,-2.9653,0.0,0.0,0.0,0.0,0.0,0.0,0.0,0.0,0.0,0.0,0.0,0.0,0.0,0.0,0.0,0.0,0.0,0.0,0.0,0.0,-3.3381,-3.4006,-3.4755,-3.638,-3.6488,-3.658,-3.6998,-3.7617,-3.835,-3.935,-3.9978,-4.0658,-4.1531,-4.2099,-4.2457,-4.2586,-4.2759,0.0,-4.2899,-4.319,-4.3652,-4.4292,-4.4429,-4.4473,-4.4473,0.0,0.0,-4.3598,-4.3598,-4.3687,-4.3822,-4.3748,-4.3476,-4.3065,-4.223,-4.1259,-4.0248,-4.0113,-4.0087,-4.0113,-4.0087,-4.0062,-4.0037,0.0,0.0,0.0,0.0,0.0,0.0,0.0,0.0,0.0,0.0,-2.0458,-2.2864,-2.4738,-2.63,-2.7613,-2.8648,-3.0037,0.0,0.0,-3.3205,-3.4404,-3.5727,-3.6837,-3.7879,-3.8889,-3.9202,-3.9471,-3.9694,-4.0288,-4.0928,-4.1543,-4.2216,-4.246,-4.2369,-4.1626,-4.0871,-4.0122,-3.9435,-3.9148,-3.9148,-3.9272,-3.9003,-3.8473,-3.7722,-3.6955,-3.6138,-3.5416,-3.4603,-3.3794,-3.3396,-3.2722,-3.1985,-3.1637,-3.0269,-2.8644,0.0,0.0,0.0,0.0,0.0,0.0,0.0,0.0,0.0,0.0,0.0,0.0,0.0,0.0,-3.0631,0.0,0.0,-3.3625,-3.5804,-3.6294,-3.693,-3.8473,-3.8753,-3.8536,-3.7826,-3.842,-3.9159,-3.9914,-4.0656,-4.1322,-4.2051,-4.2392,-4.2634,-4.2728,-4.3179,-4.3547,-4.3686,-4.4233,-4.4719,-4.5158,-4.522,-4.5235,-4.5235,-4.4901,-4.4506,-4.4141,-4.3853,-4.3793,-4.3898,-4.4056,-4.3966,-4.367,-4.2625,-4.1591,-4.0595,-4.0248,-4.0096,-4.0096,-4.0096,-4.0096,-4.0121,0.0,0.0,0.0,0.0,0.0,0.0,0.0,0.0,0.0,0.0,-1.985,-2.1901,-2.2876,-2.479,-2.6448,0.0,0.0,0.0,0.0,-3.2941,-3.435,-3.5776,-3.7245,-3.833,-3.902,-3.9615,-3.9926,-3.9901,-4.0421,-4.0971,-4.1488,-4.209,-4.2319,-4.2241,-4.1541,-4.0912,-4.0359,-3.9613,-3.9299,-3.9282,-3.9149,-3.91,-3.9017,-3.8278,-3.7555,-3.6851,-3.6108,-3.5268,-3.4521,-3.4423,-3.3958,-3.338,-3.3186,-3.1929,-3.0431,-3.001,-2.8681,0.0,0.0,0.0,0.0,0.0,0.0,0.0,0.0,0.0,-3.1596,-3.2028,-3.2796,-3.3789,-3.4983,-3.5347,-3.6051,-3.7897,-3.8421,-3.9014,-4.0158,-4.0423,-4.0075,-3.8942,-3.9314,-3.9927,-4.0432,-4.1174,-4.1887,-4.2617,-4.2665,-4.2728,-4.293,-4.3694,-4.4243,-4.4476,-4.5247,-4.5755,-4.6013,-4.6013,-4.6044,-4.6059,-4.5313,-4.4912,-4.4776,-4.4214,-4.3939,-4.3998,-4.4241,-4.4254,-4.4047,-4.279,-4.1863,-4.1136,-4.04,-4.0096,-4.0096,-4.0096,-4.0197,-4.0417,0.0,0.0,0.0,0.0,0.0,0.0,0.0,0.0,0.0,0.0,0.0,0.0,0.0,0.0,0.0,0.0,0.0,0.0,-3.1701,-3.2536,-3.3862,-3.5959,-3.7314,-3.8353,-3.9159,-3.9765,-4.0011,-3.9901,-4.0606,-4.0893,-4.075,-4.1455,-4.1687,-4.148,-4.0812,-4.0475,-4.0359,-3.9613,-3.9299,-3.9249,-3.8593,-3.8328,-3.8245,-3.75,-3.7159,-3.6977,-3.6233,-3.5431,-3.4683,-3.4667,-3.4448,-3.4056,-3.3396,-3.2983,-3.2376,-3.0447,0.0,-2.9248,-2.7948,-2.8012,-2.8757,-3.0095,-3.0884,-3.1524,0.0,0.0,-3.5289,-3.5369,-3.6414,-3.7582,-3.835,-3.8478,-3.8841,-3.9859,-4.0033,-4.0172,-4.045,-4.0496,-4.0432,-4.027,-4.0335,-4.0415,-4.048,-4.1174,-4.1965,-4.2803,-4.2868,-4.2914,-4.3082,-4.3941,-4.4445,-4.4506,-4.5324,-4.6113,-4.6775,-4.6775,-4.6887,-4.7014,-4.6231,-4.5607,-4.5122,-4.4403,-4.4155,-4.4281,-4.4485,-4.4153,-4.346,-4.2642,-4.1863,-4.1136,-4.04,-4.0096,-4.0096,-4.0096,-4.0493,-4.1085,0.0,0.0,0.0,0.0,0.0,0.0,0.0,0.0,0.0,0.0,0.0,0.0,0.0,0.0,0.0,0.0,0.0,0.0,-2.9833,-3.1405,-3.3242,-3.5368,-3.6373,-3.7411,-3.8486,-3.9219,-3.9511,-3.9387,-4.0027,-4.0512,-4.0843,-4.108,-4.1077,-4.0906,-4.0652,-4.0215,-3.9713,-3.8957,-3.8659,-3.8593,-3.7864,-3.7566,-3.7433,-3.6257,-3.5827,-3.5777,-3.5462,-3.4859,0.0,0.0,-3.3353,-3.317,-3.2751,-3.2615,-3.2366,-3.1403,-3.1105,0.0,-3.0895,-3.1056,0.0,0.0,-3.4228,-3.4678,-3.5744,-3.6929,-3.7789,-3.7703,-3.852,-3.9292,-3.958,-3.9718,-4.0019,0.0,-4.1008,-4.1213,-4.1648,-4.1727,-4.1581,-4.1207,-4.1484,-4.1581,-4.1191,-4.1868,-4.2512,-4.2883,-4.2976,-4.3279,-4.389,-4.4675,-4.5362,-4.5886,-4.666,-4.7222,-4.7537,-4.7617,-4.7682,-4.7778,-4.6689,-4.6062,-4.5818,-4.4704,-4.4327,-4.4468,-4.457,-4.4429,-4.4045,-4.3267,-4.2506,-4.1762,-4.1018,-4.0485,-4.0096,-4.0096,-4.0561,-4.1271,0.0,0.0,0.0,0.0,0.0,0.0,0.0,0.0,0.0,0.0,0.0,0.0,0.0,0.0,0.0,0.0,0.0,0.0,0.0,-3.0144,-3.213,-3.406,-3.5389,-3.6537,-3.7456,-3.8414,-3.8853,-3.8715,-3.9158,-3.9623,-4.0077,-3.9999,-3.9869,-3.9727,-3.9727,-3.9401,-3.879,-3.8233,-3.7991,-3.7899,-3.7153,-3.6713,-3.6357,-3.5081,-3.4468,-3.4286,-3.4286,-3.3938,0.0,0.0,-3.2523,-3.2478,-3.2328,-3.236,-3.242,-3.2131,-3.2165,-3.2465,-3.3178,0.0,0.0,-3.64,-3.7031,-3.7473,-3.8585,-3.9363,-3.9833,-3.9744,-4.0148,-4.0518,-4.0518,-4.0434,-4.051,-4.1073,-4.1391,-4.179,-4.2261,-4.2473,-4.2408,-4.1921,-4.231,-4.2423,-4.2014,-4.2528,-4.293,-4.2945,-4.3099,-4.3594,-4.4519,-4.5261,-4.6019,-4.6874,-4.7636,-4.8066,-4.8066,-4.8212,-4.8324,-4.8356,-4.6993,-4.6381,-4.6391,-4.5,-4.4468,-4.4615,-4.4615,-4.4615,-4.4547,-4.3741,-4.3098,-4.2523,-4.1796,-4.117,-4.0722,-4.0722,-4.1035,-4.161,0.0,0.0,0.0,0.0,0.0,0.0,0.0,0.0,0.0,0.0,0.0,0.0,0.0,0.0,0.0,0.0,0.0,0.0,0.0,-2.891,-3.037,-3.1926,-3.463,-3.6122,-3.6174,-3.7501,-3.8161,-3.8044,-3.8061,-3.797,-3.7797,-3.7797,-3.7724,-3.761,-3.761,-3.7569,-3.7552,-3.7519,-3.7469,-3.7261,-3.6512,-3.5732,-3.4883,-3.4121,-3.3375,-3.2768,-3.2768,0.0,0.0,0.0,-3.2613,-3.25,-3.25,-3.2793,0.0,-3.2394,-3.2609,-3.3194,0.0,0.0,-3.6546,-3.7987,-3.8861,-3.9586,-4.027,-4.0982,-4.1547,-4.1531,-4.1533,-4.1533,-4.1533,-4.0966,-4.0496,-4.0513,-4.1112,-4.1612,-4.1628,-4.2197,-4.2586,-4.257,-4.2586,-4.2665,0.0,-4.2883,-4.2945,-4.3066,-4.3281,-4.3776,-4.4655,-4.5384,-4.6129,-4.6874,-4.7748,-4.8195,-4.8195,-4.8388,-4.8595,-4.8753,-4.7238,-4.6591,-4.6735,-4.5246,-4.4598,-4.4615,-4.4615,-4.4615,-4.4547,-4.3741,-4.3375,-4.3274,-4.254,-4.2236,-4.2219,-4.2219,-4.2236,-4.2371,0.0,0.0,0.0,0.0,0.0,0.0,0.0,0.0,0.0,0.0,0.0,0.0,0.0,0.0,0.0,0.0,0.0,0.0,0.0,-2.7158,-2.8892,-3.03,-3.2251,-3.35,-3.3917,-3.533,-3.6014,-3.5888,-3.6809,-3.7233,-3.7157,-3.7121,-3.7003,-3.6827,-3.6323,-3.6058,-3.5947,-3.5445,-3.5222,-3.5115,-3.4363,-3.3907,-3.3495,-3.2235,-3.1577,-3.1228,0.0,0.0,0.0,0.0,0.0,-3.0509,-3.0978,-3.1863,-3.2948,-3.4007,-3.4404,-3.4845,-3.6513,0.0,-3.8149,-4.0056,-4.0721,-4.1077,-4.1759,-4.2099,-4.2148,-4.1693,-4.1596,-4.145,-4.098,-4.0658,-4.0496,-4.0496,-4.0691,-4.1045,-4.1531,-4.1776,-4.2099,-4.2554,-4.2602,0.0,0.0,0.0,0.0,-4.3281,-4.3908,-4.4608,-4.5384,-4.6129,-4.6922,-4.7748,-4.803,-4.826,-4.8388,-4.8595,-4.8738,-4.8784,-4.7376,-4.6232,-4.5343,-4.4902,-4.472,-4.4737,-4.4831,-4.4858,-4.4841,-4.4569,-4.4177,-4.3717,-4.3462,-4.3053,-4.2695,-4.3172,-4.336,-4.3367,0.0,0.0,0.0,0.0,0.0,0.0,0.0,0.0,0.0,0.0,0.0,0.0,0.0,0.0,0.0,0.0,0.0,0.0,0.0,0.0,-2.7106,-2.8806,-3.03,-3.1389,-3.2071,-3.3255,-3.3931,-3.4083,-3.4976,-3.5526,-3.5732,-3.5683,-3.5571,-3.5346,-3.4627,-3.4246,-3.4124,-3.3386,-3.3045,-3.2952,-3.2466,-3.2093,-3.17,-3.0679,-3.0142,0.0,0.0,0.0,0.0,0.0,-2.9397,-2.9579,-3.0525,-3.1968,-3.3557,-3.4978,-3.5877,-3.6723,-3.8047,-3.8958,-3.9865,-4.1255,-4.179,-4.2067,-4.2489,-4.2392,-4.2051,-4.1338,-4.0818,-4.0221,-3.9493,-3.9153,-3.9072,-3.9314,-3.9573,-4.0075,-4.1077,-4.1434,-4.184,-4.2522,-4.2665,0.0,0.0,0.0,0.0,-4.3372,-4.423,-4.5003,-4.5748,-4.6573,-4.7367,-4.8162,-4.834,-4.8468,-4.8595,-4.8784,-4.8624,-4.8146,-4.7272,-4.6123,-4.4765,-4.4831,-4.4886,-4.4886,-4.4951,-4.5005,-4.5005,-4.5005,-4.4732,-4.4304,-4.4304,-4.3987,-4.3628,-4.4133,-4.4304,-4.4278,0.0,0.0,0.0,0.0,0.0,0.0,0.0,0.0,0.0,0.0,0.0,0.0,0.0,0.0,0.0,0.0,0.0,0.0,0.0,0.0,0.0,-2.727,-2.8702,-2.9781,-3.0543,-3.1267,-3.1935,-3.258,-3.2647,-3.2943,-3.3441,-3.342,-3.3358,-3.3203,-3.2462,-3.2124,-3.209,-3.1376,-3.1013,-3.0914,-3.0914,-3.0398,-2.9646,-2.9529,0.0,0.0,0.0,0.0,0.0,0.0,0.0,0.0,0.0,-3.3119,-3.4824,-3.5411,-3.7004,-3.8593,-3.8626,-4.0121,-4.1661,-4.1709,-4.2197,-4.2635,-4.257,-4.2035,-4.132,-4.0496,-3.925,-3.8068,0.0,0.0,-3.6416,-3.7069,-3.7825,-3.878,-4.0189,-4.1077,-4.1776,0.0,0.0,0.0,0.0,0.0,0.0,-4.3452,0.0,-4.5052,-4.5748,-4.6701,-4.7545,-4.8211,-4.8612,-4.8801,-4.8818,-4.894,-4.8331,-4.7003,-4.7003,-4.6306,-4.5005,-4.5005,-4.5005,-4.5005,-4.5005,-4.5005,-4.5005,-4.5005,-4.5005,-4.5005,-4.5005,-4.5005,-4.5005,-4.5005,-4.5005,-4.5022,0.0,0.0,0.0,0.0,0.0,0.0,0.0,0.0,0.0,0.0,0.0,0.0,0.0,0.0,0.0,0.0,0.0,0.0,0.0,0.0,0.0,0.0,0.0,0.0,0.0,0.0,0.0,0.0,-3.0571,-3.1168,-3.13,-3.1132,-3.1055,-3.0983,-3.018,-2.9839,-2.9822,-2.9636,-2.955,-2.9512,0.0,-2.9375,-2.9121,0.0,0.0,0.0,0.0,0.0,0.0,0.0,0.0,0.0,0.0,-3.4341,-3.5144,-3.7429,-3.8341,-3.906,-4.1179,-4.2046,-4.2488,-4.3039,-4.3298,-4.3152,-4.2083,-4.129,-4.027,-3.8489,-3.7436,-3.6448,0.0,0.0,0.0,-3.5606,-3.6351,0.0,-3.8732,-3.9994,0.0,-4.1759,0.0,-4.2945,-4.3082,-4.3281,0.0,0.0,-4.5086,-4.5582,-4.5781,-4.7166,-4.8108,-4.8403,-4.8675,-4.8832,-4.8956,-4.9094,-4.8421,-4.7003,-4.7118,-4.6402,-4.5005,-4.5096,-4.5167,-4.515,-4.5247,-4.5291,-4.5291,-4.5291,-4.5291,-4.5291,-4.5291,-4.5291,-4.5291,-4.5291,-4.5291,-4.5377,0.0,0.0,0.0,0.0,0.0,0.0,0.0,0.0,0.0,0.0,0.0,0.0,0.0,0.0,0.0,0.0,0.0,0.0,0.0,0.0,0.0,0.0,0.0,0.0,0.0,0.0,0.0,0.0,0.0,0.0,-2.9025,-2.8886,-2.8799,-2.873,-2.7912,-2.7555,-2.7521,-2.7182,0.0,0.0,0.0,0.0,0.0,0.0,0.0,0.0,0.0,0.0,0.0,0.0,0.0,-3.2845,-3.4402,-3.5728,-3.7034,-3.8546,0.0,-4.1023,-4.249,-4.3065,-4.3296,-4.3605,-4.3249,-4.2488,-4.1385,-4.0059,-3.8586,-3.6756,-3.5331,0.0,0.0,0.0,0.0,0.0,0.0,0.0,-3.7679,-3.8877,-4.0105,0.0,-4.2183,0.0,-4.3188,-4.3682,-4.4167,0.0,-4.5367,-4.5978,-4.6404,-4.7643,-4.842,-4.8627,-4.8801,-4.8956,-4.9094,-4.9168,-4.8541,-4.7221,-4.7307,-4.6559,-4.5184,-4.5247,-4.5274,-4.53,0.0,-4.5397,-4.5397,-4.5397,-4.5397,-4.5397,-4.5397,-4.5397,-4.5432,-4.5793,-4.5914,-4.6035,0.0,0.0,0.0,0.0,0.0,0.0,0.0,0.0,0.0,0.0,0.0,0.0,0.0,0.0,0.0,0.0,0.0,0.0,0.0,0.0,0.0,0.0,0.0,0.0,0.0,0.0,0.0,0.0,0.0,0.0,0.0,0.0,0.0,0.0,0.0,0.0,0.0,0.0,0.0,0.0,0.0,0.0,0.0,0.0,0.0,0.0,0.0,0.0,0.0,0.0,-3.1901,-3.3955,-3.4899,-3.7094,-3.9305,-3.9308,-4.1181,-4.3213,-4.3105,-4.3533,-4.3943,-4.3751,-4.2715,-4.1515,-4.0561,-3.8715,-3.6724,-3.5114,0.0,-3.1477,-3.0629,0.0,-3.0742,-3.1591,0.0,-3.4538,-3.6583,-3.776,-3.9206,-4.1257,-4.186,-4.2449,-4.3306,-4.4197,-4.4752,-4.4898,-4.5578,-4.6323,-4.7162,-4.8035,-4.8627,-4.8801,-4.8956,-4.9094,-4.9199,-4.926,-4.866,-4.7511,-4.7539,-4.6787,-4.5397,-4.5397,-4.5397,-4.5423,0.0,0.0,-4.5423,-4.5423,-4.5423,-4.5414,-4.5518,-4.5552,-4.5656,-4.6458,-4.6751,-4.6855,0.0,0.0,0.0,0.0,0.0,0.0,0.0,0.0,0.0,0.0,0.0,0.0,0.0,0.0,0.0,0.0,0.0,0.0,0.0,0.0,0.0,0.0,0.0,0.0,0.0,0.0,0.0,0.0,0.0,0.0,0.0,0.0,0.0,0.0,0.0,0.0,0.0,0.0,0.0,0.0,0.0,0.0,0.0,0.0,0.0,0.0,0.0,0.0,0.0,0.0,-3.147,-3.4137,-3.6108,-3.7897,-3.9531,-4.0669,-4.1696,-4.2703,-4.3702,-4.4003,-4.3943,-4.3751,-4.3103,-4.2002,-4.0121,-3.8003,0.0,0.0,0.0,-2.9864,-2.8514,-2.8271,0.0,-3.0042,0.0,0.0,0.0,0.0,-3.8946,0.0,0.0,0.0,0.0,0.0,0.0,0.0,0.0,0.0,-4.7178,-4.8178,-4.8801,-4.894,-4.9094,-4.9168,-4.9199,-4.9471,-4.8912,-4.7511,-4.7606,-4.6852,-4.5397,-4.5397,-4.545,-4.5581,0.0,0.0,-4.5581,-4.5581,-4.5502,-4.5466,-4.6121,-4.6379,-4.6493,-4.7224,-4.75,-4.7603,0.0,0.0,0.0,0.0,0.0,0.0,0.0,0.0,0.0,0.0,-1.9182,-1.913,0.0,0.0,0.0,0.0,0.0,0.0,0.0,0.0,0.0,0.0,0.0,0.0,0.0,0.0,0.0,0.0,0.0,0.0,0.0,0.0,0.0,0.0,0.0,0.0,0.0,0.0,0.0,0.0,0.0,0.0,0.0,0.0,0.0,0.0,0.0,0.0,0.0,0.0,-3.1106,-3.3607,-3.5827,-3.7798,-3.958,-4.0994,-4.2134,-4.3168,-4.3978,-4.4148,-4.394,-4.3296,-4.2067,-4.0432,-3.8311,0.0,0.0,0.0,-2.8903,-2.7316,-2.6231,0.0,0.0,0.0,0.0,0.0,0.0,0.0,0.0,0.0,0.0,0.0,0.0,0.0,0.0,0.0,0.0,0.0,-4.8013,-4.8584,-4.8987,-4.9077,-4.9168,-4.929,-4.9471,-4.9619,-4.8982,-4.7606,-4.7745,-4.6988,-4.5502,-4.5581,-4.5641,-4.5693,-4.5693,0.0,-4.5693,-4.5693,-4.591,-4.6256,-4.6655,-4.7036,-4.7469,-4.8248,-4.8526,-4.863,0.0,0.0,0.0,0.0,0.0,0.0,0.0,-1.6895,-1.7757,-2.012,-2.0515,-2.0335,-1.9674,-1.9966,0.0,0.0,0.0,0.0,0.0,0.0,0.0,0.0,0.0,0.0,0.0,0.0,0.0,0.0,0.0,0.0,0.0,0.0,0.0,0.0,0.0,0.0,0.0,0.0,0.0,0.0,0.0,0.0,0.0,0.0,0.0,0.0,0.0,0.0,0.0,0.0,-3.041,-3.2547,-3.4468,-3.7003,-3.9514,-4.063,-4.1988,-4.3224,-4.3631,-4.3621,-4.3315,-4.2567,-4.0788,-3.8683,-3.6756,-3.4084,0.0,0.0,-2.6992,-2.5322,-2.4452,0.0,0.0,0.0,0.0,0.0,0.0,0.0,0.0,0.0,0.0,0.0,0.0,0.0,0.0,0.0,0.0,0.0,-4.8798,-4.894,-4.9063,-4.9199,-4.9229,-4.9411,-4.9708,-4.9767,-4.9183,-4.8014,-4.8152,-4.7478,-4.6126,-4.6074,-4.6064,-4.609,-4.5933,0.0,0.0,-4.609,-4.656,-4.7256,-4.7431,-4.7839,-4.8448,-4.9231,-4.9527,-4.9614,0.0,0.0,0.0,0.0,0.0,0.0,0.0,-1.6902,-1.7756,-2.0177,-2.1068,-2.1434,-2.1289,-2.0635,0.0,0.0,0.0,0.0,0.0,0.0,0.0,0.0,0.0,0.0,0.0,0.0,0.0,0.0,0.0,0.0,0.0,0.0,0.0,0.0,0.0,0.0,0.0,0.0,0.0,0.0,0.0,0.0,0.0,0.0,0.0,0.0,0.0,0.0,0.0,0.0,0.0,-3.0853,-3.173,-3.5363,-3.9332,-3.9464,0.0,0.0,-4.2104,-4.1753,-4.1367,-4.1624,-4.0075,-3.8116,-3.6643,0.0,0.0,-2.8385,-2.6636,-2.5195,-2.3836,-2.3642,-2.4112,0.0,0.0,-2.8644,0.0,0.0,0.0,0.0,0.0,0.0,0.0,0.0,0.0,0.0,0.0,0.0,0.0,-4.9001,-4.9063,-4.9199,-4.9381,-4.9547,-4.9708,-4.9999,-4.9745,-4.8976,-4.9114,-4.87,-4.7847,-4.7178,-4.696,-4.7036,0.0,0.0,0.0,-4.7071,-4.7448,-4.8066,-4.8796,-4.9127,-4.9266,-5.0032,-5.031,-5.031,0.0,0.0,0.0,0.0,0.0,0.0,0.0,-1.6578,-1.7591,-1.9536,-2.0429,-2.1043,-2.1452,-2.0762,-2.0228,0.0,0.0,0.0,0.0,0.0,0.0,0.0,0.0,0.0,0.0,0.0,0.0,0.0,0.0,0.0,0.0,0.0,0.0,0.0,0.0,0.0,0.0,0.0,0.0,0.0,0.0,0.0,0.0,0.0,0.0,0.0,0.0,0.0,0.0,0.0,0.0,0.0,-3.0572,-3.2961,0.0,0.0,-3.899,-4.0227,-4.0627,-4.0869,-4.0794,-3.9888,-3.8391,-3.6529,-3.4246,0.0,-2.9259,-2.6361,-2.5001,-2.3883,-2.2442,-2.2539,-2.3172,-2.4159,0.0,0.0,0.0,0.0,0.0,0.0,0.0,0.0,0.0,0.0,0.0,0.0,0.0,0.0,0.0,-4.9107,-4.9199,-4.9398,-4.953,-4.9696,-4.9889,-5.0074,-4.9836,-4.9091,-4.9311,-4.9001,-4.8216,-4.7998,-4.7953,-4.8022,0.0,0.0,0.0,-4.7987,-4.8417,-4.9082,-4.9415,-4.9835,-5.0307,-5.0587,-5.071,-5.071,0.0,0.0,0.0,0.0,0.0,0.0,-1.5105,-1.6236,-1.7488,-1.9086,-1.9936,-2.0679,-2.1443,-2.0789,-2.0282,-2.0228,0.0,0.0,0.0,0.0,0.0,0.0,0.0,0.0,0.0,0.0,0.0,0.0,0.0,0.0,0.0,0.0,0.0,0.0,0.0,0.0,0.0,0.0,0.0,0.0,0.0,0.0,0.0,0.0,0.0,0.0,0.0,0.0,0.0,0.0,0.0,0.0,0.0,0.0,0.0,0.0,-3.7168,-3.8408,-3.8876,-3.934,-3.942,-3.8114,-3.6718,-3.4959,0.0,0.0,-2.7705,-2.5051,-2.3787,-2.2799,-2.152,-2.1714,-2.2377,-2.3334,0.0,-2.6102,0.0,0.0,0.0,0.0,0.0,0.0,0.0,0.0,0.0,0.0,0.0,0.0,0.0,-4.929,-4.9411,-4.953,-4.9649,-4.9813,-5.0051,-5.0189,-5.0024,-4.9559,-4.9796,-4.9607,-4.9047,-4.8925,-4.8889,-4.8907,0.0,0.0,0.0,-4.8854,-4.9328,-5.003,-5.003,-5.0382,-5.0891,-5.0891,-5.0891,-5.0891,0.0,0.0,0.0,0.0,0.0,0.0,0.0,-1.5863,-1.7484,-1.9095,-1.9935,-2.0715,-2.1507,-2.0807,-2.03,-2.03,0.0,0.0,0.0,0.0,0.0,0.0,0.0,0.0,0.0,0.0,-2.0076,-2.0807,-2.1604,0.0,0.0,0.0,0.0,0.0,0.0,0.0,0.0,0.0,0.0,0.0,0.0,0.0,0.0,0.0,0.0,0.0,0.0,0.0,0.0,0.0,0.0,0.0,0.0,0.0,0.0,0.0,-3.4883,-3.6166,-3.6693,-3.6795,-3.6698,-3.6482,-3.5263,-3.3566,0.0,0.0,-2.7106,-2.4936,-2.3381,-2.2183,-2.1439,-2.1309,-2.1795,-2.3253,-2.4079,0.0,0.0,0.0,0.0,0.0,0.0,0.0,0.0,0.0,0.0,0.0,0.0,0.0,0.0,-4.9513,-4.9708,-4.9708,-4.9708,-4.9854,-5.0189,-5.0331,-5.0453,-5.0585,-5.0801,-5.0873,-5.0838,-5.003,-4.9706,0.0,0.0,0.0,0.0,-4.9706,-5.018,-5.0873,-5.0873,-5.0873,-5.0891,-5.0891,-5.0891,-5.0891,0.0,0.0,0.0,0.0,0.0,0.0,0.0,-1.505,-1.6261,-1.6763,-1.8009,-1.8914,-1.9109,-1.9334,-1.9492,-1.9476,0.0,0.0,0.0,0.0,0.0,0.0,0.0,0.0,0.0,0.0,-2.0675,-2.0875,-2.213,-2.2842,-2.297,-2.2932,0.0,0.0,0.0,0.0,0.0,0.0,0.0,0.0,0.0,0.0,0.0,0.0,0.0,0.0,0.0,0.0,0.0,0.0,0.0,0.0,0.0,0.0,0.0,-2.8939,0.0,0.0,-3.3834,-3.4504,-3.4931,-3.3803,-3.2699,-3.1341,-2.9189,0.0,-2.581,-2.416,-2.3058,-2.2167,-2.1439,-2.1293,-2.1779,-2.3253,-2.4132,0.0,0.0,0.0,0.0,0.0,0.0,0.0,0.0,0.0,0.0,0.0,0.0,0.0,0.0,0.0,-4.9708,-4.9708,-4.9913,-5.0086,-5.0189,-5.0408,-5.0575,-5.0585,-5.0801,-5.0891,-5.0873,-5.0735,0.0,0.0,0.0,0.0,0.0,-5.0779,-5.0938,-5.1167,-5.1167,-5.1167,-5.1167,-5.1167,-5.1167,-5.1167,0.0,0.0,0.0,0.0,0.0,0.0,0.0,-1.4211,-1.5362,-1.5662,-1.6833,-1.7614,-1.7559,-1.7923,-1.8193,-1.8197,0.0,0.0,0.0,0.0,0.0,0.0,0.0,0.0,0.0,-2.021,-2.0979,-2.0897,-2.2388,-2.3223,-2.3457,-2.338,-2.3315,-2.3249,0.0,0.0,0.0,0.0,0.0,0.0,0.0,0.0,-2.2296,0.0,0.0,0.0,0.0,0.0,0.0,0.0,0.0,0.0,0.0,0.0,0.0,0.0,-2.7862,-3.0042,0.0,-3.2087,-3.2574,-3.1344,-3.0569,0.0,0.0,0.0,-2.479,-2.3382,-2.2491,-2.1827,-2.1374,-2.152,-2.2135,-2.3353,-2.4429,0.0,0.0,0.0,0.0,0.0,0.0,0.0,0.0,0.0,0.0,0.0,0.0,0.0,0.0,0.0,-4.9884,-4.9884,-5.0103,-5.0246,-5.0341,-5.0519,-5.063,-5.0702,-5.09,-5.0972,-5.0972,-5.1105,0.0,0.0,0.0,0.0,0.0,-5.1298,-5.1298,-5.1298,-5.1298,-5.1298,-5.1298,-5.1298,-5.1298,-5.1298,0.0,0.0,0.0,0.0,0.0,0.0,0.0,0.0,0.0,0.0,-1.6272,-1.678,-1.6732,-1.6715,-1.6704,0.0,0.0,0.0,0.0,0.0,0.0,0.0,0.0,0.0,0.0,-2.021,-2.0962,-2.0907,-2.2441,-2.3551,-2.42,-2.4195,-2.4145,-2.4087,-2.3877,0.0,0.0,0.0,0.0,0.0,0.0,0.0,0.0,0.0,0.0,0.0,0.0,0.0,0.0,0.0,0.0,0.0,0.0,0.0,0.0,0.0,0.0,0.0,0.0,-2.9486,0.0,0.0,0.0,0.0,0.0,0.0,0.0,-2.2669,-2.1795,-2.1325,-2.1374,-2.194,-2.2703,-2.3616,-2.4955,0.0,0.0,0.0,0.0,0.0,0.0,0.0,0.0,0.0,0.0,0.0,0.0,0.0,0.0,0.0,-5.0148,-5.0246,-5.0246,-5.0341,-5.0585,-5.0612,-5.0729,-5.0918,-5.1025,-5.1105,-5.1105,-5.1246,0.0,0.0,0.0,0.0,0.0,-5.1324,-5.1324,-5.1324,-5.1324,-5.1324,-5.1324,-5.1324,-5.1324,-5.1324,0.0,0.0,0.0,0.0,0.0,0.0,0.0,0.0,0.0,0.0,0.0,-1.5954,-1.5882,-1.6426,0.0,0.0,0.0,0.0,0.0,0.0,0.0,0.0,0.0,0.0,0.0,-2.0238,-2.0983,-2.099,-2.3022,-2.4115,-2.4295,-2.4727,-2.492,-2.4889,-2.413,-2.3388,0.0,0.0,0.0,0.0,0.0,0.0,0.0,0.0,0.0,0.0,-2.2079,-2.2163,0.0,0.0,0.0,0.0,0.0,0.0,0.0,0.0,-2.3686,-2.4398,-2.5008,0.0,-2.7388,-2.6126,-2.6091,-2.594,0.0,0.0,0.0,0.0,0.0,0.0,0.0,-2.2329,-2.3094,0.0,0.0,0.0,0.0,0.0,0.0,0.0,0.0,0.0,0.0,0.0,0.0,0.0,0.0,0.0,0.0,0.0,-4.9695,-5.0474,-5.0519,-5.0547,-5.0585,-5.0747,-5.09,-5.1052,-5.1079,-5.1158,-5.1246,-5.1402,0.0,0.0,0.0,0.0,-5.1615,-5.1615,-5.1615,-5.1615,-5.1615,-5.1615,-5.1615,-5.1615,-5.1615,-5.1615,0.0,0.0,0.0,0.0,0.0,0.0,0.0,0.0,0.0,0.0,0.0,0.0,0.0,0.0,0.0,0.0,0.0,0.0,0.0,0.0,0.0,0.0,0.0,0.0,-1.8797,-2.0248,-2.116,-2.1503,-2.3386,-2.466,-2.5349,-2.5614,-2.5718,-2.57,-2.4372,-2.3388,0.0,0.0,0.0,0.0,-2.1257,0.0,0.0,0.0,0.0,0.0,-2.1458,-2.1597,0.0,-2.1852,-2.1899,-2.1812,0.0,0.0,0.0,0.0,-2.266,-2.2944,-2.2896,-2.4131,-2.524,-2.4436,-2.4427,-2.4337,-2.3253,0.0,0.0,0.0,0.0,0.0,0.0,0.0,0.0,0.0,0.0,0.0,0.0,0.0,0.0,0.0,0.0,0.0,0.0,0.0,0.0,0.0,0.0,0.0,0.0,0.0,-4.8972,-4.9536,-4.959,-4.9994,-5.0729,-5.09,-5.1025,-5.1105,-5.1237,-5.1324,-5.1402,-5.1531,0.0,0.0,0.0,0.0,-5.169,-5.169,-5.1758,-5.1808,-5.1808,-5.1815,-5.1889,-5.1889,-5.1889,-5.1889,0.0,0.0,0.0,0.0,0.0,0.0,0.0,0.0,0.0,0.0,0.0,0.0,0.0,0.0,0.0,0.0,0.0,0.0,0.0,0.0,0.0,0.0,0.0,-1.8914,-1.8966,-2.0291,-2.1425,-2.2276,-2.3749,-2.5191,-2.6584,-2.651,-2.6382,-2.6109,-2.4648,-2.3495,0.0,0.0,0.0,0.0,-2.1074,0.0,0.0,0.0,0.0,0.0,0.0,0.0,0.0,-2.1545,-2.1755,-2.1812,-2.1812,0.0,0.0,0.0,0.0,0.0,-2.1648,-2.2473,-2.3374,-2.3421,-2.3467,-2.3334,-2.2718,0.0,0.0,0.0,0.0,0.0,0.0,0.0,0.0,0.0,0.0,0.0,0.0,0.0,0.0,0.0,0.0,0.0,0.0,0.0,0.0,0.0,0.0,0.0,0.0,0.0,0.0,-4.8339,-4.8469,-4.9196,-5.0531,-5.0673,-5.0806,-5.0955,-5.1199,-5.1381,-5.1531,-5.1658,-5.1715,0.0,0.0,0.0,-5.1765,-5.1765,-5.1833,-5.1932,-5.1932,-5.2005,-5.2102,-5.2102,-5.2102,-5.2102,0.0,0.0,0.0,0.0,0.0,0.0,0.0,0.0,0.0,0.0,0.0,0.0,0.0,0.0,0.0,0.0,0.0,0.0,0.0,0.0,0.0,0.0,-1.8134,-1.9164,-1.971,-2.0554,-2.1669,-2.3041,-2.4515,-2.5672,-2.653,-2.7053,-2.6551,-2.5204,-2.4951,-2.3998,-2.2605,-2.2525,-2.1672,-2.0373,-2.0238,0.0,0.0,0.0,0.0,0.0,0.0,0.0,0.0,-2.095,-2.1342,-2.1812,-2.1812,0.0,0.0,0.0,0.0,0.0,-2.1479,-2.1596,-2.1889,-2.2525,-2.3093,-2.3463,-2.335,-2.3415,0.0,0.0,0.0,0.0,0.0,0.0,0.0,0.0,0.0,0.0,0.0,0.0,0.0,0.0,0.0,0.0,0.0,0.0,0.0,0.0,0.0,0.0,0.0,0.0,0.0,-4.8451,-4.8598,-4.8798,-4.9044,-4.907,-4.9464,-5.0272,-5.0399,-5.0905,-5.1665,-5.169,-5.174,0.0,0.0,-5.1932,-5.2054,-5.2054,-5.2036,-5.2078,-5.2078,-5.2078,-5.2102,-5.2102,-5.2102,-5.2102,0.0,0.0,0.0,0.0,0.0,0.0,0.0,0.0,0.0,0.0,0.0,0.0,0.0,0.0,0.0,0.0,0.0,0.0,0.0,0.0,0.0,-1.6597,-1.8046,-1.9172,-1.9878,-2.0625,-2.1951,-2.3857,-2.4901,-2.5992,-2.711,-2.7341,-2.6561,-2.5005,-2.5005,-2.4118,-2.2575,-2.211,-2.1242,-2.0144,0.0,0.0,0.0,0.0,0.0,0.0,0.0,0.0,0.0,0.0,-2.0619,-2.1216,-2.1216,0.0,0.0,0.0,0.0,0.0,-2.1433,-2.1371,-2.1615,-2.2768,-2.2979,-2.3107,-2.3869,-2.4355,0.0,0.0,0.0,0.0,0.0,0.0,0.0,0.0,0.0,0.0,0.0,0.0,0.0,0.0,0.0,0.0,0.0,0.0,0.0,0.0,0.0,0.0,0.0,0.0,0.0,0.0,-4.7424,-4.7481,-4.7572,-4.7645,-4.832,-4.9565,-4.9706,-5.0238,-5.1171,-5.1171,-5.1477,-5.2005,0.0,-5.2054,-5.2102,-5.2102,-5.215,-5.2198,-5.2198,-5.2246,-5.2317,-5.2317,-5.2317,-5.2317,0.0,0.0,0.0,0.0,0.0,0.0,0.0,0.0,0.0,0.0,0.0,0.0,0.0,0.0,0.0,0.0,0.0,0.0,0.0,0.0,-1.6392,-1.6589,-1.7824,-1.9037,-2.0124,-2.0714,-2.2187,-2.4641,-2.5138,-2.6125,-2.7542,-2.7247,-2.6359,-2.4988,-2.4798,-2.3915,-2.2531,-2.1922,-2.1088,-2.0085,0.0,0.0,0.0,0.0,0.0,0.0,0.0,0.0,0.0,0.0,0.0,0.0,0.0,0.0,0.0,-2.1167,-2.1241,-2.1282,-2.1174,-2.134,-2.1876,-2.3172,0.0,-2.3252,-2.4695,-2.5602,0.0,0.0,0.0,0.0,0.0,0.0,0.0,0.0,0.0,0.0,0.0,0.0,0.0,0.0,0.0,0.0,0.0,0.0,0.0,0.0,0.0,0.0,0.0,0.0,0.0,0.0,-4.6495,-4.6542,-4.6637,-4.6819,-4.7559,-4.8857,-4.8984,-4.9555,-5.042,-5.045,-5.088,-5.1574,-5.1574,-5.1616,-5.164,-5.164,-5.171,-5.1821,-5.202,-5.2312,-5.2572,-5.2572,-5.2572,-5.2554,0.0,0.0,0.0,0.0,0.0,0.0,0.0,0.0,0.0,0.0,0.0,0.0,0.0,0.0,0.0,0.0,0.0,0.0,0.0,0.0,-1.5817,-1.6579,-1.7304,-1.8689,-2.087,-2.0976,-2.2429,-2.5331,-2.5316,-2.6025,-2.739,-2.6586,-2.5764,-2.4971,-2.4215,-2.3375,-2.2497,-2.2463,-2.1483,-2.0014,-1.9963,0.0,0.0,0.0,0.0,0.0,0.0,0.0,0.0,0.0,0.0,0.0,0.0,0.0,-1.9652,-1.9586,-2.0007,-2.0458,-2.04,-2.1325,-2.2507,-2.3301,-2.3933,-2.4744,-2.6199,-2.7156,0.0,-2.869,0.0,0.0,0.0,0.0,0.0,0.0,0.0,0.0,0.0,0.0,0.0,0.0,0.0,0.0,0.0,0.0,0.0,0.0,0.0,0.0,0.0,0.0,0.0,0.0,0.0,-4.6772,-4.6795,-4.7043,-4.749,-4.8093,-4.8275,-4.8803,-4.9591,-4.9731,-4.9883,-5.0069,-5.0069,-5.0119,-5.023,-5.023,-5.0279,-5.0421,-5.1242,-5.2072,-5.2761,-5.2761,-5.2761,-5.2652,0.0,0.0,0.0,0.0,0.0,0.0,0.0,0.0,0.0,0.0,0.0,0.0,0.0,0.0,0.0,0.0,0.0,0.0,0.0,0.0,-1.5763,-1.6553,-1.7191,-1.8386,-2.0212,-2.0735,-2.2217,-2.473,-2.5065,-2.5495,-2.5967,-2.5587,-2.5005,-2.4232,-2.3884,-2.3282,-2.2467,-2.1979,-2.1083,-1.9951,-1.949,-1.8713,0.0,0.0,0.0,0.0,0.0,0.0,0.0,0.0,-1.834,-1.8919,-1.8919,-1.9177,-1.9503,-1.9422,-1.9878,-2.0393,-2.032,-2.1325,-2.2669,-2.3836,-2.5003,0.0,0.0,-2.8672,-2.9624,-3.0866,-3.1424,0.0,0.0,0.0,0.0,0.0,0.0,0.0,0.0,0.0,0.0,0.0,0.0,0.0,0.0,0.0,0.0,0.0,0.0,0.0,0.0,0.0,0.0,0.0,0.0,-4.6957,-4.7043,-4.7183,-4.7371,-4.7563,-4.764,-4.8138,-4.8996,-4.9064,-4.9424,-5.0023,-5.0023,-5.0071,-5.0163,-5.0163,-5.0228,-5.035,-5.0678,-5.103,-5.1307,-5.1307,-5.1307,-5.1252,0.0,0.0,0.0,0.0,0.0,0.0,0.0,0.0,0.0,0.0,0.0,0.0,0.0,0.0,0.0,0.0,0.0,0.0,0.0,-1.4752,-1.5375,-1.6194,-1.6826,-1.7861,-1.9381,-2.0222,-2.1706,-2.3922,-2.4776,-2.5153,-2.5071,-2.4758,-2.4319,-2.3788,-2.3478,-2.3031,-2.2467,-2.1901,-2.1006,-1.9951,-1.9439,-1.8674,0.0,0.0,0.0,0.0,0.0,0.0,0.0,0.0,-1.7789,-1.8174,-1.8166,-1.8458,-1.8789,-1.8726,-1.9328,-2.0006,-1.9978,-2.1324,-2.3042,-2.426,0.0,0.0,-2.9274,-3.0038,-3.098,-3.2758,-3.3564,0.0,0.0,0.0,0.0,0.0,0.0,0.0,0.0,0.0,0.0,0.0,0.0,0.0,0.0,0.0,0.0,0.0,0.0,0.0,0.0,0.0,0.0,0.0,0.0,0.0,-4.7245,-4.732,-4.7363,-4.7363,-4.745,-4.7778,-4.8323,-4.8345,-4.8757,-4.9412,-4.9412,-4.9458,-4.9507,-4.9507,-4.9716,-5.0094,-5.0136,-5.0302,-5.0519,-5.0519,-5.0519,-5.0483,0.0,0.0,0.0,0.0,0.0,0.0,0.0,0.0,0.0,0.0,0.0,0.0,0.0,0.0,0.0,0.0,0.0,0.0,-1.43,-1.4242,-1.4563,-1.5368,-1.6036,-1.7079,-1.8559,-1.9381,-2.0872,-2.3089,-2.4466,-2.5094,-2.4954,-2.4163,-2.3802,-2.3736,-2.2962,-2.2552,-2.2501,-2.2419,-2.1468,-2.0002,-1.9985,-1.9118,-1.7789,0.0,0.0,0.0,0.0,0.0,0.0,0.0,-1.7503,-1.7491,-1.7407,0.0,-1.7298,-1.7211,-1.8153,-1.92,-1.92,-2.1292,-2.3709,0.0,0.0,0.0,-3.0959,-3.1325,-3.197,-3.4239,0.0,0.0,0.0,0.0,0.0,0.0,0.0,0.0,0.0,0.0,0.0,0.0,0.0,0.0,0.0,0.0,0.0,0.0,0.0,0.0,0.0,0.0,0.0,0.0,0.0,0.0,-4.7302,-4.7428,-4.7493,-4.7493,-4.7762,-4.7741,-4.7511,-4.7636,-4.7798,-4.7881,-4.7881,-4.7945,-4.7992,-4.8012,-4.8545,-4.9395,-4.9533,-5.0068,-5.0784,-5.0784,-5.0784,-5.0655,0.0,0.0,0.0,0.0,0.0,0.0,0.0,0.0,0.0,0.0,0.0,0.0,0.0,0.0,0.0,0.0,0.0,0.0,-1.43,-1.4242,-1.4563,-1.5368,-1.5498,-1.6273,-1.7798,-1.9092,-2.0286,-2.1412,-2.2359,-2.2759,-2.2673,-2.2915,-2.3026,-2.3009,-2.2735,-2.2552,-2.2467,-2.1867,-2.1006,-1.9951,-1.9439,-1.8633,-1.771,0.0,0.0,0.0,0.0,0.0,0.0,0.0,0.0,0.0,-1.7411,0.0,-1.7224,-1.7215,-1.8153,-1.92,-1.92,-2.1339,0.0,-2.5149,0.0,0.0,0.0,-3.2948,0.0,0.0,0.0,0.0,0.0,0.0,0.0,0.0,0.0,0.0,0.0,0.0,0.0,0.0,0.0,0.0,0.0,0.0,0.0,0.0,0.0,0.0,0.0,0.0,0.0,0.0,0.0,0.0,-4.7428,-4.7096,-4.6946,-4.6928,-4.6486,-4.6813,-4.778,-4.7868,-4.7929,-4.797,-4.797,-4.8048,-4.813,-4.819,-4.8375,-4.8615,-4.8672,-4.8838,-4.904,-4.904,-4.904,-4.9022,0.0,0.0,0.0,0.0,0.0,0.0,0.0,0.0,0.0,0.0,0.0,0.0,0.0,0.0,0.0,0.0,0.0,0.0,0.0,0.0,-1.4425,-1.4897,-1.5138,-1.5954,-1.748,-1.8639,-1.9423,-1.9829,-2.0842,-2.1439,-2.1707,-2.2099,-2.2423,-2.2699,-2.2619,-2.2411,-2.2036,-2.1523,-2.0628,-1.9524,-1.908,-1.843,-1.7687,0.0,0.0,0.0,0.0,0.0,0.0,0.0,0.0,0.0,-1.6903,0.0,-1.7186,-1.7174,-1.8126,-1.925,-1.9558,-2.1582,0.0,0.0,0.0,0.0,0.0,0.0,0.0,0.0,0.0,0.0,0.0,0.0,0.0,0.0,0.0,0.0,0.0,0.0,0.0,0.0,0.0,0.0,0.0,0.0,0.0,0.0,0.0,0.0,0.0,0.0,0.0,0.0,0.0,0.0,-4.7187,-4.6551,-4.625,-4.6251,-4.5877,-4.6169,-4.7059,-4.7042,-4.7082,-4.7158,-4.7489,-4.7693,-4.7788,-4.8139,-4.8325,-4.8382,-4.8382,-4.8401,-4.842,-4.842,-4.842,-4.8384,0.0,0.0,0.0,0.0,0.0,0.0,0.0,0.0,0.0,0.0,0.0,0.0,0.0,0.0,0.0,0.0,0.0,0.0,0.0,0.0,-1.4198,-1.4198,-1.4881,-1.5914,-1.7241,-1.8006,-1.8389,-1.8389,-1.9806,-2.0877,-2.1586,-2.1611,-2.2005,-2.2699,-2.2632,-2.2167,-2.1396,-2.1263,-2.0318,-1.8894,-1.8826,-1.8351,-1.7687,-1.7551,0.0,0.0,0.0,0.0,0.0,0.0,0.0,0.0,-1.6051,-1.6499,-1.7076,-1.701,-1.8035,-1.9348,-2.0028,0.0,0.0,0.0,0.0,0.0,0.0,0.0,0.0,0.0,0.0,0.0,0.0,0.0,0.0,0.0,0.0,0.0,0.0,0.0,0.0,0.0,0.0,0.0,0.0,0.0,0.0,0.0,0.0,0.0,0.0,0.0,0.0,0.0,0.0,0.0,-4.6593,-4.5814,-4.5453,0.0,-4.5552,-4.559,-4.559,-4.5624,-4.5716,-4.5865,-4.6672,-4.7021,-4.7058,-4.7811,-4.818,-4.8292,-4.8292,-4.8329,-4.8365,-4.8365,-4.8365,-4.8273,0.0,0.0,0.0,0.0,0.0,0.0,0.0,0.0,0.0,0.0,0.0,0.0,0.0,0.0,0.0,0.0,0.0,0.0,0.0,0.0,-1.4198,-1.4198,-1.4816,-1.5294,-1.5606,-1.6897,-1.7553,-1.7553,-1.9024,-2.0122,-2.0842,-2.1408,-2.2038,-2.2699,-2.2685,-2.2207,-2.1362,-2.0768,-1.9879,-1.8843,-1.8268,-1.7895,-1.7631,-1.6981,-1.6642,0.0,0.0,0.0,0.0,0.0,0.0,0.0,-1.5261,-1.571,-1.6253,-1.6241,-1.7646,-1.9248,0.0,-2.1594,0.0,0.0,0.0,0.0,0.0,0.0,0.0,0.0,0.0,0.0,0.0,0.0,0.0,0.0,0.0,0.0,0.0,0.0,0.0,0.0,0.0,0.0,0.0,0.0,0.0,0.0,0.0,0.0,0.0,0.0,0.0,0.0,0.0,-4.57,-4.5758,-4.5111,-4.4803,0.0,-4.4271,-4.4011,-4.41,-4.5315,-4.5902,-4.6047,-4.6285,-4.6394,-4.6412,-4.6578,-4.667,-4.6687,-4.6687,-4.6705,-4.6723,-4.6723,-4.6723,-4.6703,0.0,0.0,0.0,0.0,0.0,0.0,0.0,0.0,0.0,0.0,0.0,0.0,0.0,0.0,0.0,0.0,0.0,0.0,0.0,0.0,0.0,-1.4157,-1.4754,-1.5094,-1.5094,-1.6193,-1.694,-1.7299,-1.8076,-1.9189,-2.0622,-2.0952,-2.1693,-2.2699,-2.2699,-2.2039,-2.0899,-2.0485,-1.9575,-1.8381,-1.7975,-1.7558,-1.7121,-1.6674,-1.604,-1.5337,-1.4921,0.0,0.0,0.0,0.0,0.0,0.0,0.0,-1.5549,-1.5901,-1.7047,-1.8421,0.0,0.0,0.0,0.0,0.0,0.0,0.0,0.0,0.0,0.0,0.0,0.0,0.0,0.0,0.0,0.0,0.0,0.0,0.0,0.0,0.0,0.0,0.0,0.0,0.0,0.0,0.0,0.0,0.0,0.0,0.0,0.0,0.0,0.0,-4.5025,-4.4979,-4.5055,-4.4382,-4.4034,-4.4069,-4.3717,-4.36,-4.3721,-4.4535,-4.494,-4.5029,-4.5432,-4.5634,-4.5652,-4.604,-4.6223,-4.6257,-4.6257,-4.6291,-4.6343,-4.6343,-4.636,-4.6337,0.0,0.0,0.0,0.0,0.0,0.0,0.0,0.0,0.0,0.0,0.0,0.0,0.0,0.0,0.0,0.0,0.0,0.0,0.0,0.0,0.0,-1.412,-1.464,-1.4915,-1.4915,-1.5638,-1.6361,-1.7107,-1.7238,-1.8451,-2.0616,-2.0547,-2.129,-2.2712,-2.2712,-2.1829,-2.0398,-2.0338,-1.9388,-1.7911,-1.7845,-1.7417,-1.6795,-1.659,-1.5643,-1.4407,-1.4274,-1.374,-1.3118,-1.3022,0.0,0.0,0.0,0.0,-1.4848,-1.5459,-1.6334,-1.751,0.0,0.0,0.0,0.0,0.0,0.0,0.0,0.0,0.0,0.0,0.0,0.0,0.0,0.0,0.0,0.0,0.0,0.0,0.0,0.0,0.0,0.0,0.0,0.0,0.0,0.0,0.0,0.0,0.0,0.0,0.0,0.0,-4.4007,-4.4894,-4.4394,-4.4198,-4.44,-4.3741,-4.3464,-4.3532,-4.3599,-4.3701,-4.382,-4.3837,-4.3837,-4.3857,-4.4521,-4.4833,-4.4888,-4.5556,-4.5865,-4.5947,-4.5947,-4.6015,-4.6115,-4.6115,-4.6164,-4.61,0.0,0.0,0.0,0.0,0.0,0.0,0.0,0.0,0.0,0.0,0.0,0.0,0.0,0.0,0.0,0.0,0.0,0.0,-1.4404,0.0,0.0,-1.419,-1.415,-1.4151,-1.4151,-1.4874,-1.5603,-1.636,-1.6984,0.0,0.0,0.0,-2.1363,-2.279,-2.2725,-2.1829,-2.041,-2.0398,-1.9406,-1.7894,-1.7883,-1.7788,-1.7569,-1.6862,-1.6061,-1.5244,-1.4536,-1.3805,-1.3163,-1.3031,-1.307,0.0,0.0,0.0,-1.4062,-1.4159,-1.5574,-1.7185,0.0,0.0,0.0,0.0,0.0,0.0,0.0,0.0,0.0,0.0,0.0,0.0,0.0,0.0,0.0,0.0,0.0,0.0,0.0,0.0,0.0,0.0,0.0,0.0,0.0,0.0,0.0,0.0,0.0,0.0,0.0,-4.2868,-4.3077,-4.3376,-4.336,-4.3415,-4.3559,-4.35,-4.3532,-4.3582,-4.3783,-4.3865,-4.3899,-4.3961,-4.3945,-4.3899,-4.4072,-4.4141,-4.4141,-4.4252,-4.4373,-4.447,-4.447,-4.4531,-4.4588,-4.4588,-4.4606,-4.4588,0.0,0.0,0.0,0.0,0.0,0.0,0.0,0.0,0.0,0.0,0.0,0.0,0.0,0.0,0.0,-1.4494,-1.4471,-1.4423,-1.4343,-1.4286,-1.4246,-1.4197,-1.4107,-1.4037,-1.3998,-1.4328,-1.4839,-1.5574,0.0,0.0,0.0,-2.0486,-2.141,0.0,0.0,-2.2095,-2.1037,-2.0582,-1.971,-1.8591,-1.8086,-1.7634,-1.7184,-1.6749,-1.6139,-1.5459,-1.5097,-1.4766,-1.4462,-1.4376,-1.4055,-1.3653,-1.3587,0.0,0.0,0.0,-1.4572,0.0,-1.7441,0.0,0.0,0.0,0.0,0.0,0.0,0.0,0.0,0.0,0.0,0.0,0.0,0.0,0.0,0.0,0.0,0.0,0.0,0.0,0.0,0.0,0.0,0.0,0.0,0.0,0.0,0.0,0.0,0.0,-4.1889,-4.2098,-4.2484,-4.3142,-4.3269,-4.3358,-4.3464,-4.348,-4.3566,-4.3719,-4.3832,-4.3913,-4.3961,-4.3989,-4.3989,-4.3958,-4.4055,-4.4119,-4.4101,-4.4147,-4.4192,-4.4259,-4.4259,-4.427,-4.43,-4.43,-4.4329,-4.4358,0.0,0.0,0.0,0.0,0.0,0.0,0.0,0.0,0.0,0.0,0.0,0.0,0.0,0.0,0.0,0.0,-1.4507,-1.4453,-1.4337,-1.4305,-1.4278,-1.423,-1.4165,-1.4107,-1.4043,-1.4026,-1.437,-1.5127,0.0,0.0,-1.9449,-2.0313,-2.1383,0.0,-2.2678,-2.2311,0.0,0.0,0.0,-1.9138,-1.8483,-1.7882,-1.7379,-1.7479,-1.704,-1.6355,-1.6357,-1.6101,-1.5772,-1.5716,-1.5164,-1.4466,-1.4225,-1.3712,0.0,0.0,0.0,0.0,0.0,0.0,0.0,0.0,0.0,0.0,0.0,0.0,0.0,0.0,0.0,0.0,0.0,0.0,0.0,0.0,0.0,0.0,0.0,0.0,0.0,0.0,0.0,0.0,0.0,0.0,0.0,0.0,0.0,0.0,-4.1118,-4.1323,-4.1796,-4.2558,-4.2921,-4.3136,-4.3185,-4.3457,-4.3652,-4.3804,-4.3899,-4.3942,-4.4005,-4.4005,-4.402,-4.4055,-4.4169,-4.4199,-4.4229,-4.427,-4.4314,-4.4329,-4.4344,-4.4358,-4.4387,-4.4401,-4.4426,-4.4482,0.0,0.0,0.0,0.0,0.0,0.0,0.0,0.0,0.0,0.0,0.0,0.0,-1.4493,-1.4493,-1.4493,-1.4493,-1.4507,-1.4465,-1.4404,-1.4331,-1.4305,-1.4291,-1.4237,0.0,-1.419,-1.4068,-1.4399,0.0,0.0,0.0,-1.8694,-2.0117,-2.1213,-2.1977,-2.2538,-2.2349,-2.1556,0.0,0.0,0.0,0.0,-1.9024,-1.8965,-1.9719,0.0,0.0,0.0,0.0,-1.6538,-1.655,-1.6011,-1.5214,-1.4508,-1.4171,-1.39,0.0,0.0,0.0,0.0,0.0,0.0,0.0,0.0,0.0,0.0,0.0,0.0,0.0,0.0,0.0,0.0,0.0,0.0,0.0,0.0,0.0,0.0,0.0,0.0,0.0,0.0,0.0,0.0,0.0,0.0,0.0,0.0,0.0,-4.0437,-4.0654,-4.0795,-4.0918,-4.1788,-4.2276,-4.2359,-4.3317,-4.3788,-4.3804,-4.3929,-4.4005,-4.4005,-4.4005,-4.407,-4.4184,-4.4184,-4.4244,-4.4285,-4.43,-4.4344,-4.4397,-4.4454,-4.4542,-4.4592,-4.4659,-4.4685,-4.4667,0.0,0.0,0.0,0.0,0.0,0.0,0.0,0.0,0.0,0.0,0.0,0.0,0.0,-1.4493,-1.4493,-1.4493,-1.4507,-1.4483,-1.4478,-1.4411,-1.4344,-1.4305,-1.428,-1.4241,-1.4208,-1.4145,-1.4275,0.0,0.0,-1.644,-1.7977,-1.8937,-2.0037,-2.1237,-2.2362,-2.2673,-2.2315,-2.1554,0.0,0.0,0.0,0.0,0.0,0.0,0.0,0.0,0.0,0.0,0.0,-1.95,-1.8336,-1.6886,-1.6525,-1.5404,-1.4055,-1.3165,0.0,0.0,0.0,0.0,0.0,0.0,0.0,0.0,0.0,0.0,0.0,0.0,0.0,0.0,0.0,0.0,0.0,0.0,0.0,0.0,0.0,0.0,0.0,0.0,0.0,0.0,0.0,0.0,0.0,0.0,0.0,0.0,-3.9608,-3.9872,-4.0245,-4.0772,-4.1254,-4.1502,-4.1534,-4.197,-4.2197,-4.2197,-4.2906,-4.3225,-4.3243,-4.3763,-4.4101,-4.4255,-4.4255,-4.43,-4.4373,-4.4416,-4.4154,-4.3753,-4.3767,-4.3482,-4.3133,-4.3705,-4.3925,-4.4001,0.0,0.0,0.0,0.0,0.0,0.0,0.0,0.0,0.0,0.0,0.0,0.0,0.0,0.0,-1.4511,-1.4528,-1.4535,-1.4512,-1.4507,-1.4453,-1.4393,-1.4344,-1.4325,-1.4293,-1.4242,-1.4236,-1.4223,0.0,0.0,0.0,0.0,-1.7817,-1.8911,-2.0114,-2.1301,-2.1904,0.0,0.0,0.0,-2.1236,0.0,0.0,-2.1844,0.0,0.0,0.0,0.0,0.0,0.0,0.0,0.0,0.0,0.0,0.0,0.0,0.0,0.0,0.0,-1.3949,0.0,0.0,0.0,0.0,0.0,0.0,0.0,0.0,0.0,0.0,0.0,0.0,0.0,0.0,0.0,0.0,0.0,0.0,0.0,0.0,0.0,0.0,0.0,0.0,0.0,0.0,0.0,0.0,0.0,-3.8865,-3.9104,-3.9601,-4.0472,-4.0624,-4.082,-4.1095,-4.1233,-4.1292,-4.1311,-4.2053,-4.2537,-4.2816,-4.3355,-4.3855,-4.43,-4.43,-4.4358,-4.4407,-4.4214,-4.3837,-4.3388,-4.3139,-4.2706,-4.2328,-4.3234,-4.3567,-4.3681,0.0,0.0,0.0,0.0,0.0,0.0,0.0,0.0,0.0,-1.4567,0.0,0.0,0.0,0.0,0.0,-1.4631,-1.4637,-1.4604,-1.4517,-1.4493,-1.447,-1.4399,-1.4393,-1.4374,-1.43,-1.4299,-1.4267,0.0,0.0,0.0,0.0,0.0,-1.7897,-1.8577,-1.9276,-1.9945,-2.0517,0.0,-2.0518,-2.0662,0.0,-2.2693,-2.2819,0.0,0.0,0.0,-2.464,-2.4152,0.0,0.0,0.0,0.0,0.0,0.0,0.0,0.0,0.0,0.0,0.0,0.0,0.0,0.0,0.0,0.0,0.0,0.0,0.0,0.0,0.0,0.0,0.0,0.0,0.0,0.0,0.0,0.0,0.0,0.0,0.0,0.0,0.0,0.0,0.0,0.0,0.0,0.0,0.0,-3.8051,-3.829,-3.8368,-3.8844,-3.9827,-3.9845,-4.023,-4.1022,-4.1143,-4.1219,-4.1234,-4.1442,-4.198,-4.276,-4.2797,-4.3334,-4.43,-4.43,-4.4373,-4.4439,-4.37,-4.3388,-4.3288,-4.2548,-4.225,-4.2356,-4.3317,-4.3663,-4.3777,0.0,0.0,0.0,0.0,0.0,0.0,0.0,0.0,-1.6243,0.0,0.0,0.0,-1.6313,-1.63,-1.6085,-1.5524,-1.5469,-1.5217,-1.4609,-1.4567,-1.4539,-1.4476,-1.4477,-1.4447,-1.4362,-1.4374,-1.4368,0.0,0.0,0.0,0.0,0.0,0.0,0.0,-1.717,-1.7629,-1.8397,-1.9968,0.0,0.0,-2.2392,-2.3384,0.0,0.0,0.0,0.0,0.0,-2.7352,0.0,0.0,-2.4257,-2.2181,0.0,0.0,0.0,0.0,0.0,0.0,-1.3392,0.0,0.0,0.0,0.0,0.0,0.0,0.0,0.0,0.0,0.0,0.0,0.0,0.0,0.0,0.0,0.0,0.0,0.0,0.0,0.0,0.0,0.0,0.0,0.0,0.0,0.0,0.0,-3.7086,-3.7473,-3.8254,-3.8417,-3.8635,-3.9019,-3.9038,-3.9148,-3.9368,-3.9439,-3.953,-3.9575,-4.027,-4.1067,-4.1943,-4.2519,-4.3334,-4.43,-4.43,-4.4373,-4.4439,-4.37,-4.3056,-4.2467,-4.1723,-4.1082,-4.0749,-4.223,-4.2773,-4.2962,0.0,0.0,0.0,0.0,0.0,0.0,0.0,0.0,-1.6956,0.0,0.0,0.0,-1.704,-1.7046,-1.6849,-1.6386,-1.6034,-1.564,-1.5171,-1.4796,-1.4589,-1.4539,-1.4539,-1.4516,-1.4439,-1.444,-1.4422,0.0,0.0,0.0,0.0,0.0,0.0,0.0,0.0,0.0,0.0,0.0,0.0,0.0,-2.2725,0.0,0.0,-2.6928,-2.7841,0.0,0.0,0.0,-2.8373,-2.7215,-2.5111,0.0,0.0,0.0,0.0,0.0,0.0,0.0,0.0,0.0,0.0,0.0,0.0,0.0,0.0,-2.0348,0.0,0.0,0.0,0.0,0.0,0.0,0.0,0.0,0.0,0.0,0.0,0.0,0.0,0.0,0.0,0.0,0.0,0.0,0.0,0.0,-3.6342,-3.6848,-3.7824,-3.8332,-3.8624,-3.8707,-3.8707,-3.8707,-3.8707,-3.8792,-3.8866,-3.891,-3.9474,-4.0228,-4.1107,-4.1571,-4.253,-4.3758,-4.3758,-4.4036,-4.4439,-4.3726,-4.2944,-4.2152,-4.1796,-4.1154,-4.0639,-4.2306,-4.2955,-4.3179,0.0,0.0,0.0,0.0,0.0,0.0,0.0,0.0,0.0,0.0,-1.7496,-1.7583,-1.7639,-1.764,-1.7578,-1.7393,-1.6724,-1.6199,-1.5922,-1.5175,-1.4696,-1.46,-1.46,-1.4571,-1.4506,-1.4504,-1.4488,0.0,0.0,0.0,0.0,0.0,0.0,0.0,0.0,0.0,0.0,0.0,0.0,-2.0899,-2.2972,-2.4323,0.0,0.0,-2.844,0.0,-2.9298,-2.9571,-2.9315,-2.7656,-2.525,0.0,0.0,0.0,0.0,0.0,-1.6903,0.0,0.0,0.0,0.0,0.0,0.0,0.0,-1.8623,-1.8949,0.0,0.0,0.0,0.0,0.0,0.0,0.0,0.0,0.0,0.0,0.0,0.0,0.0,0.0,0.0,0.0,0.0,0.0,-3.5168,-3.5347,-3.5713,-3.6279,-3.7107,-3.8056,-3.8594,-3.8594,-3.8667,-3.8719,-3.8719,-3.8837,-3.8892,-3.8906,-3.9031,-3.9547,-4.0416,-4.0416,-4.1301,-4.288,-4.2973,-4.3526,-4.4341,-4.3836,-4.3114,-4.2341,-4.2392,-4.1977,-4.1552,-4.3125,-4.3748,-4.392,-1.8079,0.0,0.0,0.0,0.0,0.0,0.0,0.0,-1.9246,-1.9885,-2.06,-2.1034,-2.1042,-2.1049,-2.0511,-1.9237,-1.8977,-1.8024,-1.6032,-1.5735,-1.5334,-1.4622,-1.4603,-1.4592,-1.4571,-1.4584,-1.4556,0.0,0.0,0.0,0.0,0.0,0.0,0.0,0.0,0.0,0.0,0.0,0.0,-2.0993,-2.2548,0.0,-2.5418,-2.8261,-2.9299,-2.9438,-3.0707,-3.1151,-3.0807,0.0,-2.7093,-2.5675,0.0,0.0,0.0,0.0,0.0,0.0,0.0,0.0,0.0,0.0,0.0,0.0,-1.8036,-1.8626,0.0,0.0,0.0,0.0,0.0,0.0,0.0,0.0,0.0,0.0,0.0,0.0,0.0,0.0,0.0,0.0,0.0,0.0,-3.3204,-3.4431,-3.5432,-3.6082,-3.6318,-3.7272,-3.7805,-3.7805,-3.8505,-3.8866,-3.8866,-3.8896,-3.8939,-3.8979,-3.9007,-3.9495,-4.0397,-4.0458,-4.1045,-4.2081,-4.2843,-4.3328,-4.3651,-4.422,-4.3982,-4.3184,-4.2619,-4.2341,-4.2367,-4.3403,-4.3817,-4.3999,-1.9,0.0,0.0,0.0,0.0,0.0,0.0,0.0,-2.0289,-2.0693,-2.1487,-2.1996,-2.1996,-2.1996,-2.168,-2.0864,-2.0418,-1.949,-1.7838,-1.738,-1.6587,-1.5306,-1.5274,-1.5083,-1.4664,-1.4614,-1.4581,0.0,0.0,0.0,0.0,0.0,0.0,0.0,0.0,0.0,0.0,0.0,-1.8415,-2.1027,-2.2427,0.0,-2.5515,-2.8481,-2.9591,-2.9748,-3.1176,-3.1468,-3.0899,-2.9334,-2.803,0.0,0.0,-2.3386,-2.2218,0.0,-2.0128,-1.9375,0.0,0.0,0.0,-1.8436,0.0,0.0,0.0,-1.8585,0.0,0.0,0.0,0.0,0.0,0.0,0.0,0.0,0.0,0.0,0.0,0.0,0.0,0.0,0.0,0.0,0.0,0.0,-3.1949,-3.3252,-3.4248,-3.5016,-3.5516,-3.6456,-3.719,-3.7595,-3.8055,-3.8485,-3.891,-3.8921,-3.8983,-3.8993,-3.9036,-3.93,-3.9765,-3.9821,-4.0351,-4.1222,-4.1734,-4.2511,-4.3433,-4.3912,-4.4134,-4.4102,-4.3767,-4.3433,-4.3244,-4.4079,-4.446,-4.4606,-1.9693,0.0,0.0,0.0,0.0,0.0,0.0,0.0,-2.0983,-2.1447,-2.2208,-2.2765,-2.2932,-2.2951,-2.2877,-2.2728,-2.1985,-2.1094,0.0,0.0,-1.7957,-1.6454,-1.6278,-1.5831,-1.4968,-1.4897,-1.4773,-1.459,0.0,0.0,0.0,0.0,0.0,0.0,0.0,0.0,0.0,0.0,0.0,-2.107,0.0,-2.4108,-2.561,-2.8544,-2.9659,-2.9833,-3.1285,-3.1421,-3.0765,-2.9817,0.0,-2.7392,-2.6329,-2.4687,0.0,0.0,0.0,0.0,0.0,0.0,0.0,0.0,0.0,-1.9227,0.0,0.0,0.0,0.0,0.0,0.0,0.0,0.0,0.0,0.0,0.0,0.0,0.0,0.0,0.0,0.0,0.0,0.0,0.0,0.0,-3.0928,-3.1819,-3.2662,-3.3533,-3.4463,-3.5437,-3.6334,-3.7127,-3.7377,-3.79,-3.8695,-3.8771,-3.8873,-3.9021,-3.9073,-3.9101,-3.9101,-3.9202,-3.9656,-4.0376,-4.0619,-4.1561,-4.2975,-4.3341,-4.3932,-4.4613,-4.4826,-4.4557,-4.4121,-4.4798,-4.5114,-4.5213,-1.9706,-1.9686,0.0,0.0,0.0,0.0,0.0,0.0,0.0,-2.3785,-2.477,-2.555,0.0,0.0,0.0,0.0,0.0,0.0,-2.1829,0.0,-1.9056,-1.8162,-1.7433,-1.6679,-1.5863,-1.5839,-1.5434,-1.459,0.0,0.0,0.0,0.0,0.0,0.0,-1.5137,0.0,0.0,0.0,-1.9589,0.0,-2.3448,-2.4712,0.0,-2.8703,-2.9825,-2.9968,-3.1375,-3.1787,-3.1455,0.0,-2.9368,-2.8852,0.0,-2.5815,0.0,0.0,0.0,0.0,0.0,0.0,0.0,0.0,-2.0208,0.0,0.0,0.0,0.0,0.0,0.0,-1.8694,-1.9552,0.0,0.0,0.0,0.0,0.0,0.0,0.0,0.0,0.0,0.0,0.0,0.0,0.0,0.0,-3.0069,-3.0951,-3.1858,-3.2742,-3.3784,-3.4737,-3.5531,-3.6385,-3.7212,-3.7997,-3.8029,-3.8381,-3.9087,-3.9101,-3.9101,-3.9101,-3.9288,-3.9429,-3.9586,-4.0414,-4.0973,-4.1398,-4.2882,-4.363,-4.391,-4.4671,-4.4957,-4.4969,-4.5121,-4.5213,-4.5297,-1.977,-1.9732,0.0,0.0,0.0,0.0,0.0,0.0,0.0,-2.4918,-2.5485,0.0,0.0,0.0,0.0,0.0,0.0,-2.5912,0.0,0.0,-2.1924,0.0,0.0,0.0,-1.7474,-1.6492,-1.5812,-1.5413,-1.4911,0.0,0.0,0.0,0.0,0.0,-1.5921,0.0,-1.7455,0.0,0.0,0.0,0.0,0.0,0.0,-2.8338,-2.9786,-3.0559,-3.1549,-3.1876,-3.1614,0.0,-2.9506,0.0,0.0,0.0,0.0,0.0,0.0,0.0,0.0,0.0,0.0,0.0,0.0,0.0,0.0,0.0,-1.9774,0.0,0.0,0.0,0.0,0.0,0.0,0.0,0.0,0.0,0.0,0.0,0.0,0.0,0.0,0.0,0.0,0.0,0.0,0.0,0.0,-3.0153,-3.1058,-3.2494,-3.3683,-3.4583,-3.5469,-3.6345,-3.7188,-3.7671,-3.8061,-3.8414,-3.8878,-3.9129,-3.917,-3.9333,-3.9418,-3.9488,-3.9915,-4.044,-4.1052,-4.175,-4.2389,-4.305,-4.3988,-4.4661,-4.5114,-4.517,-4.5235,-4.5307,-1.9801,0.0,0.0,0.0,0.0,0.0,0.0,0.0,0.0,0.0,0.0,0.0,-2.8635,-2.8988,0.0,0.0,0.0,-2.8247,0.0,0.0,-2.4679,0.0,0.0,0.0,0.0,0.0,-1.6915,-1.6685,-1.5591,0.0,0.0,0.0,0.0,0.0,0.0,-1.7257,-1.8063,0.0,0.0,-2.1419,-2.3978,-2.5526,-2.6526,-2.8493,-2.9955,-3.1046,-3.1724,-3.1966,-3.1722,-3.0093,-2.954,0.0,-2.7781,0.0,0.0,0.0,0.0,0.0,-2.421,0.0,0.0,0.0,0.0,0.0,0.0,0.0,0.0,0.0,0.0,0.0,0.0,0.0,-1.8758,0.0,0.0,0.0,0.0,0.0,0.0,0.0,0.0,0.0,0.0,0.0,0.0,0.0,-2.7241,0.0,-2.968,-3.0974,-3.2324,-3.3697,-3.437,-3.5249,-3.6365,-3.6959,-3.7336,-3.7578,-3.8395,-3.8808,-3.8894,-3.9234,-3.9444,-3.9495,-3.9571,-4.0001,-4.0663,-4.0901,-4.1425,-4.2178,-4.3156,-4.4048,-4.4809,-4.5115,-4.5265,-4.5307,-1.9801,-1.9801,0.0,0.0,0.0,0.0,0.0,0.0,0.0,0.0,0.0,0.0,0.0,0.0,0.0,0.0,0.0,-3.0242,-2.9328,0.0,-2.6648,0.0,0.0,-2.2973,0.0,0.0,-1.9208,-1.841,-1.6773,-1.5935,0.0,0.0,0.0,0.0,0.0,-1.7396,-1.8254,-2.0567,-2.1498,-2.1666,-2.4786,-2.6876,-2.8275,0.0,-3.0544,-3.12,-3.1934,0.0,0.0,-3.023,-2.9694,0.0,0.0,0.0,0.0,0.0,0.0,0.0,0.0,0.0,0.0,-2.377,0.0,0.0,0.0,0.0,-2.1442,0.0,0.0,0.0,0.0,-1.9661,-1.9408,-1.8635,0.0,0.0,0.0,0.0,0.0,0.0,0.0,0.0,0.0,0.0,0.0,-2.3754,-2.4697,-2.6288,-2.8712,-2.9025,-3.0274,-3.2761,-3.2933,-3.3802,-3.5529,-3.5566,-3.5974,-3.6742,-3.7541,-3.7971,-3.8074,-3.8973,-3.9444,-3.9495,-3.9571,-3.965,-3.9814,-4.0644,-4.1085,-4.1343,-4.2262,-4.3172,-4.4059,-4.4959,-4.5297,-4.5307,0.0,0.0,0.0,0.0,0.0,0.0,0.0,-2.458,0.0,0.0,0.0,0.0,0.0,0.0,-3.2735,0.0,0.0,-3.2014,-3.1242,-3.0149,0.0,0.0,0.0,-2.5289,0.0,0.0,0.0,-1.9363,-1.7721,-1.6612,0.0,0.0,0.0,0.0,0.0,-1.7837,0.0,0.0,0.0,0.0,0.0,-2.6943,-2.8293,0.0,0.0,-3.0595,-3.1234,-3.1777,0.0,-3.0298,-2.9777,-2.9483,-2.7938,-2.7436,-2.7384,-2.7107,-2.7037,0.0,0.0,0.0,-2.5161,-2.4188,0.0,0.0,0.0,0.0,0.0,0.0,0.0,0.0,0.0,0.0,-1.9608,-1.9338,-1.8165,0.0,0.0,0.0,0.0,0.0,0.0,0.0,0.0,0.0,0.0,-2.202,-2.3419,-2.4621,0.0,-2.77,-2.9592,-3.1029,-3.2213,-3.3389,-3.4562,-3.5188,-3.564,-3.5919,-3.7314,-3.8,-3.8096,-3.9038,-3.9508,-3.9571,-3.9645,-3.9686,-3.9738,-4.0068,-4.0272,-4.0507,-4.1447,-4.1994,-4.2425,-4.389,-4.48,-4.5307,-2.0896,0.0,0.0,0.0,0.0,0.0,0.0,0.0,0.0,0.0,-2.9717,0.0,-3.2996,0.0,-3.4098,0.0,-3.4121,-3.3788,-3.2997,-3.2175,0.0,-3.0584,-2.8969,0.0,0.0,0.0,0.0,-2.1155,-1.9224,-1.7706,0.0,0.0,0.0,0.0,0.0,0.0,0.0,0.0,-2.179,0.0,0.0,-2.7018,0.0,0.0,-2.9571,-3.0288,0.0,-3.1653,-3.2004,-3.0382,-2.9842,-2.9547,-2.7999,-2.7496,-2.7496,-2.7496,-2.7496,-2.7407,-2.6919,-2.6541,0.0,-2.5087,-2.4563,0.0,-2.3414,0.0,0.0,0.0,0.0,0.0,0.0,0.0,0.0,-1.9731,-1.833,-1.6875,0.0,-1.4916,0.0,0.0,0.0,0.0,0.0,0.0,-2.0085,-2.0735,-2.1844,-2.2893,0.0,0.0,-2.8251,-2.9738,-3.1457,-3.2797,-3.3654,-3.4581,-3.5058,-3.5089,-3.6763,-3.7622,-3.7742,-3.8958,-3.9546,-3.9645,-3.9681,-3.9703,-3.9735,-3.9804,-3.9911,-4.0064,-4.0717,-4.1138,-4.1607,-4.3356,-4.4562,-4.5348,0.0,0.0,0.0,0.0,-2.3328,0.0,0.0,0.0,-2.8746,0.0,-3.1073,-3.2379,-3.3175,-3.4734,-3.5686,-3.5649,-3.5745,0.0,-3.4562,-3.3856,0.0,0.0,-3.0706,-2.9823,-2.9708,0.0,0.0,0.0,0.0,0.0,-1.7387,0.0,0.0,0.0,-1.7012,0.0,-1.8572,-2.1,-2.202,-2.2289,-2.5099,-2.7182,-2.8652,-2.9213,0.0,-3.0319,-3.1062,-3.1788,-3.216,-3.0481,-2.9906,-2.9627,-2.803,-2.7511,-2.7511,-2.7511,-2.7511,-2.7511,-2.7511,-2.7004,-2.6464,-2.6411,0.0,0.0,0.0,0.0,-2.4029,0.0,0.0,0.0,0.0,0.0,0.0,-1.9882,-1.8311,-1.6654,-1.5081,0.0,0.0,0.0,0.0,0.0,0.0,-1.7435,-1.8172,-1.9807,-2.0017,0.0,0.0,0.0,-2.6315,-2.8863,-3.0628,-3.1977,-3.2895,-3.3764,-3.4252,-3.4386,-3.6006,-3.6895,-3.7122,-3.8758,-3.9571,-3.9705,-3.9705,-3.9757,-3.9815,-3.9889,-3.9943,-4.0017,-4.0138,-4.0721,-4.1674,-4.3385,-4.4611,-4.5409,-2.348,-2.4377,-2.5329,0.0,-2.5718,-2.5898,0.0,0.0,0.0,0.0,-3.2008,-3.3358,-3.4156,-3.5195,-3.5589,-3.4933,-3.5488,0.0,0.0,0.0,0.0,-3.31,-3.2727,-3.1647,-2.9746,-2.8336,0.0,-2.3669,0.0,0.0,-1.7527,0.0,0.0,0.0,0.0,0.0,-1.8714,-2.1119,-2.3395,-2.5433,-2.6193,-2.7335,0.0,0.0,-2.9951,-3.0498,-3.119,-3.1888,-3.2227,-3.0645,-3.0087,-2.9776,-2.815,-2.7642,-2.7642,-2.7642,-2.7642,-2.7642,-2.7642,-2.7475,-2.7168,-2.6609,-2.6284,-2.5889,0.0,0.0,0.0,0.0,0.0,0.0,0.0,0.0,0.0,0.0,-1.8683,0.0,0.0,0.0,0.0,0.0,0.0,0.0,0.0,-1.7038,-1.786,-1.8872,-1.9609,0.0,0.0,0.0,0.0,-2.7876,-2.9745,-3.1381,-3.2804,-3.374,-3.4549,-3.5292,-3.6366,-3.7249,-3.8,-3.9125,-3.9662,-3.9696,-3.9819,-3.9856,-3.9889,-4.0005,-4.0087,-4.0147,-4.0187,-4.116,-4.2642,-4.3685,-4.4672,-4.5486,-2.5458,0.0,0.0,-2.8925,0.0,0.0,-2.8433,0.0,0.0,-3.1928,-3.2867,0.0,-3.4518,-3.5375,-3.5705,-3.5198,-3.5633,0.0,0.0,0.0,0.0,-3.4037,-3.3691,-3.2675,-3.0921,-2.9414,0.0,-2.4839,0.0,0.0,-1.8143,0.0,0.0,0.0,0.0,-1.7766,0.0,-2.1034,-2.3946,-2.6712,-2.6638,0.0,0.0,-2.9998,-3.0646,-3.1228,-3.1927,-3.2317,-3.2293,-3.0725,-3.0166,-2.9855,-2.8225,-2.7701,-2.7701,-2.7701,-2.7701,-2.7701,-2.7701,-2.7672,-2.7539,-2.7134,-2.7,-2.6793,-2.6034,-2.5873,-2.5813,0.0,0.0,0.0,0.0,0.0,0.0,0.0,0.0,0.0,0.0,0.0,0.0,0.0,0.0,0.0,0.0,0.0,0.0,0.0,0.0,0.0,0.0,0.0,0.0,-2.7009,-2.9237,-3.0999,-3.2256,-3.3579,-3.4709,-3.5645,-3.6557,-3.7457,-3.836,-3.9291,-3.9738,-3.9781,-3.9867,-3.9943,-4.0046,-4.0109,-4.0177,-4.0291,-4.0701,-4.1932,-4.3577,-4.4028,-4.4737,-4.5504,0.0,0.0,0.0,0.0,0.0,0.0,0.0,-3.1665,0.0,-3.3398,0.0,-3.3905,-3.4559,-3.5399,-3.5873,-3.576,0.0,-3.5966,-3.5853,-3.5185,-3.4798,-3.4798,-3.4081,-3.3289,-3.242,-3.0183,0.0,0.0,0.0,0.0,0.0,0.0,0.0,0.0,0.0,0.0,0.0,-2.1054,-2.4022,0.0,-2.6702,-2.8037,-3.0179,-3.078,-3.143,-3.2107,-3.2757,-3.2836,-3.2392,-3.0773,-3.0213,-2.99,-2.8255,-2.7716,-2.7701,-2.7701,-2.7701,-2.7701,-2.7701,-2.7701,-2.7701,-2.7701,-2.7701,-2.7526,-2.6894,-2.6739,-2.6574,-2.5953,-2.5839,-2.5831,0.0,0.0,0.0,0.0,0.0,0.0,0.0,0.0,0.0,0.0,0.0,0.0,0.0,0.0,0.0,0.0,0.0,0.0,0.0,0.0,0.0,-2.6177,-2.8728,0.0,-3.1584,0.0,-3.4731,-3.5885,-3.6714,-3.7626,-3.861,-3.938,-3.9811,-3.9922,-3.9933,-4.0027,-4.0196,-4.0225,-4.0337,-4.0583,-4.1623,-4.2981,-4.4331,-4.4432,-4.4932,-4.554,0.0,0.0,0.0,0.0,0.0,-3.4595,-3.5031,-3.4055,-3.3345,-3.3486,-3.4137,0.0,-3.4749,-3.5503,-3.573,-3.5061,-3.5608,0.0,0.0,0.0,0.0,-3.4798,-3.4706,-3.3951,-3.242,-3.1372,-2.9338,0.0,0.0,0.0,0.0,0.0,0.0,0.0,0.0,0.0,-2.166,-2.2111,0.0,-2.6972,-2.6821,-2.8146,-3.0253,-3.0841,-3.1537,-3.2235,-3.2804,-3.2902,-3.2508,-3.0909,-3.0287,-2.9933,-2.835,-2.7795,-2.7701,-2.7701,-2.7701,-2.7701,-2.7701,-2.7701,-2.7701,-2.7701,-2.7701,-2.7666,-2.7543,-2.7508,-2.7517,-2.7536,-2.7561,-2.7408,-2.6872,0.0,0.0,0.0,0.0,0.0,0.0,0.0,0.0,0.0,0.0,0.0,0.0,0.0,0.0,0.0,0.0,0.0,0.0,0.0,0.0,0.0,0.0,0.0,0.0,0.0,-3.4475,-3.678,-3.7,-3.7985,-3.9648,-3.981,-3.9933,-4.0067,-4.0109,-4.0168,-4.0215,-4.0326,-4.0799,-4.1598,-4.3225,-4.4055,-4.4463,-4.5186,-4.5541,-4.5676,0.0,0.0,0.0,0.0,0.0,0.0,0.0,-3.6121,0.0,-3.4914,-3.5217,-3.5301,-3.4855,-3.5177,-3.5263,-3.4895,-3.5218,-3.5265,-3.4878,-3.4859,-3.4859,-3.4859,-3.4879,0.0,-3.2482,-3.1689,-2.9897,-2.7039,0.0,0.0,-2.026,0.0,0.0,0.0,0.0,-2.026,0.0,0.0,0.0,-2.7083,-2.74,-2.887,-3.0895,-3.1161,-3.1915,-3.2853,-3.3115,-3.2804,-3.2081,-3.0828,-3.0112,-2.9526,-2.8288,-2.7874,-2.7795,-2.7716,-2.7701,-2.7701,-2.7701,-2.7701,-2.7701,-2.7701,-2.7701,-2.7701,-2.7701,-2.8017,-2.8361,-2.8541,-2.857,-2.8255,-2.7184,-2.6012,0.0,0.0,0.0,0.0,0.0,0.0,0.0,0.0,0.0,0.0,0.0,0.0,0.0,0.0,0.0,0.0,0.0,0.0,0.0,0.0,0.0,0.0,0.0,0.0,0.0,-3.7045,-3.7167,-3.815,-3.99,-3.9965,-4.0067,-4.0158,-4.0215,-4.0288,-4.0405,-4.0957,-4.1955,-4.325,-4.4075,-4.4677,-4.5125,-4.5588,-4.5758,-4.5758,0.0,-3.6027,0.0,0.0,-3.7696,0.0,0.0,-3.806,-3.7669,-3.6566,-3.6252,-3.5873,-3.519,-3.5011,-3.4946,-3.4946,-3.4936,-3.4936,-3.4936,-3.4927,-3.4927,-3.4927,-3.4917,-3.4225,-3.2817,-3.1996,-3.0384,0.0,0.0,0.0,0.0,0.0,0.0,0.0,0.0,0.0,0.0,0.0,-2.5762,-2.7173,-2.7904,-2.9455,-3.1316,-3.1391,-3.2163,-3.3226,-3.3172,-3.248,-3.1494,-3.0558,-2.9828,-2.9147,-2.8237,-2.7932,-2.7903,-2.7777,-2.7748,-2.7748,-2.7716,-2.7701,-2.7701,-2.7701,-2.7701,-2.7736,-2.7912,-2.8456,-2.8993,-2.9286,-2.9381,-2.8997,-2.775,-2.7331,0.0,0.0,0.0,0.0,0.0,0.0,0.0,0.0,0.0,0.0,0.0,0.0,0.0,0.0,0.0,0.0,0.0,0.0,0.0,0.0,0.0,-2.905,-3.1775,0.0,-3.4356,0.0,-3.7249,-3.8237,-3.9962,-4.0077,-4.0158,-4.0224,-4.0306,-4.0523,-4.0873,-4.18,-4.3084,-4.4511,-4.4693,-4.5163,-4.5723,-4.5788,-4.5803,-4.581,0.0,0.0,0.0,0.0,0.0,0.0,0.0,-3.9849,-3.9288,-3.7671,-3.6768,-3.6245,-3.6169,-3.5503,-3.5075,-3.5075,-3.5075,-3.5084,-3.5084,-3.502,-3.4992,-3.4992,-3.4936,-3.4519,-3.3691,-3.2889,-3.1306,0.0,0.0,0.0,0.0,0.0,0.0,0.0,0.0,0.0,0.0,-2.4559,-2.5782,-2.7249,-2.7933,-2.9194,-3.0732,-3.1219,-3.1933,-3.2645,-3.2405,-3.1781,-3.0943,-2.9984,-2.9497,-2.9162,-2.8333,-2.8042,-2.7971,-2.7903,-2.7874,-2.7842,-2.7716,-2.7701,-2.7701,-2.7701,-2.7701,-2.7894,-2.8614,-2.8842,-2.9134,-3.0008,-3.0285,-3.0125,-2.9333,-2.857,-2.7785,0.0,0.0,0.0,0.0,0.0,0.0,0.0,0.0,0.0,0.0,0.0,0.0,0.0,0.0,0.0,0.0,0.0,0.0,-2.416,0.0,-2.8495,-3.1775,-3.2072,0.0,-3.7194,-3.7327,-3.8352,-4.0077,-4.0167,-4.0224,-4.0307,-4.0425,-4.097,-4.1834,-4.271,-4.3643,-4.4569,-4.536,-4.5723,-4.5788,-4.5805,-4.584,-4.5886,0.0,0.0,0.0,0.0,0.0,0.0,0.0,-4.0166,-3.9929,-3.9299,-3.7966,-3.6881,-3.6368,-3.5587,-3.5092,-3.5092,-3.5092,-3.5092,-3.5092,-3.5075,-3.5066,-3.5066,-3.5029,-3.4658,-3.3872,-3.3043,-3.1661,0.0,0.0,0.0,0.0,0.0,0.0,0.0,0.0,-2.3179,-2.4594,-2.5868,-2.7001,-2.8045,-2.8792,-2.9705,-3.0627,-3.0842,-3.1335,-3.1923,-3.177,-3.1149,-3.0329,-2.9872,-2.9269,-2.8633,-2.8257,-2.8112,-2.8056,-2.7971,-2.7957,-2.7943,-2.7896,-2.7853,-2.7827,-2.7827,-2.7763,-2.7912,-2.8719,-2.9281,-2.989,-3.0822,-3.1135,-3.0975,-3.0208,-2.9801,-2.9319,0.0,0.0,0.0,0.0,0.0,0.0,0.0,0.0,0.0,0.0,0.0,0.0,0.0,0.0,0.0,0.0,0.0,0.0,-2.4805,0.0,-2.8456,-3.1885,-3.2042,-3.3836,-3.7249,-3.7358,-3.8363,-4.0166,-4.0234,-4.0351,-4.0495,-4.0576,-4.1405,-4.2714,-4.3102,-4.4056,-4.532,-4.5662,-4.5819,-4.5859,-4.5854,-4.588,-4.5912,-3.9242,0.0,-4.0157,0.0,-4.0157,-4.0176,-4.0215,-4.0225,-4.0263,-4.0319,-3.8993,-3.7698,-3.6813,-3.5994,-3.5422,-3.5155,-3.5136,-3.5136,-3.5136,-3.5119,-3.5129,-3.5129,-3.5101,0.0,-3.4285,-3.319,-3.1943,-3.0571,-2.8325,0.0,0.0,0.0,0.0,0.0,-2.4364,-2.5031,-2.585,-2.7183,-2.8045,-2.8604,-2.938,-2.9963,-3.0362,-3.0544,-3.088,-3.1229,-3.1146,-3.065,-3.0008,-2.9659,-2.9026,-2.8367,-2.8246,-2.8196,-2.8136,-2.8039,-2.8042,-2.8028,-2.8014,-2.7957,-2.7932,-2.7932,-2.8,-2.8293,-2.9101,-2.9876,-3.0699,-3.1635,-3.1937,-3.178,-3.1011,-3.085,-3.06,-2.9851,0.0,0.0,0.0,0.0,0.0,0.0,0.0,-2.2262,-2.1455,0.0,0.0,0.0,0.0,0.0,0.0,0.0,0.0,0.0,0.0,0.0,0.0,-3.2347,-3.4133,-3.7333,-3.7409,-3.8413,-4.0206,-4.0316,-4.0452,-4.0591,-4.0668,-4.1674,-4.3253,-4.3305,-4.4324,-4.5834,-4.5834,-4.5854,-4.5893,-4.5893,-4.5899,-4.5941,-4.0282,-4.0282,-4.0301,-4.0301,-4.0301,-4.0301,-4.0298,-4.0307,-4.0316,-4.0379,-3.9621,-3.8714,-3.7778,-3.6958,-3.6137,-3.5259,-3.5201,-3.5201,-3.5201,-3.5206,-3.52,0.0,0.0,-3.5138,-3.5181,-3.3495,-3.2229,-3.1482,0.0,0.0,-2.6466,0.0,-2.5625,-2.6444,-2.6333,-2.6739,-2.7618,-2.8297,-2.8591,-2.8658,-2.9405,-2.9691,-2.9786,-3.0446,-3.0668,-3.0598,-3.0468,-3.0323,-3.0069,-2.9203,-2.8761,-2.8562,-2.8367,-2.83,-2.8273,-2.814,-2.8099,-2.8085,-2.8028,-2.8014,-2.8014,-2.8014,-2.8511,-2.9195,-3.0004,-3.0698,-3.1454,-3.2396,-3.2688,-3.2572,-3.1816,-3.1689,-3.1421,-3.0618,0.0,0.0,0.0,0.0,0.0,0.0,-2.4415,-2.3166,-2.2368,0.0,0.0,0.0,0.0,0.0,0.0,0.0,0.0,-2.5446,-2.717,0.0,-3.1979,-3.2989,-3.4807,-3.7404,-3.7528,-3.8499,-4.0205,-4.0408,-4.0534,-4.0595,-4.0668,-4.1718,-4.3401,-4.3393,-4.4393,-4.5911,-4.5911,-4.5911,-4.5911,-4.5911,-4.5947,-4.6002,-4.0363,-4.0363,-4.0363,-4.0363,-4.0363,-4.0372,-4.0362,-4.037,-4.037,-4.0407,-4.0158,-3.9651,-3.8744,-3.7403,-3.6465,0.0,-3.561,-3.5269,0.0,-3.5229,-3.5204,-3.5204,-3.5176,-3.5168,-3.5204,-3.3535,-3.255,-3.2313,0.0,0.0,0.0,-2.7067,-2.7057,-2.7318,-2.7236,-2.768,-2.8505,-2.8676,-2.9049,-2.9569,-2.9802,-2.9841,-2.9793,-3.002,-3.0011,-2.9902,-2.9822,-2.971,-2.9536,-2.9152,-2.933,-2.9655,-2.9396,-2.8878,-2.8448,-2.8921,-2.8661,-2.8219,-2.8154,-2.8099,-2.8071,-2.8071,-2.8567,-2.9286,-3.0079,-3.125,-3.2239,-3.2536,-3.2706,-3.275,-3.2545,-3.2525,-3.2257,-3.1457,-3.0672,0.0,0.0,0.0,0.0,0.0,0.0,-2.3796,0.0,-2.2156,0.0,0.0,0.0,0.0,0.0,0.0,0.0,0.0,-2.8044,0.0,-3.1979,-3.3,-3.4809,-3.7404,-3.7547,-3.8564,-4.0339,-4.0492,-4.06,-4.0668,-4.0739,-4.1776,-4.3401,-4.3393,-4.4399,-4.5911,-4.5911,-4.5935,-4.5975,-4.5975,-4.6007,-4.6075,-4.0407,-4.0407,-4.0407,-4.0407,-4.0407,-4.0415,-4.0432,-4.0432,-4.0441,-4.0438,-4.0447,-4.0236,-3.9679,-3.842,0.0,-3.6665,-3.6101,-3.5656,-3.5331,-3.5253,-3.5209,-3.5209,-3.5209,-3.5209,-3.5209,0.0,0.0,-3.2741,-3.056,-2.9219,-2.8744,-2.8664,-2.8632,-2.8638,-2.8572,-2.8831,-2.9346,-2.9306,-2.9581,-3.0015,-2.9707,-2.9532,-2.9428,-2.9428,-2.9336,-2.9223,-2.9505,-2.9503,-2.9363,-2.9246,-2.9669,-3.0265,-3.0372,-2.995,-2.9503,-2.9884,-2.9402,-2.8734,-2.8711,-2.8427,-2.8211,-2.8514,-2.9083,-2.9857,-3.0922,-3.1898,-3.2622,-3.2655,-3.274,-3.2821,-3.2884,-3.29,-3.2739,-3.2239,-3.1225,-3.0336,-2.9886,0.0,0.0,0.0,0.0,0.0,0.0,-2.3793,0.0,0.0,0.0,0.0,0.0,0.0,0.0,-2.7142,-2.8949,0.0,-3.201,-3.3322,-3.5151,-3.7447,-3.8252,-3.9273,-4.0438,-4.0545,-4.0635,-4.0701,-4.0769,-4.1792,-4.3399,-4.3427,-4.4439,-4.5983,-4.5983,-4.5991,-4.6032,-4.6042,-4.6069,-4.6142,-4.0415,-4.0415,0.0,0.0,-4.0415,0.0,-4.0482,-4.051,-4.0507,-4.0508,-4.0496,-4.0496,-4.0496,-3.9823,-3.8677,-3.6942,0.0,0.0,0.0,-3.5234,-3.5209,-3.5218,-3.5209,-3.5209,-3.5218,-3.3624,-3.2747,-3.2632,-3.1058,-3.0292,-3.0292,-3.0227,-3.0194,-3.0211,-3.013,-3.0109,-3.0109,-3.0116,-3.0078,-2.9963,-2.9216,-2.8819,-2.8717,-2.8717,-2.8639,-2.8619,-2.9439,-2.9644,-2.9512,-2.9443,-2.9853,-3.053,-3.1207,-3.1367,-3.1238,-3.0982,-3.0244,-2.951,-2.9514,-2.8921,-2.8477,-2.9208,-2.9953,-3.0858,-3.2302,-3.2622,-3.2639,-3.2773,-3.2807,-3.2821,-3.2884,-3.29,-3.29,-3.29,-3.1546,-3.0496,-3.0511,0.0,0.0,0.0,0.0,0.0,0.0,-2.6117,-2.6146,0.0,0.0,0.0,0.0,0.0,-2.723,-2.8062,-2.9837,-3.1221,-3.2166,-3.3917,-3.5702,-3.7547,-3.9487,-4.0438,-4.0504,-4.0579,-4.0636,-4.07,-4.0765,-4.1798,-4.3402,-4.3461,-4.454,-4.61,-4.6105,-4.6099,-4.6102,-4.6107,-4.6146,-4.6206,0.0,0.0,-4.0484,-4.0484,-4.0484,-4.0484,-4.05,-4.05,-4.05,-4.0496,-4.0496,-4.0496,-4.0496,-4.0323,-3.9796,-3.8754,-3.7448,-3.6305,-3.5434,-3.5316,-3.5285,-3.5278,-3.5273,-3.5285,-3.5278,-3.3645,-3.2171,-3.0893,-3.0491,-3.0305,-3.0292,-3.0221,-3.0207,-3.02,-3.0168,-3.0187,-3.0187,-3.024,-2.9864,-2.9251,-2.9047,-2.8562,-2.795,-2.795,-2.8277,-2.8757,-2.8889,-2.9284,-2.97,-2.9589,-3.0402,-3.147,-3.1542,-3.2298,-3.299,-3.2113,-3.0816,-2.9647,-2.9588,-2.9422,-2.9304,-2.9446,-3.0433,-3.1624,-3.2542,-3.2756,-3.2756,-3.2789,-3.2807,-3.2821,-3.2884,-3.29,-3.29,-3.29,-3.1546,-3.0544,-3.0638,-2.9289,0.0,0.0,-2.7184,-2.6927,-2.6248,-2.6169,-2.6227,0.0,0.0,0.0,0.0,-2.882,-2.9377,-2.893,-3.0671,-3.2059,-3.3018,-3.4189,-3.576,-3.7661,-3.9513,-4.0455,-4.0573,-4.0586,-4.0662,-4.0788,-4.079,-4.1828,-4.3471,-4.3491,-4.4525,-4.6108,-4.6106,-4.6127,-4.6185,-4.6187,-4.6192,-4.6194,-4.0549,-4.0549,-4.0542,-4.0546,-4.0558,-4.0531,-4.0496,-4.0496,-4.0496,-4.0496,-4.0496,-4.0496,-4.0496,-4.0496,-4.0189,-3.9381,-3.8035,-3.6891,-3.6046,-3.5565,-3.5304,-3.5308,-3.5304,-3.5304,-3.5308,-3.37,-3.2019,-3.0342,-3.0343,-3.0336,-3.0304,-3.0267,-3.0254,-3.026,-3.026,-3.026,-3.0241,-3.028,-3.0036,-2.9562,-2.8806,-2.8211,-2.7758,-2.7357,-2.7662,-2.8343,-2.8663,-2.9277,-2.9885,-2.9764,-3.0461,-3.1382,-3.163,-3.2447,-3.329,-3.3063,-3.1992,-3.079,-3.036,-3.0211,-3.026,-3.0567,-3.147,-3.2396,-3.2795,-3.287,-3.2854,-3.2854,-3.2854,-3.287,-3.29,-3.29,-3.2916,-3.2932,-3.1609,-3.0638,-3.0729,-2.939,0.0,-2.7846,-2.7855,-2.7737,-2.7381,-2.7707,-2.7978,-2.8125,0.0,0.0,-2.9524,-3.0528,-3.0706,-2.9868,-3.1581,-3.2786,-3.3392,-3.517,-3.6635,-3.7759,-3.9546,-4.0476,-4.0598,-4.0635,-4.0707,-4.0823,-4.1255,-4.2213,-4.3535,-4.3927,-4.4911,-4.6146,-4.6158,-4.6164,-4.6195,-4.6228,-4.6247,-4.6241,-4.0595,-4.0595,-4.06,-4.0603,-4.0595,-4.0588,-4.0519,-4.0512,-4.0512,-4.0512,-4.0512,-4.0512,-4.0512,-4.0512,-4.0185,-3.9395,-3.8473,-3.7586,-3.6745,-3.5825,-3.5323,-3.5323,-3.5323,-3.5265,-3.5139,-3.355,-3.1968,-3.0421,-3.0396,-3.0359,-3.0303,-3.0291,-3.0292,-3.0299,-3.0299,-3.0299,-3.0299,-3.0317,-3.0271,-3.0083,-2.8667,-2.8014,-2.7831,-2.7089,-2.7248,-2.7998,-2.8696,-2.9403,-3.0022,-2.9934,-3.0413,-3.1115,-3.1664,-3.2402,-3.3155,-3.3788,-3.3225,-3.2192,-3.1284,-3.0985,-3.1119,-3.1985,-3.2619,-3.3011,-3.3011,-3.2963,-3.2916,-3.2916,-3.29,-3.29,-3.2916,-3.2916,-3.2932,-3.2995,-3.1721,-3.0729,-3.0815,0.0,-2.8505,-2.8518,-2.8741,-2.8888,-2.8913,-2.9703,-3.0265,-3.0387,-3.1054,-3.1495,0.0,-3.186,-3.1704,-3.103,-3.2451,-3.3395,-3.3712,-3.6302,-3.7687,-3.7816,-3.9575,-4.0485,-4.0621,-4.0668,-4.0736,-4.0862,-4.1806,-4.2699,-4.3586,-4.4463,-4.5356,-4.619,-4.6213,-4.622,-4.6212,-4.6284,-4.6291,-4.6299,-4.0595,-4.0595,-4.0588,-4.06,-4.06,-4.06,-4.0593,-4.0574,-4.0574,-4.0574,-4.0574,-4.0574,-4.0574,-4.0574,-4.0265,-3.9448,-3.8572,-3.7678,-3.6769,-3.5861,-3.5412,-3.546,-3.5412,-3.5081,-3.4385,-3.2742,-3.1441,-3.0488,-3.0422,-3.0386,-3.0381,-3.0334,-3.0304,-3.0298,-3.0298,-3.0298,-3.0298,-3.0367,-2.9992,-2.9366,-2.9102,-2.8564,-2.7894,-2.775,-2.8196,-2.8893,-2.9025,-2.9545,-3.0142,-3.003,-3.0913,-3.2062,-3.2057,-3.3018,-3.4167,-3.422,-3.3561,-3.2576,-3.1547,-3.1124,-3.1355,-3.2821,-3.3121,-3.307,-3.307,-3.3042,-3.2979,-3.2979,-3.2932,-3.2916,-3.2963,-3.2979,-3.3011,-3.307,-3.1793,-3.0815,-3.0882,0.0,-2.8543,-2.8657,-2.9299,-2.9762,-2.9868,-3.0662,-3.1213,-3.1286,-3.1523,-3.1691,-3.176,-3.2489,-3.2907,-3.2956,-3.3239,-3.3794,-3.4671,-3.6682,-3.7714,-3.7816,-3.9626,-4.0549,-4.0674,-4.0694,-4.0779,-4.0937,-4.182,-4.273,-4.3653,-4.4533,-4.54,-4.6219,-4.6269,-4.628,-4.6291,-4.6302,-4.6307,-4.6308,-4.0707,-4.0707,-4.07,-4.0661,-4.0654,-4.0635,-4.0614,-4.0595,-4.0595,-4.0595,-4.0595,-4.0595,-4.0595,-4.0595,-4.0279,-3.9462,-3.8607,-3.7726,-3.6812,-3.5931,-3.5463,-3.5495,-3.5502,-3.4899,-3.3581,-3.2334,-3.1303,-3.0504,-3.0469,-3.0433,-3.0398,-3.0369,-3.0346,-3.0348,-3.0348,-3.0348,-3.0367,-3.0398,-3.019,-2.982,-2.9373,-2.8975,-2.8589,-2.8126,-2.8454,-2.9145,-2.9102,-2.9576,-3.018,-3.0135,-3.0812,-3.1757,-3.2091,-3.299,-3.3985,-3.4308,-3.3352,-3.2175,-3.2077,-3.1618,-3.1546,-3.3162,-3.3404,-3.3256,-3.3256,-3.315,-3.3057,-3.3057,-3.3042,-3.3026,-3.3057,-3.3057,-3.3088,-3.3198,-3.2259,0.0,0.0,-3.0622,-2.9919,-2.9984,-3.0376,-3.0684,-3.0784,-3.1593,-3.2145,-3.2256,-3.2747,-3.3071,-3.3141,-3.3639,-3.3944,-3.4049,-3.4144,-3.4472,-3.5011,-3.6812,-3.7774,-3.7932,-3.9703,-4.0607,-4.0694,-4.0779,-4.0844,-4.099,-4.2365,-4.3206,-4.3708,-4.5058,-4.5865,-4.6255,-4.629,-4.63,-4.6306,-4.6308,-4.6308,-4.6306,-4.0797,-4.0797,-4.0784,-4.0739,-4.0713,-4.0707,-4.0641,-4.0654,-4.0654,-4.0654,-4.0654,-4.0654,-4.0654,-4.0654,-4.0229,-3.9219,-3.8498,-3.7668,-3.6601,-3.5888,-3.5528,-3.5522,-3.5206,-3.4388,-3.3056,-3.1995,-3.1132,-3.0519,-3.0514,-3.0479,-3.0414,-3.0428,-3.0411,-3.0396,-3.0396,-3.039,-3.0404,-3.0404,-3.0402,-3.034,-2.9736,-2.953,-2.9511,-2.8844,-2.8985,-2.9496,-2.9434,-2.9766,-3.0259,-3.0442,-3.0963,-3.1655,-3.2381,-3.3185,-3.3908,-3.4425,-3.3366,-3.2133,-3.2631,-3.2231,-3.1988,-3.3378,-3.3605,-3.3466,-3.3422,-3.3286,-3.3219,-3.3384,-3.3404,-3.3458,-3.3653,-3.3546,-3.3468,-3.3593,0.0,0.0,0.0,-3.1601,-3.1128,-3.1167,-3.1441,-3.1622,-3.1728,-3.2508,-3.3062,-3.3185,-3.3832,-3.4269,-3.4351,-3.4517,-3.4615,-3.4668,-3.4831,-3.5068,-3.5413,-3.6978,-3.7926,-3.8315,-3.9879,-4.0655,-4.0724,-4.0844,-4.0921,-4.1021,-4.2828,-4.3601,-4.3749,-4.5501,-4.6243,-4.6294,-4.6302,-4.6307,-4.6308,-4.6305,-4.6301,-4.6297,-4.0797,-4.0797,-4.0797,-4.079,-4.079,-4.079,-4.079,-4.079,-4.079,-4.079,-4.079,-4.079,-4.079,-4.079,-4.0107,-3.8438,-3.8221,-3.7474,-3.5794,-3.5639,-3.5583,-3.5598,-3.411,-3.3214,-3.3098,-3.1506,-3.0651,-3.0593,-3.0525,-3.0491,-3.0491,-3.049,-3.0463,-3.0392,-3.0392,-3.0394,-3.0404,-3.0404,-3.0402,-3.0398,-3.0392,-3.0418,-3.0399,-3.0409,-3.0409,-3.0407,-3.0402,-3.0344,-3.0414,-3.1146,-3.1897,-3.2635,-3.3371,-3.4159,-3.4794,-3.479,-3.4055,-3.3224,-3.3029,-3.2846,-3.2877,-3.3613,-3.3739,-3.3661,-3.352,-3.3437,-3.3566,-3.4248,-3.4297,-3.4481,-3.5349,-3.4898,-3.4442,-3.4591,0.0,0.0,-3.2388,-3.1704,-3.1245,-3.1359,-3.2045,-3.2549,-3.2681,-3.3494,-3.4019,-3.4092,-3.422,-3.4393,-3.458,-3.4583,-3.4689,-3.486,-3.4879,-3.539,-3.6394,-3.7384,-3.8335,-3.9227,-4.0223,-4.0724,-4.0801,-4.0864,-4.0937,-4.1081,-4.2841,-4.3634,-4.3839,-4.5566,-4.6301,-4.6308,-4.6308,-4.6308,-4.6301,-4.6309,-4.6303,-4.628,-4.0802,-4.0809,-4.0797,-4.0797,-4.0797,-4.0797,-4.0797,-4.0797,-4.0797,-4.0797,-4.0797,-4.0797,-4.0797,-4.0797,-4.0094,-3.8348,-3.8206,-3.7472,-3.5773,-3.5657,-3.5651,-3.566,-3.4056,-3.3161,-3.3161,-3.1486,-3.06,-3.06,-3.0572,-3.0558,-3.0568,-3.0564,-3.0535,-3.0465,-3.0449,-3.0458,-3.0466,-3.0466,-3.0453,-3.0469,-3.0495,-3.0505,-3.0515,-3.0569,-3.0569,-3.0504,-3.0504,-3.0766,-3.1156,-3.1469,-3.241,-3.3516,-3.3792,-3.4399,-3.5001,-3.4879,-3.4574,-3.4239,-3.4049,-3.3473,-3.308,-3.3807,-3.3868,-3.3739,-3.3661,-3.396,-3.4338,-3.4636,-3.5042,-3.5462,-3.582,-3.5654,-3.5287,-3.4838,0.0,-3.37,-3.3204,-3.2939,-3.2818,-3.2889,-3.3224,-3.3524,-3.3648,-3.3963,-3.4209,-3.4316,-3.4409,-3.4517,-3.4602,-3.472,-3.5087,-3.5751,-3.5844,-3.6094,-3.6501,-3.8012,-3.8965,-3.9366,-4.0319,-4.0807,-4.0864,-4.0941,-4.0974,-4.1109,-4.2895,-4.3679,-4.3831,-4.5581,-4.6308,-4.6308,-4.6305,-4.6299,-4.6308,-4.6296,-4.6267,-4.6221,-4.0792,-4.0808,-4.0809,-4.0809,-4.0803,-4.0797,-4.0797,-4.0797,-4.0797,-4.0797,-4.0797,-4.0797,-4.0797,-4.0797,-4.01,-3.834,-3.8205,-3.7486,-3.5814,-3.5728,-3.5728,-3.5698,-3.4085,-3.3203,-3.3203,-3.1497,-3.061,-3.0637,-3.0637,-3.0629,-3.0636,-3.0619,-3.0597,-3.0521,-3.053,-3.051,-3.0495,-3.0495,-3.0509,-3.0504,-3.0505,-3.0496,-3.0515,-3.0569,-3.0554,-3.0495,-3.0495,-3.0987,-3.1667,-3.1924,-3.2921,-3.4087,-3.4324,-3.4729,-3.5073,-3.4964,-3.4879,-3.4802,-3.4678,-3.4094,-3.3604,-3.4031,-3.3998,-3.3902,-3.4064,-3.4489,-3.4962,-3.5443,-3.5994,-3.645,-3.6705,-3.6541,-3.621,-3.5674,-3.5411,-3.5092,-3.4558,-3.4357,-3.4273,-3.43,-3.4164,-3.4111,-3.4221,-3.4245,-3.4316,-3.4461,-3.4539,-3.4757,-3.5084,-3.5277,-3.5798,-3.6718,-3.7101,-3.7338,-3.7367,-3.8673,-3.9487,-3.9831,-4.0499,-4.0864,-4.0935,-4.0983,-4.1009,-4.1137,-4.292,-4.3696,-4.3842,-4.5586,-4.6308,-4.6306,-4.6296,-4.6305,-4.6294,-4.6279,-4.6248,-4.6201,-4.0826,-4.0823,-4.0814,-4.0814,-4.0815,-4.0816,-4.0816,-4.0816,-4.0816,-4.0797,-4.0797,-4.0797,-4.0797,-4.0797,-4.0106,-3.8349,-3.8194,-3.7494,-3.58,-3.577,-3.577,-3.5708,-3.4099,-3.3208,-3.3208,-3.1497,-3.0637,-3.07,-3.07,-3.07,-3.07,-3.07,-3.0661,-3.06,-3.06,-3.0549,-3.0496,-3.0496,-3.0505,-3.0504,-3.0505,-3.0496,-3.052,-3.0569,-3.0559,-3.0496,-3.0496,-3.102,-3.1836,-3.2634,-3.3449,-3.4253,-3.5048,-3.5209,-3.5088,-3.501,-3.4945,-3.4889,-3.4829,-3.4697,-3.4528,-3.4269,-3.4099,-3.4181,-3.4848,-3.4962,-3.5349,-3.6884,-3.7215,-3.7453,-3.8253,-3.7744,-3.7231,-3.729,-3.6736,-3.6323,-3.6384,-3.5767,-3.533,-3.5408,-3.4699,-3.4252,-3.4311,-3.437,-3.448,-3.462,-3.4631,-3.5084,-3.6159,-3.6339,-3.68,-3.7674,-3.8629,-3.918,-3.9304,-3.9383,-3.9837,-4.07,-4.0839,-4.0935,-4.0996,-4.0997,-4.1047,-4.1207,-4.2933,-4.3706,-4.3848,-4.5585,-4.6303,-4.6293,-4.6303,-4.6294,-4.6282,-4.6215,-4.6203,-4.6203,-4.2624,-4.2621,-4.2631,-4.2627,-4.2614,-4.2408,-4.1745,-4.1641,-4.1429,-4.0874,-4.0797,-4.0797,-4.0797,-4.0796,-4.0111,-3.8349,-3.8241,-3.7564,-3.5887,-3.5786,-3.5783,-3.5779,-3.4754,-3.3899,-3.3277,-3.2162,-3.1297,-3.0701,-3.0701,-3.0701,-3.0698,-3.0704,-3.0694,-3.0664,-3.0672,-3.0649,-3.064,-3.064,-3.0608,-3.0567,-3.0572,-3.0576,-3.0576,-3.0585,-3.0591,-3.0573,-3.0573,-3.1487,-3.2728,-3.2949,-3.396,-3.5116,-3.5302,-3.5316,-3.5218,-3.5168,-3.5091,-3.5011,-3.4889,-3.4761,-3.4612,-3.4328,-3.4209,-3.4334,-3.5043,-3.5634,-3.6306,-3.7327,-3.7989,-3.8482,-3.8722,-3.8556,-3.8206,-3.7669,-3.7403,-3.7081,-3.6537,-3.635,-3.6294,-3.6307,-3.618,-3.6142,-3.6248,-3.6271,-3.6359,-3.6481,-3.6547,-3.6745,-3.7167,-3.7259,-3.7703,-3.8581,-3.9021,-3.9554,-4.0212,-4.0274,-4.0462,-4.0765,-4.0912,-4.0976,-4.0997,-4.1052,-4.1081,-4.1194,-4.2945,-4.3691,-4.3846,-4.5579,-4.6294,-4.6303,-4.6294,-4.6277,-4.6237,-4.6209,-4.6196,-4.6203,-4.3451,-4.3424,-4.3402,-4.3399,-4.3394,-4.3214,-4.2634,-4.2518,-4.2222,-4.1371,-4.1274,-4.1145,-4.0835,-4.0802,-4.0258,-3.8875,-3.8175,-3.7239,-3.5883,-3.5792,-3.5811,-3.5841,-3.5366,-3.4549,-3.3333,-3.2448,-3.1582,-3.0731,-3.0731,-3.0731,-3.0731,-3.0742,-3.0733,-3.0704,-3.0698,-3.0701,-3.0703,-3.0703,-3.0672,-3.0634,-3.0634,-3.0634,-3.0634,-3.0634,-3.0641,-3.0645,-3.0645,-3.1718,-3.3131,-3.3102,-3.4185,-3.5534,-3.5462,-3.5417,-3.5365,-3.5234,-3.5168,-3.51,-3.4945,-3.484,-3.472,-3.4517,-3.434,-3.4444,-3.5211,-3.5967,-3.6759,-3.7572,-3.8352,-3.891,-3.891,-3.891,-3.8744,-3.8245,-3.8186,-3.8062,-3.7586,-3.7347,-3.7221,-3.7242,-3.7088,-3.7009,-3.708,-3.7156,-3.7216,-3.7335,-3.744,-3.77,-3.8136,-3.8228,-3.8672,-3.9555,-3.9711,-4.0048,-4.0636,-4.072,-4.0761,-4.0844,-4.0952,-4.1013,-4.1031,-4.1074,-4.1098,-4.1187,-4.2578,-4.3378,-4.3802,-4.5219,-4.5991,-4.6292,-4.6277,-4.624,-4.6203,-4.6209,-4.6196,-4.6204,-4.3724,-4.3665,-4.3629,-4.3629,-4.3623,-4.362,-4.3537,-4.3466,-4.3079,-4.2131,-4.199,-4.168,-4.0893,-4.0802,-4.0483,-3.9658,-3.8064,-3.674,-3.5862,-3.5807,-3.5841,-3.5901,-3.5901,-3.5126,-3.3456,-3.2577,-3.1727,-3.0925,-3.0847,-3.0808,-3.0791,-3.0791,-3.0764,-3.0712,-3.0712,-3.07,-3.0704,-3.0704,-3.0714,-3.0701,-3.0701,-3.0701,-3.0701,-3.0701,-3.0706,-3.0707,-3.0785,-3.1837,-3.3208,-3.3292,-3.4336,-3.5589,-3.5528,-3.5507,-3.5453,-3.5266,-3.5218,-3.5149,-3.4982,-3.4927,-3.4879,-3.4759,-3.4539,-3.4563,-3.5348,-3.6049,-3.6756,-3.7571,-3.8312,-3.8843,-3.8824,-3.8898,-3.8935,-3.8935,-3.9011,-3.905,-3.9115,-3.855,-3.8163,-3.8221,-3.7696,-3.7328,-3.734,-3.7453,-3.7572,-3.7648,-3.7823,-3.8277,-3.9076,-3.9178,-3.9627,-4.0469,-4.0512,-4.0586,-4.0719,-4.0784,-4.0844,-4.0917,-4.0984,-4.1039,-4.1098,-4.1103,-4.1104,-4.1152,-4.2012,-4.2887,-4.3771,-4.4642,-4.5512,-4.6279,-4.6215,-4.6203,-4.6196,-4.6201,-4.6185,-4.6181,-4.5453,-4.5453,-4.5442,-4.544,-4.5442,-4.5212,-4.4523,-4.435,-4.3789,-4.2266,-4.2028,-4.1693,-4.0879,-4.0798,-4.0477,-3.9675,-3.8073,-3.674,-3.5862,-3.5845,-3.5882,-3.5901,-3.5908,-3.5432,-3.4418,-3.3551,-3.2674,-3.1826,-3.1125,-3.08,-3.0808,-3.0808,-3.0788,-3.0784,-3.0784,-3.0778,-3.0784,-3.0784,-3.0777,-3.0784,-3.0784,-3.0778,-3.0773,-3.0773,-3.0742,-3.0782,-3.1469,-3.2364,-3.3405,-3.4701,-3.5338,-3.5604,-3.5578,-3.5534,-3.5486,-3.5383,-3.5281,-3.5201,-3.5141,-3.5054,-3.4983,-3.4946,-3.486,-3.4929,-3.5593,-3.5862,-3.6201,-3.7013,-3.781,-3.8344,-3.8292,-3.8833,-3.9293,-3.9293,-3.9307,-3.932,-3.9333,-3.9236,-3.9183,-3.9189,-3.9163,-3.9152,-3.9207,-3.9348,-3.9456,-3.9576,-3.9624,-3.9794,-4.0074,-4.0159,-4.0292,-4.0496,-4.0595,-4.07,-4.0788,-4.0833,-4.0917,-4.098,-4.1042,-4.1089,-4.1103,-4.1099,-4.111,-4.1152,-4.2029,-4.2899,-4.3762,-4.4631,-4.5475,-4.6212,-4.6213,-4.6196,-4.6197,-4.6134,-4.6122,-4.6117,-4.6061,-4.6026,-4.5997,-4.6,-4.6003,-4.5856,-4.5392,-4.5259,-4.4621,-4.2941,-4.2691,-4.2181,-4.0934,-4.0826,-4.0354,-3.9121,-3.8231,-3.7183,-3.5939,-3.5882,-3.5905,-3.5908,-3.5902,-3.5717,-3.5334,-3.4471,-3.3397,-3.2095,-3.1646,-3.1202,-3.0798,-3.0798,-3.0798,-3.0798,-3.0798,-3.0796,-3.081,-3.081,-3.0806,-3.08,-3.08,-3.0793,-3.0804,-3.0804,-3.1045,-3.1412,-3.1845,-3.2771,-3.4004,-3.5282,-3.5679,-3.5634,-3.5606,-3.5585,-3.5528,-3.5467,-3.5376,-3.5289,-3.5269,-3.5204,-3.5145,-3.5108,-3.5063,-3.5106,-3.531,-3.5671,-3.6053,-3.6438,-3.7136,-3.7652,-3.7591,-3.8284,-3.8877,-3.8877,-3.9195,-3.9452,-3.9477,-3.9533,-3.9552,-3.9587,-3.9708,-3.983,-3.9933,-4.0048,-4.0119,-4.0196,-4.0271,-4.0334,-4.0436,-4.0484,-4.0534,-4.0588,-4.0662,-4.075,-4.0842,-4.0912,-4.0988,-4.1059,-4.107,-4.1105,-4.1094,-4.1108,-4.1094,-4.1131,-4.1575,-4.2267,-4.3148,-4.4016,-4.4855,-4.5625,-4.6036,-4.6174,-4.6149,-4.6108,-4.6085,-4.6037,-4.61,-4.6061,-4.6007,-4.6002,-4.6,-4.6003,-4.6003,-4.596,-4.5316,-4.3629,-4.3391,-4.2732,-4.1006,-4.0883,-4.0248,-3.8546,-3.8408,-3.7693,-3.6002,-3.5898,-3.59,-3.5907,-3.5912,-3.5938,-3.6007,-3.5287,-3.4137,-3.2535,-3.2243,-3.1737,-3.1017,-3.0861,-3.0803,-3.0803,-3.0803,-3.0803,-3.0803,-3.0803,-3.0803,-3.0803,-3.0803,-3.0796,-3.0823,-3.0979,-3.1473,-3.213,-3.2366,-3.3423,-3.4824,-3.547,-3.5805,-3.5888,-3.5668,-3.5705,-3.5784,-3.5579,-3.5474,-3.5393,-3.5354,-3.5331,-3.5297,-3.525,-3.5242,-3.5201,-3.5,-3.5477,-3.593,-3.5869,-3.6449,-3.6941,-3.6881,-3.769,-3.836,-3.8348,-3.9024,-3.9575,-3.9599,-3.963,-3.9654,-3.9724,-3.9867,-3.9986,-4.0108,-4.0187,-4.0233,-4.0252,-4.0351,-4.0455,-4.0512,-4.0527,-4.0593,-4.0694,-4.0718,-4.0796,-4.0907,-4.096,-4.1032,-4.11,-4.1096,-4.1099,-4.1101,-4.1092,-4.1093,-4.1107,-4.11,-4.1597,-4.2477,-4.3339,-4.4153,-4.4984,-4.5854,-4.6145,-4.608,-4.6071,-4.6025,-4.5974,-4.6105,-4.6095,-4.6066,-4.6002,-4.5997,-4.5997,-4.5997,-4.5989,-4.537,-4.3624,-4.3408,-4.2757,-4.1071,-4.0946,-4.0298,-3.8548,-3.8389,-3.7692,-3.6018,-3.5905,-3.59,-3.5907,-3.5958,-3.5988,-3.5997,-3.5889,-3.5342,-3.4341,-3.2838,-3.2041,-3.1912,-3.115,-3.0798,-3.0798,-3.0798,-3.0798,-3.0798,-3.0798,-3.0798,-3.0798,-3.0798,-3.0791,-3.0874,-3.1634,-3.1991,-3.2282,-3.3731,-3.4842,-3.5635,-3.5684,-3.6207,-3.6677,-3.5861,-3.6122,-3.6574,-3.5804,-3.5541,-3.547,-3.5483,-3.5437,-3.5383,-3.5379,-3.5364,-3.535,-3.527,-3.5294,-3.5306,-3.5237,-3.5837,-3.6388,-3.6327,-3.7593,-3.8623,-3.8561,-3.9241,-3.9747,-3.9689,-3.9689,-3.9724,-3.9856,-4.0046,-4.0167,-4.0177,-4.0243,-4.0332,-4.0449,-4.0492,-4.0512,-4.0574,-4.0636,-4.0675,-4.0694,-4.0818,-4.0874,-4.0907,-4.0968,-4.1022,-4.1091,-4.1103,-4.1099,-4.1107,-4.1093,-4.1093,-4.1107,-4.1097,-4.1587,-4.2464,-4.3273,-4.4124,-4.4982,-4.5797,-4.6076,-4.6007,-4.5953,-4.5925,-4.5906,-4.616,-4.6138,-4.6095,-4.6066,-4.6012,-4.6002,-4.6002,-4.6011,-4.5398,-4.3689,-4.346,-4.28,-4.1082,-4.0965,-4.031,-3.8548,-3.8431,-3.7728,-3.6002,-3.5903,-3.5919,-3.5958,-3.5988,-3.5997,-3.6006,-3.5995,-3.5804,-3.543,-3.3688,-3.2575,-3.2071,-3.1211,-3.08,-3.08,-3.08,-3.08,-3.08,-3.08,-3.08,-3.08,-3.08,-3.1088,-3.1565,-3.195,-3.2699,-3.3717,-3.4895,-3.5537,-3.5865,-3.6321,-3.675,-3.7061,-3.7107,-3.7011,-3.6808,-3.643,-3.5963,-3.5554,-3.5554,-3.5528,-3.5509,-3.5509,-3.5509,-3.5502,-3.5469,-3.5435,-3.5372,-3.5237,-3.549,-3.5704,-3.5607,-3.6958,-3.8079,-3.8058,-3.913,-3.9954,-3.9922,-3.9922,-3.9965,-4.0049,-4.0148,-4.0234,-4.0304,-4.0375,-4.0441,-4.0558,-4.0583,-4.0614,-4.0649,-4.0713,-4.0767,-4.0818,-4.0864,-4.0915,-4.0961,-4.1026,-4.1064,-4.1095,-4.1097,-4.1108,-4.1092,-4.1093,-4.1108,-4.1098,-4.1106,-4.1324,-4.1746,-4.2542,-4.3389,-4.4253,-4.5065,-4.5612,-4.5937,-4.5874,-4.5827,-4.5831]},{"header":{"parameterUnit":"m.s-1","parameterCategory":1,"la1":30.6,"la2":28.766,"lo1":-90.7593,"lo2":-88.6598,"dy":0.0162,"dx":0.0183,"nx":116,"ny":114,"refTime":"2023-07-15T00:00:00:Z","depth":0,"parameterNumber":3,"parameterNumberName":"V-component_of_WINDS"},"data":[0.0,0.0,0.0,0.0,0.0,0.0,0.0,0.0,0.0,0.0,0.0,0.0,0.0,0.0,0.0,0.0,0.0,0.0,0.0,0.0,0.0,0.0,0.0,0.0,0.0,0.0,0.0,0.0,0.0,0.0,0.0,0.0,0.0,0.0,0.0,0.0,0.0,0.0,0.0,0.0,0.0,0.0,0.0,0.0,0.0,0.0,0.0,0.0,0.0,0.0,0.0,0.0,0.0,0.0,0.0,0.0,0.0,0.0,0.0,0.0,0.0,0.0,0.0,0.0,0.0,0.0,0.0,0.0,0.0,0.0,0.0,0.0,0.0,0.0,0.0,0.0,0.0,0.0,0.0,0.0,0.0,0.0,0.0,0.0,0.0,0.0,0.0,0.0,0.0,0.0,0.0,0.0,0.0,0.0,0.0,0.0,0.0,0.0,0.0,0.0,0.0,0.0,0.0,0.0,0.0,0.0,0.0,0.0,0.0,0.0,0.0,0.0,0.0,0.0,0.0,0.0,0.0,0.0,0.0,0.0,0.0,0.0,0.0,0.0,0.0,0.0,0.0,0.0,0.0,0.0,0.0,0.0,0.0,0.0,0.0,0.0,0.0,0.0,0.0,0.0,0.0,0.0,0.0,0.0,0.0,0.0,0.0,0.0,0.0,0.0,0.0,0.0,0.0,0.0,0.0,0.0,0.0,0.0,0.0,0.0,0.0,0.0,0.0,0.0,0.0,0.0,0.0,0.0,0.0,0.0,0.0,0.0,0.0,0.0,0.0,0.0,0.0,0.0,0.0,0.0,0.0,0.0,0.0,0.0,0.0,0.0,0.0,0.0,0.0,0.0,0.0,0.0,0.0,0.0,0.0,0.0,0.0,0.0,0.0,0.0,0.0,0.0,0.0,0.0,0.0,0.0,0.0,0.0,0.0,0.0,0.0,0.0,0.0,0.0,0.0,0.0,0.0,0.0,0.0,0.0,0.0,0.0,0.0,0.0,0.0,0.0,0.0,0.0,0.0,0.0,0.0,0.0,0.0,0.0,0.0,0.0,0.0,0.0,0.0,0.0,0.0,0.0,0.0,0.0,0.0,0.0,0.0,0.0,0.0,0.0,0.0,0.0,0.0,0.0,0.0,0.0,0.0,0.0,0.0,0.0,0.0,0.0,0.0,0.0,0.0,0.0,0.0,0.0,0.0,0.0,0.0,0.0,0.0,0.0,0.0,0.0,0.0,0.0,0.0,0.0,0.0,0.0,0.0,0.0,0.0,0.0,0.0,0.0,0.0,0.0,0.0,0.0,0.0,0.0,0.0,0.0,0.0,0.0,0.0,0.0,0.0,0.0,0.0,0.0,0.0,0.0,0.0,0.0,0.0,0.0,0.0,0.0,0.0,0.0,0.0,0.0,0.0,0.0,0.0,0.0,0.0,0.0,0.0,0.0,0.0,0.0,0.0,0.0,0.0,0.0,0.0,0.0,0.0,0.0,0.0,0.0,0.0,0.0,0.0,0.0,0.0,0.0,0.0,0.0,0.0,0.0,0.0,0.0,0.0,0.0,0.0,0.0,0.0,0.0,0.0,0.0,0.0,0.0,0.0,0.0,0.0,0.0,0.0,0.0,0.0,0.0,0.0,0.0,0.0,0.0,0.0,0.0,0.0,0.0,0.0,0.0,0.0,0.0,0.0,0.0,0.0,0.0,0.0,0.0,0.0,0.0,0.0,0.0,0.0,0.0,0.0,0.0,0.0,0.0,0.0,0.0,0.0,0.0,0.0,0.0,0.0,0.0,0.0,0.0,0.0,0.0,0.0,0.0,0.0,0.0,0.0,0.0,0.0,0.0,0.0,0.0,0.0,0.0,0.0,0.0,0.0,0.0,0.0,0.0,0.0,0.0,0.0,0.0,0.0,0.0,0.0,0.0,0.0,0.0,0.0,0.0,0.0,0.0,0.0,0.0,0.0,0.0,0.0,0.0,0.0,0.0,0.0,0.0,0.0,0.0,0.0,0.0,0.0,0.0,0.0,0.0,0.0,0.0,0.0,0.0,0.0,0.0,0.0,0.0,0.0,0.0,0.0,0.0,0.0,0.0,0.0,0.0,0.0,0.0,0.0,0.0,0.0,0.0,0.0,0.0,0.0,0.0,0.0,0.0,0.0,0.0,0.0,0.0,0.0,0.0,0.0,0.0,0.0,0.0,0.0,0.0,0.0,0.0,0.0,0.0,0.0,0.0,0.0,0.0,0.0,0.0,0.0,0.0,0.0,0.0,0.0,0.0,0.0,0.0,0.0,0.0,0.0,0.0,0.0,0.0,0.0,0.0,0.0,0.0,0.0,0.0,0.0,0.0,0.0,0.0,0.0,0.0,0.0,0.0,0.0,0.0,0.0,0.0,0.0,0.0,0.0,0.0,0.0,0.0,0.0,0.0,0.0,0.0,0.0,0.0,0.0,0.0,0.0,0.0,0.0,0.0,0.0,0.0,0.0,0.0,0.0,0.0,0.0,0.0,0.0,0.0,0.0,0.0,0.0,0.0,0.0,0.0,0.0,0.0,0.0,0.0,0.0,0.0,0.0,0.0,0.0,0.0,0.0,0.0,0.0,0.0,0.0,0.0,0.0,0.0,0.0,0.0,0.0,0.0,0.0,0.0,0.0,0.0,0.0,0.0,0.0,0.0,0.0,0.0,0.0,0.0,0.0,0.0,0.0,0.0,0.0,0.0,0.0,0.0,0.0,0.0,0.0,0.0,0.0,0.0,0.0,0.0,0.0,0.0,0.0,0.0,0.0,0.0,0.0,0.0,0.0,0.0,0.0,0.0,0.0,0.0,0.0,0.0,0.0,0.0,0.0,0.0,0.0,0.0,0.0,0.0,0.0,0.0,0.0,0.0,0.0,0.0,0.0,0.0,0.0,0.0,0.0,0.0,0.0,0.0,0.0,0.0,0.0,0.0,0.0,0.0,0.0,0.0,0.0,0.0,0.0,0.0,0.0,0.0,0.0,0.0,0.0,0.0,0.0,0.0,0.0,0.0,0.0,0.0,0.0,0.0,0.0,0.0,0.0,0.0,0.0,0.0,0.0,0.0,0.0,0.0,0.0,0.0,0.0,0.0,0.0,0.0,0.0,0.0,0.0,0.0,0.0,0.0,0.0,0.0,0.0,0.0,0.0,0.0,0.0,0.0,0.0,0.0,0.0,0.0,0.0,0.0,0.0,0.0,0.0,0.0,0.0,0.0,0.0,0.0,0.0,0.0,0.0,0.0,0.0,0.0,0.0,0.0,0.0,0.0,0.0,0.0,0.0,0.0,0.0,0.0,0.0,0.0,0.0,0.0,0.0,0.0,0.0,0.0,0.0,0.0,0.0,0.0,0.0,0.0,0.0,0.0,0.0,0.0,0.0,0.0,0.0,0.0,0.0,0.0,0.0,0.0,0.0,0.0,0.0,0.0,0.0,0.0,0.0,0.0,0.0,0.0,0.0,0.0,0.0,0.0,0.0,0.0,0.0,0.0,0.0,0.0,0.0,0.0,0.0,0.0,0.0,0.0,0.0,0.0,0.0,0.0,0.0,0.0,0.0,0.0,0.0,0.0,0.0,0.0,0.0,0.0,0.0,0.0,0.0,0.0,0.0,0.0,0.0,0.0,0.0,0.0,0.0,0.0,0.0,0.0,0.0,0.0,0.0,0.0,0.0,0.0,0.0,0.0,0.0,0.0,0.0,0.0,0.0,0.0,0.0,0.0,0.0,0.0,0.0,0.0,0.0,0.0,0.0,0.0,0.0,0.0,0.0,0.0,0.0,0.0,0.0,0.0,0.0,0.0,0.0,0.0,0.0,0.0,0.0,0.0,0.0,0.0,0.0,0.0,0.0,0.0,0.0,0.0,0.0,0.0,0.0,0.0,0.0,0.0,0.0,0.0,0.0,0.0,0.0,0.0,0.0,0.0,0.0,0.0,0.0,0.0,0.0,0.0,0.0,0.0,0.0,0.0,0.0,0.0,0.0,0.0,0.0,0.0,0.0,0.0,0.0,0.0,0.0,0.0,0.0,0.0,0.0,0.0,0.0,0.0,0.0,0.0,0.0,0.0,0.0,0.0,0.0,0.0,0.0,0.0,0.0,0.0,0.0,0.0,0.0,0.0,0.0,0.0,0.0,0.0,0.0,0.0,0.0,0.0,0.0,0.0,0.0,0.0,0.0,0.0,0.0,0.0,0.0,0.0,0.0,0.0,0.0,0.0,0.0,0.0,0.0,0.0,0.0,0.0,0.0,0.0,0.0,0.0,0.0,0.0,0.0,0.0,0.0,0.0,0.0,0.0,0.0,0.0,0.0,0.0,0.0,0.0,0.0,0.0,0.0,0.0,0.0,0.0,0.0,0.0,0.0,0.0,0.0,0.0,0.0,0.0,0.0,0.0,0.0,0.0,0.0,0.0,0.0,0.0,0.0,0.0,0.0,0.0,0.0,0.0,0.0,0.0,0.0,0.0,0.0,0.0,0.0,0.0,0.0,0.0,0.0,0.0,0.0,0.0,0.0,0.0,0.0,0.0,0.0,0.0,0.0,0.0,0.0,0.0,0.0,0.0,0.0,0.0,0.0,0.0,0.0,0.0,0.0,0.0,0.0,0.0,0.0,0.0,0.0,0.0,0.0,0.0,0.0,0.0,0.0,0.0,0.0,0.0,0.0,0.0,0.0,0.0,0.0,0.0,0.0,0.0,0.0,0.0,0.0,0.0,0.0,0.0,0.0,0.0,0.0,0.0,0.0,0.0,0.0,0.0,0.0,0.0,0.0,0.0,0.0,0.0,0.0,0.0,0.0,0.0,0.0,0.0,0.0,0.0,0.0,0.0,0.0,0.0,0.0,0.0,0.0,0.0,0.0,0.0,0.0,0.0,0.0,0.0,0.0,0.0,0.0,0.0,0.0,0.0,0.0,0.0,0.0,0.0,0.0,0.0,0.0,0.0,0.0,0.0,0.0,0.0,0.0,0.0,0.0,0.0,0.0,0.0,0.0,0.0,0.0,0.0,0.0,0.0,0.0,0.0,0.0,0.0,0.0,0.0,0.0,0.0,0.0,0.0,0.0,0.0,0.0,0.0,0.0,0.0,0.0,0.0,0.0,0.0,0.0,0.0,0.0,0.0,0.0,0.0,0.0,0.0,0.0,0.0,0.0,0.0,0.0,0.0,0.0,0.0,0.0,0.0,0.0,0.0,0.0,0.0,0.0,0.0,0.0,0.0,0.0,0.0,0.0,0.0,0.0,0.0,0.0,0.0,0.0,0.0,0.0,0.0,0.0,0.0,0.0,0.0,0.0,0.0,0.0,0.0,0.0,0.0,0.0,0.0,0.0,0.0,0.0,0.0,0.0,0.0,0.0,0.0,0.0,0.0,0.0,0.0,0.0,0.0,0.0,0.0,0.0,0.0,0.0,0.0,0.0,0.0,0.0,0.0,0.0,0.0,0.0,0.0,0.0,0.0,0.0,0.0,0.0,0.0,0.0,0.0,0.0,0.0,0.0,0.0,0.0,0.0,0.0,0.0,0.0,0.0,0.0,0.0,0.0,0.0,0.0,0.0,0.0,0.0,0.0,0.0,0.0,0.0,0.0,0.0,0.0,0.0,0.0,0.0,0.0,0.0,0.0,0.0,0.0,0.0,0.0,0.0,0.0,0.0,0.0,0.0,0.0,0.0,0.0,0.0,0.0,0.0,0.0,0.0,0.0,0.0,0.0,0.0,0.0,0.0,0.0,0.0,0.0,0.0,0.0,0.0,0.0,0.0,0.0,0.0,0.0,0.0,0.0,0.0,0.0,0.0,0.0,0.0,0.0,0.0,0.0,0.0,0.0,0.0,0.0,0.0,0.0,0.0,0.0,0.0,0.0,0.0,0.0,0.0,0.0,0.0,0.0,0.0,0.0,0.0,0.0,0.0,0.0,0.0,0.0,0.0,0.0,0.0,0.0,0.0,0.0,0.0,0.0,0.0,0.0,0.0,0.0,0.0,0.0,0.0,0.0,0.0,0.0,0.0,0.0,0.0,0.0,0.0,0.0,0.0,0.0,0.0,0.0,0.0,0.0,0.0,0.0,0.0,0.0,0.0,0.0,0.0,0.0,0.0,0.0,0.0,-1.3297,0.0,0.0,0.0,0.0,0.0,0.0,0.0,0.0,0.0,0.0,0.0,0.0,0.0,0.0,0.0,0.0,0.0,0.0,0.0,0.0,0.0,0.0,0.0,0.0,0.0,0.0,0.0,0.0,0.0,0.0,0.0,0.0,0.0,0.0,0.0,0.0,0.0,0.0,0.0,0.0,0.0,0.0,0.0,0.0,0.0,0.0,0.0,0.0,0.0,0.0,0.0,0.0,0.0,0.0,0.0,0.0,0.0,0.0,0.0,0.0,0.0,0.0,0.0,0.0,0.0,0.0,0.0,0.0,0.0,0.0,0.0,0.0,0.0,0.0,0.0,0.0,0.0,0.0,0.0,0.0,0.0,0.0,0.0,0.0,0.0,0.0,0.0,0.0,0.0,0.0,0.0,0.0,0.0,0.0,0.0,0.0,0.0,0.0,0.0,0.0,0.0,0.0,0.0,0.0,0.0,0.0,0.0,0.0,0.0,0.0,0.0,0.0,0.0,0.0,0.0,0.0,-1.4394,0.0,0.0,0.0,0.0,0.0,0.0,0.0,0.0,0.0,0.0,0.0,0.0,0.0,0.0,0.0,0.0,0.0,0.0,0.0,0.0,0.0,0.0,0.0,0.0,0.0,0.0,0.0,0.0,0.0,0.0,0.0,0.0,0.0,0.0,0.0,0.0,0.0,0.0,0.0,0.0,0.0,0.0,0.0,0.0,0.0,0.0,0.0,0.0,0.0,0.0,0.0,0.0,0.0,0.0,0.0,0.0,0.0,0.0,0.0,0.0,0.0,0.0,0.0,0.0,0.0,0.0,0.0,0.0,0.0,0.0,0.0,0.0,0.0,0.0,0.0,0.0,0.0,0.0,0.0,0.0,0.0,0.0,0.0,0.0,0.0,0.0,0.0,0.0,0.0,0.0,0.0,0.0,0.0,0.0,0.0,0.0,0.0,0.0,0.0,0.0,0.0,0.0,0.0,0.0,0.0,0.0,0.0,0.0,-1.8682,-1.9129,-1.9585,-1.9585,-1.9527,-1.9319,-1.7634,-1.6638,-1.6178,0.0,0.0,0.0,0.0,0.0,0.0,0.0,0.0,0.0,0.0,0.0,0.0,0.0,0.0,0.0,0.0,0.0,0.0,0.0,0.0,0.0,0.0,0.0,0.0,0.0,0.0,0.0,0.0,0.0,0.0,0.0,0.0,0.0,0.0,0.0,0.0,0.0,0.0,-1.7552,-1.8323,-1.8796,-1.8966,-1.8817,-1.689,0.0,0.0,0.0,0.0,0.0,0.0,0.0,0.0,0.0,0.0,0.0,0.0,0.0,0.0,0.0,0.0,0.0,0.0,0.0,0.0,0.0,0.0,0.0,0.0,0.0,0.0,0.0,0.0,0.0,0.0,0.0,0.0,0.0,0.0,0.0,0.0,0.0,0.0,0.0,0.0,0.0,0.0,0.0,-1.2371,-1.3923,0.0,0.0,0.0,0.0,0.0,0.0,0.0,0.0,0.0,0.0,0.0,0.0,0.0,0.0,-1.9105,-1.9503,-2.0027,-2.0633,-2.0731,-2.1,-2.1445,-2.1445,-2.1445,-2.1377,-2.0736,0.0,-1.815,-1.7323,0.0,0.0,0.0,0.0,0.0,0.0,0.0,0.0,0.0,0.0,0.0,0.0,0.0,0.0,0.0,0.0,0.0,0.0,0.0,0.0,0.0,0.0,0.0,0.0,0.0,0.0,0.0,0.0,0.0,0.0,0.0,0.0,0.0,0.0,0.0,0.0,-1.774,-1.8821,-1.9479,-2.0249,-2.0543,-2.0418,-1.9718,-1.8775,-1.7644,-1.7066,0.0,0.0,0.0,0.0,0.0,0.0,0.0,0.0,0.0,0.0,0.0,0.0,0.0,0.0,0.0,0.0,0.0,0.0,0.0,0.0,0.0,0.0,0.0,0.0,0.0,0.0,0.0,0.0,0.0,0.0,0.0,0.0,0.0,0.0,0.0,0.0,0.0,0.0,0.0,-1.2854,-1.4247,-1.5498,-1.5889,-1.6267,0.0,0.0,0.0,0.0,0.0,0.0,0.0,0.0,0.0,-1.9998,-2.0619,-2.1023,-2.1179,-2.1574,-2.1834,-2.189,-2.2159,-2.2387,-2.2584,-2.2584,-2.2584,-2.2573,-2.2366,-2.1855,-2.1073,-1.9253,-1.8504,-1.8334,0.0,0.0,0.0,0.0,0.0,-1.7024,0.0,0.0,0.0,0.0,0.0,0.0,0.0,0.0,0.0,0.0,0.0,0.0,0.0,0.0,0.0,-1.3908,0.0,0.0,0.0,0.0,0.0,0.0,0.0,0.0,0.0,0.0,0.0,-1.805,-1.921,-2.0083,-2.072,-2.1634,-2.2025,-2.1915,-2.2242,-2.1211,-1.9162,-1.8572,-1.776,0.0,0.0,0.0,0.0,0.0,0.0,0.0,0.0,0.0,0.0,0.0,0.0,0.0,0.0,0.0,0.0,0.0,0.0,0.0,0.0,0.0,0.0,0.0,0.0,0.0,0.0,0.0,0.0,0.0,0.0,0.0,0.0,0.0,0.0,0.0,0.0,0.0,0.0,-1.4442,-1.5716,-1.685,-1.7576,-1.8162,0.0,0.0,0.0,0.0,0.0,0.0,-1.9408,-2.0434,-2.1416,-2.2302,-2.2794,-2.314,-2.3296,-2.3658,-2.3691,-2.337,-2.3712,-2.3877,-2.3867,-2.3764,-2.3712,-2.3701,-2.3463,-2.336,-2.3215,-2.112,-2.014,-1.988,-1.9398,-1.9016,-1.8778,-1.8744,-1.87,-1.87,0.0,0.0,0.0,0.0,0.0,0.0,0.0,0.0,0.0,0.0,0.0,0.0,0.0,0.0,-1.4058,-1.4261,-1.521,-1.5729,0.0,0.0,0.0,0.0,0.0,0.0,0.0,0.0,0.0,-1.9036,-2.0793,-2.1862,-2.2317,-2.3225,-2.391,-2.4305,-2.4136,-2.2761,-2.0568,-2.0152,-1.9327,-1.8237,0.0,0.0,0.0,0.0,0.0,0.0,0.0,0.0,0.0,0.0,0.0,0.0,0.0,0.0,0.0,0.0,0.0,0.0,0.0,0.0,0.0,0.0,0.0,0.0,0.0,0.0,0.0,0.0,0.0,0.0,0.0,0.0,0.0,0.0,0.0,0.0,0.0,0.0,0.0,-1.7859,-1.8954,0.0,0.0,0.0,0.0,-2.0555,-2.1084,-2.1417,-2.1439,-2.2783,-2.3798,-2.4323,-2.4792,-2.5274,-2.5721,-2.5753,-2.5769,-2.5709,-2.573,-2.574,-2.573,-2.5316,-2.5086,-2.5034,-2.4219,-2.3836,-2.3805,-2.277,-2.2059,-2.1625,-2.1032,-2.0528,-2.0068,-1.9904,-1.9823,-1.9823,0.0,0.0,0.0,0.0,0.0,0.0,0.0,0.0,0.0,0.0,0.0,0.0,0.0,-1.3323,-1.4452,-1.5308,-1.5712,-1.6034,-1.6349,0.0,0.0,0.0,0.0,0.0,0.0,0.0,-1.9479,-2.0834,-2.1487,-2.23,-2.3289,-2.3956,-2.4347,-2.4497,-2.4752,-2.4158,-2.2857,-2.184,-2.0831,-1.9839,-1.8778,-1.7709,0.0,0.0,0.0,0.0,0.0,0.0,0.0,0.0,0.0,0.0,0.0,0.0,0.0,0.0,0.0,0.0,0.0,0.0,0.0,0.0,0.0,0.0,0.0,0.0,0.0,0.0,0.0,0.0,0.0,0.0,0.0,0.0,0.0,0.0,0.0,0.0,0.0,-1.9907,-2.0699,0.0,0.0,-2.2082,-2.2146,-2.2353,-2.2743,-2.311,-2.3438,-2.4519,-2.5349,-2.5852,-2.631,-2.6498,-2.636,-2.637,-2.6222,-2.5875,-2.5875,-2.5875,-2.5875,-2.572,-2.5647,-2.5616,-2.5006,-2.4757,-2.4705,-2.4032,-2.337,-2.2677,-2.2443,-2.221,-2.1939,-2.1861,-2.1822,-2.1822,0.0,0.0,0.0,0.0,0.0,0.0,0.0,0.0,0.0,0.0,0.0,-1.1311,-1.2605,-1.3779,-1.493,-1.6042,-1.6191,-1.6509,-1.719,0.0,0.0,0.0,0.0,0.0,0.0,-1.9689,-2.0586,-2.1807,-2.2273,-2.3021,-2.3951,-2.4478,-2.4789,-2.4897,-2.5284,-2.5199,-2.4678,-2.3524,-2.2374,-2.1269,-2.0359,-1.9337,-1.8249,0.0,0.0,0.0,0.0,0.0,0.0,0.0,0.0,0.0,0.0,0.0,0.0,0.0,0.0,0.0,0.0,0.0,0.0,0.0,0.0,0.0,0.0,0.0,0.0,0.0,0.0,0.0,0.0,0.0,0.0,0.0,0.0,0.0,0.0,0.0,-1.9975,-2.1523,-2.2205,-2.2845,-2.3544,-2.3514,-2.362,-2.4006,-2.4309,-2.4683,-2.5185,-2.595,-2.6605,-2.7053,-2.7314,-2.7329,-2.7072,-2.6992,-2.6764,-2.6387,-2.6387,-2.6387,-2.6387,-2.6231,-2.6159,-2.6082,-2.5492,-2.5189,-2.5158,-2.4607,-2.4061,-2.3505,-2.3351,-2.3074,-2.2788,-2.2788,-2.2819,-2.29,0.0,0.0,0.0,0.0,0.0,0.0,0.0,0.0,0.0,0.0,-1.0126,-1.1582,-1.2869,-1.4302,-1.5499,-1.6332,-1.67,-1.7248,-1.8029,-1.7309,0.0,0.0,0.0,0.0,-1.9543,-2.1014,-2.1828,-2.1869,-2.3215,-2.4013,-2.4262,-2.4893,-2.5359,-2.5634,-2.5833,-2.5917,-2.5874,-2.5187,-2.3971,-2.2424,-2.2019,-2.0959,-1.9594,0.0,0.0,0.0,0.0,0.0,0.0,0.0,0.0,0.0,0.0,0.0,0.0,0.0,0.0,0.0,0.0,0.0,0.0,0.0,0.0,0.0,0.0,0.0,0.0,0.0,0.0,0.0,0.0,0.0,0.0,0.0,0.0,0.0,-1.8873,-1.9849,-2.1055,-2.2547,-2.3437,-2.4147,-2.457,-2.4698,-2.4951,-2.5499,-2.5801,-2.6157,-2.6606,-2.7097,-2.7555,-2.8002,-2.7831,-2.7817,-2.7987,-2.7726,-2.7499,-2.7309,-2.7309,-2.7309,-2.7289,-2.6843,-2.6635,-2.6594,-2.5658,-2.522,-2.5168,-2.4497,-2.4217,-2.4112,-2.3674,-2.3112,-2.2522,-2.2522,-2.2645,-2.289,0.0,0.0,0.0,0.0,0.0,0.0,0.0,0.0,0.0,0.0,-1.0126,-1.1675,-1.3211,-1.4325,-1.5358,-1.6245,-1.6551,-1.6901,-1.7394,0.0,0.0,0.0,0.0,0.0,-2.0724,-2.1308,-2.2148,-2.3308,-2.3691,-2.4335,-2.5239,-2.5398,-2.5668,-2.6023,-2.6109,-2.6053,-2.5895,-2.5556,-2.4934,-2.4017,-2.2755,-2.1977,-2.1498,0.0,0.0,0.0,0.0,0.0,0.0,0.0,0.0,0.0,0.0,0.0,0.0,0.0,0.0,0.0,0.0,0.0,0.0,0.0,0.0,0.0,0.0,0.0,0.0,0.0,0.0,0.0,0.0,0.0,0.0,0.0,0.0,-1.9838,-1.9975,-2.147,-2.2823,-2.3505,-2.4411,-2.5063,-2.5255,-2.5584,-2.5948,-2.6275,-2.666,-2.714,-2.7576,-2.7729,-2.8058,-2.8538,-2.8329,-2.8161,-2.7998,-2.7726,-2.7499,-2.7309,-2.7309,-2.7309,-2.7299,-2.7175,-2.7123,-2.7081,-2.6455,-2.5929,-2.5429,-2.4934,-2.4328,-2.3711,-2.371,-2.3579,-2.3436,-2.3436,-2.3478,-2.3564,0.0,0.0,0.0,0.0,0.0,0.0,0.0,0.0,0.0,0.0,-1.0111,-1.1631,-1.3143,-1.4259,-1.5283,-1.6245,-1.6508,-1.6859,-1.7418,0.0,0.0,0.0,0.0,-2.0498,-2.132,-2.1987,-2.2777,-2.3742,-2.4218,-2.4792,-2.5443,-2.5719,-2.598,-2.6189,-2.6129,-2.6012,-2.5882,-2.555,-2.5261,-2.4866,-2.374,-2.3051,-2.2594,-2.1692,-2.1285,-2.1032,-1.989,-1.9541,-1.9516,-1.8731,0.0,0.0,0.0,0.0,0.0,0.0,0.0,0.0,0.0,0.0,0.0,0.0,0.0,0.0,0.0,0.0,0.0,0.0,0.0,0.0,0.0,0.0,0.0,0.0,-2.112,-2.1693,-2.2081,-2.3005,-2.3879,-2.4623,-2.5127,-2.5625,-2.603,-2.6248,-2.6614,-2.7129,-2.7424,-2.7829,-2.8309,-2.8342,-2.8427,-2.8617,-2.8384,-2.8102,-2.7857,-2.7584,-2.7404,-2.7309,-2.7309,-2.7309,-2.7309,-2.7309,-2.7309,0.0,-2.6682,-2.6203,-2.5788,-2.4911,-2.4221,0.0,0.0,0.0,0.0,0.0,-2.3667,-2.3711,0.0,0.0,0.0,0.0,0.0,0.0,0.0,0.0,0.0,0.0,0.0,-1.1434,-1.2823,-1.402,-1.5127,-1.6121,-1.6383,-1.6878,0.0,0.0,0.0,-1.9913,-2.0584,-2.1164,-2.1639,-2.2826,-2.3469,-2.3594,-2.4635,-2.521,-2.5316,-2.593,-2.6274,-2.6253,-2.6057,-2.5912,-2.5881,-2.536,-2.5158,-2.5126,-2.4691,-2.3992,-2.3222,-2.2743,-2.2398,-2.1994,-2.1115,-2.0897,-2.0948,-2.0401,0.0,0.0,0.0,0.0,0.0,0.0,0.0,0.0,0.0,0.0,0.0,0.0,0.0,0.0,0.0,0.0,0.0,0.0,0.0,0.0,0.0,0.0,0.0,0.0,-2.281,-2.3598,-2.4566,-2.4356,-2.4495,-2.5625,-2.5676,-2.5942,-2.6795,-2.6746,-2.7042,-2.7925,-2.8045,-2.8309,-2.8781,0.0,0.0,0.0,0.0,-2.7888,-2.7667,-2.7477,-2.7382,-2.7382,-2.7382,-2.7351,-2.7309,-2.7309,-2.7262,-2.7241,-2.6556,-2.6221,-2.6016,-2.4746,-2.4103,-2.394,-2.3608,-2.3319,-2.3144,-2.3373,-2.345,-2.3493,0.0,0.0,0.0,0.0,0.0,0.0,0.0,0.0,0.0,-0.852,-0.973,-1.1115,-1.2674,-1.3404,-1.4158,-1.5101,-1.5652,-1.6484,0.0,0.0,-1.9096,-2.0178,-2.079,-2.1596,-2.2591,-2.2896,-2.3378,-2.4074,-2.4658,-2.5231,-2.5761,-2.6262,-2.6618,-2.6735,-2.6309,-2.6032,-2.5881,-2.5231,-2.4946,-2.4935,-2.4607,-2.4378,-2.417,-2.3692,-2.3253,-2.2813,-2.2238,-2.1936,-2.1718,-2.1218,-2.079,-2.0413,-1.9954,0.0,0.0,0.0,0.0,0.0,0.0,0.0,0.0,0.0,0.0,0.0,0.0,0.0,0.0,0.0,0.0,0.0,0.0,0.0,0.0,-2.3866,-2.42,-2.4562,-2.5238,-2.5254,-2.5258,-2.5547,-2.5853,-2.6234,-2.6605,-2.6966,-2.7424,-2.7947,-2.8396,-2.8705,-2.8792,-2.8571,0.0,-2.8395,-2.7914,-2.7809,-2.8149,-2.7897,-2.779,-2.779,0.0,0.0,-2.7309,-2.7309,-2.7167,-2.6986,-2.6809,-2.6317,-2.5558,-2.4937,-2.4122,-2.3296,-2.3218,-2.3144,-2.3101,-2.3144,-2.3188,-2.3232,0.0,0.0,0.0,0.0,0.0,0.0,0.0,0.0,0.0,0.0,-0.9458,-1.0723,-1.1832,-1.2685,-1.3468,-1.4284,-1.5346,0.0,0.0,-1.817,-1.907,-2.0265,-2.1001,-2.1814,-2.268,-2.3034,-2.3424,-2.3851,-2.4568,-2.5204,-2.577,-2.6315,-2.6661,-2.6733,-2.6264,-2.585,-2.5499,-2.4942,-2.47,-2.47,-2.454,-2.449,-2.4451,-2.4032,-2.36,-2.3245,-2.278,-2.2418,-2.2157,-2.2052,-2.1761,-2.1422,-2.1239,-2.0369,-1.9321,0.0,0.0,0.0,0.0,0.0,0.0,0.0,0.0,0.0,0.0,0.0,0.0,0.0,0.0,-2.2204,0.0,0.0,-2.4095,-2.548,-2.5532,-2.5679,-2.6504,-2.651,-2.6239,-2.5755,-2.6098,-2.6538,-2.6922,-2.7358,-2.7872,-2.8364,-2.8661,-2.8757,-2.8617,-2.8715,-2.8619,-2.837,-2.8315,-2.8352,-2.8424,-2.8325,-2.8266,-2.8266,-2.7989,-2.781,-2.7583,-2.727,-2.7034,-2.69,-2.6602,-2.6222,-2.5724,-2.492,-2.4134,-2.3437,-2.3179,-2.3091,-2.3091,-2.3091,-2.3091,-2.3164,0.0,0.0,0.0,0.0,0.0,0.0,0.0,0.0,0.0,0.0,-0.9099,-1.0154,-1.0881,-1.1858,-1.2828,0.0,0.0,0.0,0.0,-1.7839,-1.8845,-2.0138,-2.1072,-2.1852,-2.2415,-2.3103,-2.346,-2.3503,-2.4347,-2.4984,-2.5486,-2.611,-2.6444,-2.6459,-2.5958,-2.5564,-2.5158,-2.4693,-2.4497,-2.4487,-2.4404,-2.4373,-2.4321,-2.3919,-2.3638,-2.3363,-2.2893,-2.2576,-2.2365,-2.2515,-2.237,-2.2146,-2.2226,-2.1435,-2.0478,-2.0194,-1.93,0.0,0.0,0.0,0.0,0.0,0.0,0.0,0.0,0.0,-2.2433,-2.3004,-2.361,-2.4269,-2.5184,-2.5213,-2.5537,-2.6783,-2.6716,-2.6751,-2.7535,-2.7459,-2.7031,-2.6267,-2.6518,-2.6868,-2.7272,-2.7707,-2.8187,-2.8678,-2.871,-2.8617,-2.8348,-2.8715,-2.8732,-2.8334,-2.8687,-2.8869,-2.8752,-2.8752,-2.8702,-2.8641,-2.8177,-2.786,-2.7708,-2.7094,-2.6794,-2.6699,-2.6255,-2.6003,-2.5816,-2.483,-2.417,-2.375,-2.3266,-2.3091,-2.3091,-2.3091,-2.3149,-2.3276,0.0,0.0,0.0,0.0,0.0,0.0,0.0,0.0,0.0,0.0,0.0,0.0,0.0,0.0,0.0,0.0,0.0,0.0,-1.6635,-1.7437,-1.8434,-1.9728,-2.095,-2.181,-2.2211,-2.2843,-2.3276,-2.3503,-2.4038,-2.451,-2.4972,-2.5466,-2.5797,-2.5982,-2.5502,-2.523,-2.5158,-2.4693,-2.4497,-2.4466,-2.4115,-2.395,-2.3898,-2.3432,-2.3276,-2.3162,-2.2696,-2.2355,-2.2149,-2.2138,-2.2371,-2.2541,-2.2157,-2.2038,-2.1786,-2.0489,0.0,-1.9682,-1.8851,-1.8895,-1.9397,-2.0347,-2.1028,-2.1615,0.0,0.0,-2.4652,-2.4708,-2.5497,-2.6315,-2.6853,-2.6942,-2.7071,-2.7522,-2.7578,-2.748,-2.7348,-2.7315,-2.7272,-2.7162,-2.7206,-2.7261,-2.7304,-2.7707,-2.8106,-2.8398,-2.8441,-2.8337,-2.8045,-2.8264,-2.8383,-2.8286,-2.8528,-2.8814,-2.9228,-2.9228,-2.9085,-2.8881,-2.84,-2.7811,-2.7179,-2.6746,-2.64,-2.6149,-2.5878,-2.5556,-2.5155,-2.4619,-2.417,-2.375,-2.3266,-2.3091,-2.3091,-2.3091,-2.3379,-2.3721,0.0,0.0,0.0,0.0,0.0,0.0,0.0,0.0,0.0,0.0,0.0,0.0,0.0,0.0,0.0,0.0,0.0,0.0,-1.5571,-1.6611,-1.7815,-1.9303,-2.011,-2.0897,-2.1774,-2.2302,-2.2697,-2.2912,-2.3519,-2.4042,-2.448,-2.4805,-2.5111,-2.5314,-2.5095,-2.4946,-2.4755,-2.4343,-2.4157,-2.4115,-2.366,-2.3474,-2.3391,-2.2656,-2.2387,-2.2356,-2.2159,-2.1835,0.0,0.0,-2.1402,-2.1541,-2.1575,-2.1639,-2.1626,-2.1132,-2.0981,0.0,-2.0839,-2.0948,0.0,0.0,-2.3196,-2.3611,-2.4509,-2.544,-2.6154,-2.6278,-2.6847,-2.7448,-2.765,-2.7553,-2.7633,0.0,-2.7987,-2.7929,-2.8158,-2.8145,-2.8047,-2.7729,-2.7981,-2.8047,-2.7718,-2.8041,-2.8272,-2.8384,-2.8243,-2.8173,-2.8163,-2.853,-2.876,-2.8882,-2.9227,-2.9508,-2.9704,-2.9538,-2.9434,-2.9278,-2.8401,-2.7814,-2.7462,-2.6662,-2.611,-2.5868,-2.5732,-2.5586,-2.543,-2.498,-2.4541,-2.4111,-2.3682,-2.3315,-2.3091,-2.3091,-2.3418,-2.3828,0.0,0.0,0.0,0.0,0.0,0.0,0.0,0.0,0.0,0.0,0.0,0.0,0.0,0.0,0.0,0.0,0.0,0.0,0.0,-1.5692,-1.6994,-1.8397,-1.9265,-2.0097,-2.0976,-2.1623,-2.2038,-2.224,-2.2722,-2.3166,-2.3666,-2.3797,-2.4015,-2.4285,-2.4285,-2.4145,-2.3946,-2.3659,-2.3567,-2.3567,-2.3103,-2.2885,-2.2718,-2.1921,-2.1538,-2.1424,-2.1424,-2.1207,0.0,0.0,-2.0669,-2.074,-2.1044,-2.1317,-2.1509,-2.152,-2.1645,-2.1898,-2.2379,0.0,0.0,-2.4552,-2.4978,-2.5336,-2.6271,-2.6864,-2.7249,-2.7379,-2.7722,-2.7977,-2.7977,-2.7789,-2.7712,-2.8031,-2.805,-2.8122,-2.8506,-2.8716,-2.8672,-2.8276,-2.8538,-2.8615,-2.8139,-2.8283,-2.8348,-2.829,-2.8055,-2.7973,-2.8157,-2.8627,-2.9036,-2.929,-2.9694,-2.9889,-2.9889,-2.9617,-2.9396,-2.9343,-2.8236,-2.7662,-2.7531,-2.6507,-2.5868,-2.5693,-2.5693,-2.5693,-2.5654,-2.5254,-2.4883,-2.4551,-2.4131,-2.3769,-2.3452,-2.3452,-2.3691,-2.4023,0.0,0.0,0.0,0.0,0.0,0.0,0.0,0.0,0.0,0.0,0.0,0.0,0.0,0.0,0.0,0.0,0.0,0.0,0.0,-1.489,-1.5894,-1.6753,-1.8656,-1.9715,-1.9743,-2.0734,-2.1316,-2.1524,-2.1534,-2.1812,-2.2264,-2.2264,-2.2388,-2.2654,-2.2654,-2.2685,-2.2675,-2.2655,-2.2737,-2.289,-2.243,-2.2058,-2.1797,-2.1321,-2.0855,-2.0426,-2.0426,0.0,0.0,0.0,-2.0527,-2.0705,-2.0705,-2.1296,0.0,-2.1441,-2.1789,-2.239,0.0,0.0,-2.465,-2.5622,-2.6212,-2.6639,-2.7162,-2.7643,-2.7958,-2.7947,-2.8014,-2.8014,-2.8014,-2.7632,-2.7315,-2.7326,-2.773,-2.8002,-2.8012,-2.8462,-2.8792,-2.8781,-2.8792,-2.871,0.0,-2.8384,-2.829,-2.8034,-2.7773,-2.7687,-2.7903,-2.8359,-2.8825,-2.929,-2.9475,-2.9606,-2.9606,-2.929,-2.8983,-2.8717,-2.7825,-2.7307,-2.6982,-2.6123,-2.5684,-2.5693,-2.5693,-2.5693,-2.5654,-2.5254,-2.5106,-2.5047,-2.456,-2.4385,-2.4375,-2.4375,-2.4385,-2.4463,0.0,0.0,0.0,0.0,0.0,0.0,0.0,0.0,0.0,0.0,0.0,0.0,0.0,0.0,0.0,0.0,0.0,0.0,0.0,-1.3726,-1.484,-1.5858,-1.7058,-1.7953,-1.8415,-1.9332,-1.9912,-2.0098,-2.0772,-2.1173,-2.1345,-2.1486,-2.1688,-2.191,-2.161,-2.1559,-2.1706,-2.1403,-2.132,-2.1308,-2.0852,-2.0626,-2.0476,-1.9802,-1.9493,-1.9278,0.0,0.0,0.0,0.0,0.0,-1.925,-1.964,-2.0397,-2.1345,-2.2402,-2.2934,-2.3504,-2.4628,0.0,-2.5732,-2.6955,-2.7402,-2.7642,-2.8167,-2.8396,-2.8429,-2.8056,-2.7991,-2.7893,-2.7576,-2.7424,-2.7315,-2.7315,-2.7446,-2.762,-2.7947,-2.8178,-2.8396,-2.8771,-2.8803,0.0,0.0,0.0,0.0,-2.7773,-2.7771,-2.7942,-2.8359,-2.8825,-2.9178,-2.9475,-2.9577,-2.9501,-2.929,-2.8983,-2.8781,-2.8664,-2.7629,-2.6759,-2.6113,-2.5664,-2.543,-2.544,-2.5235,-2.5186,-2.5177,-2.5024,-2.4804,-2.4546,-2.4402,-2.4173,-2.3972,-2.424,-2.4345,-2.4411,0.0,0.0,0.0,0.0,0.0,0.0,0.0,0.0,0.0,0.0,0.0,0.0,0.0,0.0,0.0,0.0,0.0,0.0,0.0,0.0,-1.37,-1.4836,-1.5773,-1.6558,-1.7188,-1.7915,-1.8471,-1.8844,-1.9488,-1.9946,-2.0216,-2.0343,-2.0537,-2.0768,-2.0295,-2.0173,-2.0302,-1.9862,-1.9709,-1.9751,-1.946,-1.9284,-1.9142,-1.8754,-1.8471,0.0,0.0,0.0,0.0,0.0,-1.8414,-1.8528,-1.926,-2.0268,-2.1481,-2.2987,-2.3859,-2.4596,-2.5603,-2.6278,-2.6889,-2.7762,-2.8122,-2.8375,-2.8727,-2.8661,-2.8364,-2.7883,-2.7467,-2.713,-2.6638,-2.6409,-2.6354,-2.6518,-2.6693,-2.7031,-2.7642,-2.7882,-2.8222,-2.8749,-2.871,0.0,0.0,0.0,0.0,-2.7631,-2.7772,-2.8121,-2.8587,-2.8961,-2.9312,-2.9586,-2.9406,-2.9195,-2.8983,-2.8664,-2.8357,-2.7937,-2.7224,-2.6361,-2.5391,-2.5235,-2.5137,-2.5137,-2.4981,-2.4883,-2.4883,-2.4883,-2.4731,-2.4495,-2.4495,-2.4382,-2.4184,-2.4401,-2.4495,-2.4543,0.0,0.0,0.0,0.0,0.0,0.0,0.0,0.0,0.0,0.0,0.0,0.0,0.0,0.0,0.0,0.0,0.0,0.0,0.0,0.0,0.0,-1.3634,-1.4782,-1.5586,-1.5984,-1.6538,-1.707,-1.7644,-1.7726,-1.812,-1.8872,-1.8908,-1.9018,-1.917,-1.8695,-1.85,-1.8481,-1.8115,-1.8041,-1.821,-1.821,-1.8085,-1.7857,-1.8051,0.0,0.0,0.0,0.0,0.0,0.0,0.0,0.0,0.0,-2.0896,-2.2292,-2.3217,-2.4492,-2.5665,-2.5931,-2.6998,-2.8034,-2.8067,-2.8462,-2.8825,-2.8781,-2.8353,-2.7805,-2.7315,-2.6474,-2.5677,0.0,0.0,-2.4563,-2.5062,-2.5513,-2.6157,-2.7108,-2.7642,-2.8178,0.0,0.0,0.0,0.0,0.0,0.0,-2.7615,0.0,-2.8152,-2.8587,-2.8829,-2.9135,-2.9544,-2.8993,-2.8674,-2.8684,-2.8398,-2.7693,-2.6593,-2.6593,-2.5999,-2.4883,-2.4883,-2.4883,-2.4883,-2.4883,-2.4883,-2.4883,-2.4883,-2.4883,-2.4883,-2.4883,-2.4883,-2.4883,-2.4883,-2.4883,-2.4892,0.0,0.0,0.0,0.0,0.0,0.0,0.0,0.0,0.0,0.0,0.0,0.0,0.0,0.0,0.0,0.0,0.0,0.0,0.0,0.0,0.0,0.0,0.0,0.0,0.0,0.0,0.0,0.0,-1.6555,-1.7011,-1.7216,-1.7479,-1.7615,-1.7663,-1.7337,-1.7184,-1.7174,-1.7067,-1.7061,-1.7125,0.0,-1.7088,-1.6983,0.0,0.0,0.0,0.0,0.0,0.0,0.0,0.0,0.0,0.0,-2.1668,-2.2443,-2.4018,-2.5018,-2.5915,-2.7385,-2.8161,-2.8659,-2.903,-2.9205,-2.9106,-2.8386,-2.785,-2.7162,-2.5961,-2.5251,-2.4585,0.0,0.0,0.0,-2.4017,-2.4519,0.0,-2.6125,-2.6977,0.0,-2.8167,0.0,-2.829,-2.8045,-2.7773,0.0,0.0,-2.8173,-2.8483,-2.8607,-2.9116,-2.9337,-2.9227,-2.8887,-2.8621,-2.8408,-2.813,-2.7535,-2.6593,-2.6387,-2.5787,-2.4883,-2.4677,-2.4587,-2.4578,-2.444,-2.4399,-2.4399,-2.4399,-2.4399,-2.4399,-2.4399,-2.4399,-2.4399,-2.4399,-2.4399,-2.4446,0.0,0.0,0.0,0.0,0.0,0.0,0.0,0.0,0.0,0.0,0.0,0.0,0.0,0.0,0.0,0.0,0.0,0.0,0.0,0.0,0.0,0.0,0.0,0.0,0.0,0.0,0.0,0.0,0.0,0.0,-1.58,-1.6012,-1.6128,-1.6172,-1.5912,-1.5789,-1.5769,-1.5615,0.0,0.0,0.0,0.0,0.0,0.0,0.0,0.0,0.0,0.0,0.0,0.0,0.0,-2.0524,-2.1497,-2.2434,-2.3366,-2.4556,0.0,-2.6768,-2.8057,-2.8639,-2.8998,-2.9412,-2.9172,-2.8659,-2.7849,-2.702,-2.6026,-2.4792,-2.3831,0.0,0.0,0.0,0.0,0.0,0.0,0.0,-2.5415,-2.6223,-2.6988,0.0,-2.792,0.0,-2.7846,-2.7762,-2.78,0.0,-2.8349,-2.8661,-2.8716,-2.9124,-2.9237,-2.893,-2.8674,-2.8408,-2.813,-2.796,-2.7324,-2.6243,-2.6088,-2.5543,-2.4597,-2.444,-2.439,-2.4341,0.0,-2.4202,-2.4202,-2.4202,-2.4202,-2.4202,-2.4202,-2.4202,-2.422,-2.4413,-2.4477,-2.4542,0.0,0.0,0.0,0.0,0.0,0.0,0.0,0.0,0.0,0.0,0.0,0.0,0.0,0.0,0.0,0.0,0.0,0.0,0.0,0.0,0.0,0.0,0.0,0.0,0.0,0.0,0.0,0.0,0.0,0.0,0.0,0.0,0.0,0.0,0.0,0.0,0.0,0.0,0.0,0.0,0.0,0.0,0.0,0.0,0.0,0.0,0.0,0.0,0.0,0.0,-1.9934,-2.1217,-2.1807,-2.3123,-2.456,-2.4922,-2.6235,-2.7662,-2.8261,-2.8746,-2.9154,-2.9441,-2.8811,-2.7936,-2.7359,-2.6114,-2.477,-2.3629,0.0,-2.1232,-2.0708,0.0,-2.0785,-2.1308,0.0,-2.3296,-2.4734,-2.5469,-2.6259,-2.7372,-2.738,-2.737,-2.7589,-2.7752,-2.7896,-2.7919,-2.8342,-2.8735,-2.8901,-2.9005,-2.893,-2.8674,-2.8408,-2.813,-2.7906,-2.7799,-2.7112,-2.5796,-2.5744,-2.5205,-2.4202,-2.4202,-2.4202,-2.4152,0.0,0.0,-2.4152,-2.4152,-2.4152,-2.4211,-2.4266,-2.4284,-2.4339,-2.4702,-2.4858,-2.4913,0.0,0.0,0.0,0.0,0.0,0.0,0.0,0.0,0.0,0.0,0.0,0.0,0.0,0.0,0.0,0.0,0.0,0.0,0.0,0.0,0.0,0.0,0.0,0.0,0.0,0.0,0.0,0.0,0.0,0.0,0.0,0.0,0.0,0.0,0.0,0.0,0.0,0.0,0.0,0.0,0.0,0.0,0.0,0.0,0.0,0.0,0.0,0.0,0.0,0.0,-1.9665,-2.1331,-2.2563,-2.3681,-2.4642,-2.5474,-2.6372,-2.7336,-2.8381,-2.885,-2.9154,-2.9441,-2.9074,-2.8331,-2.6998,-2.5633,0.0,0.0,0.0,-2.0096,-1.9233,-1.9069,0.0,-2.0216,0.0,0.0,0.0,0.0,-2.5839,0.0,0.0,0.0,0.0,0.0,0.0,0.0,0.0,0.0,-2.8911,-2.8805,-2.8674,-2.8398,-2.813,-2.796,-2.7906,-2.7422,-2.6695,-2.5796,-2.558,-2.5043,-2.4202,-2.4202,-2.4102,-2.3854,0.0,0.0,-2.3854,-2.3854,-2.4003,-2.4238,-2.4587,-2.4725,-2.4721,-2.5176,-2.5323,-2.5378,0.0,0.0,0.0,0.0,0.0,0.0,0.0,0.0,0.0,0.0,-0.758,-0.7656,0.0,0.0,0.0,0.0,0.0,0.0,0.0,0.0,0.0,0.0,0.0,0.0,0.0,0.0,0.0,0.0,0.0,0.0,0.0,0.0,0.0,0.0,0.0,0.0,0.0,0.0,0.0,0.0,0.0,0.0,0.0,0.0,0.0,0.0,0.0,0.0,0.0,0.0,-1.9437,-2.1,-2.2387,-2.3619,-2.4673,-2.5616,-2.652,-2.7369,-2.8423,-2.8807,-2.8946,-2.9067,-2.8375,-2.7272,-2.5841,0.0,0.0,0.0,-1.9495,-1.8425,-1.7693,0.0,0.0,0.0,0.0,0.0,0.0,0.0,0.0,0.0,0.0,0.0,0.0,0.0,0.0,0.0,0.0,0.0,-2.8778,-2.8618,-2.8354,-2.8121,-2.796,-2.7745,-2.7422,-2.7152,-2.6526,-2.558,-2.532,-2.4787,-2.4003,-2.3854,-2.3696,-2.3596,-2.3596,0.0,-2.3596,-2.3596,-2.3772,-2.4079,-2.4287,-2.4485,-2.4711,-2.5117,-2.5261,-2.5315,0.0,0.0,0.0,0.0,0.0,0.0,0.0,-0.6233,-0.6661,-0.7698,-0.7978,-0.801,-0.7874,-0.8194,0.0,0.0,0.0,0.0,0.0,0.0,0.0,0.0,0.0,0.0,0.0,0.0,0.0,0.0,0.0,0.0,0.0,0.0,0.0,0.0,0.0,0.0,0.0,0.0,0.0,0.0,0.0,0.0,0.0,0.0,0.0,0.0,0.0,0.0,0.0,0.0,-1.9003,-2.0338,-2.1538,-2.3122,-2.4631,-2.5388,-2.6237,-2.7207,-2.8132,-2.8328,-2.8331,-2.8577,-2.7512,-2.6092,-2.4792,-2.299,0.0,0.0,-1.8206,-1.712,-1.6454,0.0,0.0,0.0,0.0,0.0,0.0,0.0,0.0,0.0,0.0,0.0,0.0,0.0,0.0,0.0,0.0,0.0,-2.8601,-2.8398,-2.8184,-2.7906,-2.7853,-2.753,-2.6989,-2.6881,-2.6358,-2.5395,-2.5133,-2.465,-2.3948,-2.3666,-2.3471,-2.3421,-2.3341,0.0,0.0,-2.3421,-2.366,-2.4013,-2.4102,-2.4375,-2.4686,-2.5085,-2.5235,-2.528,0.0,0.0,0.0,0.0,0.0,0.0,0.0,-0.6214,-0.6551,-0.7494,-0.8008,-0.8308,-0.8413,-0.8416,0.0,0.0,0.0,0.0,0.0,0.0,0.0,0.0,0.0,0.0,0.0,0.0,0.0,0.0,0.0,0.0,0.0,0.0,0.0,0.0,0.0,0.0,0.0,0.0,0.0,0.0,0.0,0.0,0.0,0.0,0.0,0.0,0.0,0.0,0.0,0.0,0.0,-1.9326,-1.9876,-2.2097,-2.4518,-2.46,0.0,0.0,-2.7147,-2.7115,-2.6992,-2.7878,-2.7031,-2.571,-2.4716,0.0,0.0,-1.9146,-1.7966,-1.6994,-1.604,-1.5909,-1.6225,0.0,0.0,-1.9321,0.0,0.0,0.0,0.0,0.0,0.0,0.0,0.0,0.0,0.0,0.0,0.0,0.0,-2.8291,-2.8184,-2.7906,-2.7584,-2.7323,-2.6989,-2.6445,-2.5964,-2.5495,-2.5228,-2.4881,-2.4445,-2.4038,-2.3734,-2.3451,0.0,0.0,0.0,-2.3469,-2.3851,-2.4491,-2.4863,-2.5031,-2.5102,-2.5493,-2.5634,-2.5634,0.0,0.0,0.0,0.0,0.0,0.0,0.0,-0.6075,-0.649,-0.7256,-0.7765,-0.8183,-0.8477,-0.8362,-0.8327,0.0,0.0,0.0,0.0,0.0,0.0,0.0,0.0,0.0,0.0,0.0,0.0,0.0,0.0,0.0,0.0,0.0,0.0,0.0,0.0,0.0,0.0,0.0,0.0,0.0,0.0,0.0,0.0,0.0,0.0,0.0,0.0,0.0,0.0,0.0,0.0,0.0,-1.915,-2.0596,0.0,0.0,-2.4364,-2.5259,-2.6195,-2.654,-2.6619,-2.6715,-2.5895,-2.4639,-2.3099,0.0,-1.9736,-1.7781,-1.6863,-1.611,-1.5137,-1.5203,-1.5593,-1.6295,0.0,0.0,0.0,0.0,0.0,0.0,0.0,0.0,0.0,0.0,0.0,0.0,0.0,0.0,0.0,-2.8067,-2.7906,-2.7593,-2.7314,-2.7053,-2.6736,-2.6345,-2.5874,-2.5487,-2.5058,-2.4632,-2.4237,-2.3931,-2.3713,-2.3617,0.0,0.0,0.0,-2.36,-2.3877,-2.4338,-2.4503,-2.4711,-2.4945,-2.5084,-2.5145,-2.5145,0.0,0.0,0.0,0.0,0.0,0.0,-0.5498,-0.593,-0.643,-0.7065,-0.7578,-0.8042,-0.8393,-0.8294,-0.8246,-0.8327,0.0,0.0,0.0,0.0,0.0,0.0,0.0,0.0,0.0,0.0,0.0,0.0,0.0,0.0,0.0,0.0,0.0,0.0,0.0,0.0,0.0,0.0,0.0,0.0,0.0,0.0,0.0,0.0,0.0,0.0,0.0,0.0,0.0,0.0,0.0,0.0,0.0,0.0,0.0,0.0,-2.3225,-2.4116,-2.4946,-2.5487,-2.5722,-2.5467,-2.4709,-2.358,0.0,0.0,-1.8687,-1.6858,-1.6007,-1.5342,-1.4549,-1.4681,-1.5094,-1.5702,0.0,-1.7606,0.0,0.0,0.0,0.0,0.0,0.0,0.0,0.0,0.0,0.0,0.0,0.0,0.0,-2.7745,-2.753,-2.7314,-2.7098,-2.6836,-2.6473,-2.6127,-2.5764,-2.5388,-2.4963,-2.4598,-2.4321,-2.3995,-2.3845,-2.3853,0.0,0.0,0.0,-2.3828,-2.4059,-2.4401,-2.4401,-2.4573,-2.4821,-2.4821,-2.4821,-2.4821,0.0,0.0,0.0,0.0,0.0,0.0,0.0,-0.5813,-0.6385,-0.6926,-0.7528,-0.8003,-0.8283,-0.8249,-0.8202,-0.8202,0.0,0.0,0.0,0.0,0.0,0.0,0.0,0.0,0.0,0.0,-0.9629,-1.0092,-1.0508,0.0,0.0,0.0,0.0,0.0,0.0,0.0,0.0,0.0,0.0,0.0,0.0,0.0,0.0,0.0,0.0,0.0,0.0,0.0,0.0,0.0,0.0,0.0,0.0,0.0,0.0,0.0,-2.1797,-2.2654,-2.332,-2.3668,-2.3889,-2.4147,-2.3618,-2.2641,0.0,0.0,-1.8283,-1.6819,-1.5771,-1.4963,-1.4495,-1.4407,-1.4701,-1.5647,-1.6203,0.0,0.0,0.0,0.0,0.0,0.0,0.0,0.0,0.0,0.0,0.0,0.0,0.0,0.0,-2.7305,-2.6989,-2.6989,-2.6989,-2.6718,-2.6127,-2.5852,-2.5569,-2.5221,-2.4915,-2.4812,-2.4795,-2.4401,-2.4176,0.0,0.0,0.0,0.0,-2.4176,-2.4407,-2.4812,-2.4812,-2.4812,-2.4821,-2.4821,-2.4821,-2.4821,0.0,0.0,0.0,0.0,0.0,0.0,0.0,-0.5478,-0.5919,-0.6081,-0.6711,-0.7189,-0.7335,-0.7567,-0.7752,-0.7844,0.0,0.0,0.0,0.0,0.0,0.0,0.0,0.0,0.0,0.0,-0.9779,-1.0041,-1.0764,-1.1265,-1.1578,-1.1653,0.0,0.0,0.0,0.0,0.0,0.0,0.0,0.0,0.0,0.0,0.0,0.0,0.0,0.0,0.0,0.0,0.0,0.0,0.0,0.0,0.0,0.0,0.0,-1.8039,0.0,0.0,-2.1555,-2.2247,-2.2738,-2.2321,-2.19,-2.119,-1.9735,0.0,-1.7409,-1.6258,-1.5516,-1.4952,-1.4495,-1.4396,-1.4724,-1.5647,-1.6125,0.0,0.0,0.0,0.0,0.0,0.0,0.0,0.0,0.0,0.0,0.0,0.0,0.0,0.0,0.0,-2.6989,-2.6989,-2.6609,-2.6282,-2.6127,-2.5615,-2.5284,-2.5221,-2.4915,-2.4821,-2.4812,-2.4471,0.0,0.0,0.0,0.0,0.0,-2.4017,-2.4092,-2.42,-2.42,-2.42,-2.42,-2.42,-2.42,-2.42,0.0,0.0,0.0,0.0,0.0,0.0,0.0,-0.5155,-0.5591,-0.5681,-0.6231,-0.6651,-0.674,-0.6992,-0.7212,-0.7306,0.0,0.0,0.0,0.0,0.0,0.0,0.0,0.0,0.0,-0.9344,-0.9866,-0.9995,-1.0859,-1.1421,-1.1695,-1.1849,-1.1976,-1.2103,0.0,0.0,0.0,0.0,0.0,0.0,0.0,0.0,-1.2905,0.0,0.0,0.0,0.0,0.0,0.0,0.0,0.0,0.0,0.0,0.0,0.0,0.0,-1.7368,-1.8818,0.0,-2.059,-2.1204,-2.055,-2.0377,0.0,0.0,0.0,-1.6721,-1.5735,-1.517,-1.4757,-1.4451,-1.4549,-1.4895,-1.5604,-1.6207,0.0,0.0,0.0,0.0,0.0,0.0,0.0,0.0,0.0,0.0,0.0,0.0,0.0,0.0,0.0,-2.6663,-2.6663,-2.6291,-2.6017,-2.5789,-2.5395,-2.5174,-2.5072,-2.4757,-2.4654,-2.4654,-2.4376,0.0,0.0,0.0,0.0,0.0,-2.3921,-2.3921,-2.3921,-2.3921,-2.3921,-2.3921,-2.3921,-2.3921,-2.3921,0.0,0.0,0.0,0.0,0.0,0.0,0.0,0.0,0.0,0.0,-0.6003,-0.6316,-0.6444,-0.6542,-0.6622,0.0,0.0,0.0,0.0,0.0,0.0,0.0,0.0,0.0,0.0,-0.9344,-0.9858,-0.9972,-1.0885,-1.155,-1.2,-1.2228,-1.2369,-1.2439,-1.2629,0.0,0.0,0.0,0.0,0.0,0.0,0.0,0.0,0.0,0.0,0.0,0.0,0.0,0.0,0.0,0.0,0.0,0.0,0.0,0.0,0.0,0.0,0.0,0.0,-1.8784,0.0,0.0,0.0,0.0,0.0,0.0,0.0,-1.529,-1.4735,-1.4418,-1.4451,-1.4799,-1.5205,-1.5631,-1.6439,0.0,0.0,0.0,0.0,0.0,0.0,0.0,0.0,0.0,0.0,0.0,0.0,0.0,0.0,0.0,-2.6036,-2.6017,-2.6017,-2.5789,-2.5221,-2.5165,-2.5017,-2.4765,-2.4543,-2.4376,-2.4376,-2.4033,0.0,0.0,0.0,0.0,0.0,-2.3865,-2.3865,-2.3865,-2.3865,-2.3865,-2.3865,-2.3865,-2.3865,-2.3865,0.0,0.0,0.0,0.0,0.0,0.0,0.0,0.0,0.0,0.0,0.0,-0.5905,-0.6096,-0.6367,0.0,0.0,0.0,0.0,0.0,0.0,0.0,0.0,0.0,0.0,0.0,-0.933,-0.9812,-0.9844,-1.1074,-1.1729,-1.185,-1.243,-1.2698,-1.2716,-1.2695,-1.2468,0.0,0.0,0.0,0.0,0.0,0.0,0.0,0.0,0.0,0.0,-1.2812,-1.3055,0.0,0.0,0.0,0.0,0.0,0.0,0.0,0.0,-1.48,-1.5282,-1.5817,0.0,-1.7786,-1.6967,-1.727,-1.7497,0.0,0.0,0.0,0.0,0.0,0.0,0.0,-1.4955,-1.5322,0.0,0.0,0.0,0.0,0.0,0.0,0.0,0.0,0.0,0.0,0.0,0.0,0.0,0.0,0.0,0.0,0.0,-2.5594,-2.5441,-2.5395,-2.534,-2.5221,-2.5026,-2.4757,-2.4487,-2.4432,-2.4264,-2.4033,-2.3697,0.0,0.0,0.0,0.0,-2.3183,-2.3183,-2.3183,-2.3183,-2.3183,-2.3183,-2.3183,-2.3183,-2.3183,-2.3183,0.0,0.0,0.0,0.0,0.0,0.0,0.0,0.0,0.0,0.0,0.0,0.0,0.0,0.0,0.0,0.0,0.0,0.0,0.0,0.0,0.0,0.0,0.0,0.0,-0.8394,-0.9308,-0.9895,-1.0084,-1.1217,-1.1994,-1.2363,-1.284,-1.3068,-1.306,-1.2823,-1.2468,0.0,0.0,0.0,0.0,-1.2088,0.0,0.0,0.0,0.0,0.0,-1.2482,-1.2785,0.0,-1.3195,-1.342,-1.3597,0.0,0.0,0.0,0.0,-1.4194,-1.4476,-1.4551,-1.5521,-1.6431,-1.5983,-1.6245,-1.6415,-1.5647,0.0,0.0,0.0,0.0,0.0,0.0,0.0,0.0,0.0,0.0,0.0,0.0,0.0,0.0,0.0,0.0,0.0,0.0,0.0,0.0,0.0,0.0,0.0,0.0,0.0,-2.4818,-2.4698,-2.459,-2.4654,-2.5017,-2.4757,-2.4543,-2.4376,-2.4097,-2.3865,-2.3697,-2.3416,0.0,0.0,0.0,0.0,-2.3014,-2.3014,-2.2909,-2.2796,-2.2796,-2.2732,-2.2562,-2.2562,-2.2562,-2.2562,0.0,0.0,0.0,0.0,0.0,0.0,0.0,0.0,0.0,0.0,0.0,0.0,0.0,0.0,0.0,0.0,0.0,0.0,0.0,0.0,0.0,0.0,0.0,-0.8175,-0.8494,-0.9354,-1.0019,-1.0506,-1.1455,-1.2286,-1.3038,-1.3362,-1.3442,-1.3375,-1.2968,-1.2558,0.0,0.0,0.0,0.0,-1.2014,0.0,0.0,0.0,0.0,0.0,0.0,0.0,0.0,-1.3138,-1.343,-1.3597,-1.3597,0.0,0.0,0.0,0.0,0.0,-1.3858,-1.4524,-1.5252,-1.5465,-1.5643,-1.5702,-1.5287,0.0,0.0,0.0,0.0,0.0,0.0,0.0,0.0,0.0,0.0,0.0,0.0,0.0,0.0,0.0,0.0,0.0,0.0,0.0,0.0,0.0,0.0,0.0,0.0,0.0,0.0,-2.4035,-2.3771,-2.3928,-2.4578,-2.4374,-2.4233,-2.4236,-2.3671,-2.3416,-2.3416,-2.3135,-2.2958,0.0,0.0,0.0,-2.2845,-2.2845,-2.274,-2.2513,-2.2513,-2.2343,-2.2116,-2.2116,-2.2116,-2.2116,0.0,0.0,0.0,0.0,0.0,0.0,0.0,0.0,0.0,0.0,0.0,0.0,0.0,0.0,0.0,0.0,0.0,0.0,0.0,0.0,0.0,0.0,-0.7814,-0.8432,-0.8982,-0.953,-1.0191,-1.099,-1.189,-1.2591,-1.3191,-1.3673,-1.3711,-1.3296,-1.3232,-1.2861,-1.2274,-1.2421,-1.2106,-1.1468,-1.1626,0.0,0.0,0.0,0.0,0.0,0.0,0.0,0.0,-1.2838,-1.3207,-1.3597,-1.3597,0.0,0.0,0.0,0.0,0.0,-1.4082,-1.426,-1.4488,-1.4909,-1.5394,-1.5789,-1.5713,-1.5756,0.0,0.0,0.0,0.0,0.0,0.0,0.0,0.0,0.0,0.0,0.0,0.0,0.0,0.0,0.0,0.0,0.0,0.0,0.0,0.0,0.0,0.0,0.0,0.0,0.0,-2.3762,-2.3506,-2.3406,-2.3524,-2.3471,-2.3461,-2.3442,-2.3168,-2.2998,-2.307,-2.3014,-2.2901,0.0,0.0,-2.2513,-2.223,-2.223,-2.2222,-2.2173,-2.2173,-2.2173,-2.2116,-2.2116,-2.2116,-2.2116,0.0,0.0,0.0,0.0,0.0,0.0,0.0,0.0,0.0,0.0,0.0,0.0,0.0,0.0,0.0,0.0,0.0,0.0,0.0,0.0,0.0,-0.7088,-0.787,-0.8561,-0.9085,-0.9563,-1.0324,-1.1411,-1.2078,-1.2782,-1.3517,-1.3969,-1.3863,-1.3296,-1.3296,-1.2925,-1.2289,-1.2162,-1.1835,-1.1397,0.0,0.0,0.0,0.0,0.0,0.0,0.0,0.0,0.0,0.0,-1.2853,-1.3225,-1.3225,0.0,0.0,0.0,0.0,0.0,-1.4152,-1.4246,-1.4477,-1.5213,-1.539,-1.5549,-1.6062,-1.6389,0.0,0.0,0.0,0.0,0.0,0.0,0.0,0.0,0.0,0.0,0.0,0.0,0.0,0.0,0.0,0.0,0.0,0.0,0.0,0.0,0.0,0.0,0.0,0.0,0.0,0.0,-2.2747,-2.2584,-2.2436,-2.2281,-2.2404,-2.2784,-2.2521,-2.2433,-2.2449,-2.2449,-2.2383,-2.2343,0.0,-2.223,-2.2116,-2.2116,-2.2002,-2.1888,-2.1888,-2.1774,-2.1603,-2.1603,-2.1603,-2.1603,0.0,0.0,0.0,0.0,0.0,0.0,0.0,0.0,0.0,0.0,0.0,0.0,0.0,0.0,0.0,0.0,0.0,0.0,0.0,0.0,-0.7021,-0.7106,-0.7843,-0.8575,-0.9251,-0.9604,-1.0464,-1.1852,-1.2261,-1.2954,-1.392,-1.4109,-1.3868,-1.3286,-1.3186,-1.285,-1.2329,-1.2058,-1.175,-1.1421,0.0,0.0,0.0,0.0,0.0,0.0,0.0,0.0,0.0,0.0,0.0,0.0,0.0,0.0,0.0,-1.3485,-1.3695,-1.392,-1.4048,-1.4326,-1.4755,-1.5593,0.0,-1.5684,-1.6618,-1.7228,0.0,0.0,0.0,0.0,0.0,0.0,0.0,0.0,0.0,0.0,0.0,0.0,0.0,0.0,0.0,0.0,0.0,0.0,0.0,0.0,0.0,0.0,0.0,0.0,0.0,0.0,-2.1928,-2.1827,-2.1623,-2.1275,-2.1486,-2.2265,-2.1937,-2.1805,-2.1923,-2.1806,-2.1794,-2.1759,-2.1759,-2.1711,-2.1654,-2.1654,-2.1485,-2.1267,-2.1348,-2.1202,-2.0974,-2.0974,-2.0974,-2.0967,0.0,0.0,0.0,0.0,0.0,0.0,0.0,0.0,0.0,0.0,0.0,0.0,0.0,0.0,0.0,0.0,0.0,0.0,0.0,0.0,-0.6775,-0.708,-0.7569,-0.8443,-0.9732,-0.9781,-1.0638,-1.2355,-1.2519,-1.3153,-1.4258,-1.4025,-1.3699,-1.3277,-1.2909,-1.2658,-1.2471,-1.2452,-1.2124,-1.1584,-1.1555,0.0,0.0,0.0,0.0,0.0,0.0,0.0,0.0,0.0,0.0,0.0,0.0,0.0,-1.2519,-1.2658,-1.3086,-1.3573,-1.3695,-1.4384,-1.5181,-1.568,-1.6105,-1.665,-1.7671,-1.8102,0.0,-1.8899,0.0,0.0,0.0,0.0,0.0,0.0,0.0,0.0,0.0,0.0,0.0,0.0,0.0,0.0,0.0,0.0,0.0,0.0,0.0,0.0,0.0,0.0,0.0,0.0,0.0,-2.1377,-2.1326,-2.0822,-2.102,-2.1917,-2.1368,-2.1283,-2.1627,-2.1302,-2.1046,-2.0803,-2.0803,-2.0632,-2.0358,-2.0358,-2.0186,-1.9988,-2.0249,-2.038,-2.0385,-2.0385,-2.0385,-2.0343,0.0,0.0,0.0,0.0,0.0,0.0,0.0,0.0,0.0,0.0,0.0,0.0,0.0,0.0,0.0,0.0,0.0,0.0,0.0,0.0,-0.6752,-0.709,-0.7631,-0.8403,-0.9479,-0.9697,-1.0538,-1.2028,-1.2497,-1.299,-1.3481,-1.3533,-1.3296,-1.2919,-1.2867,-1.2707,-1.2486,-1.2277,-1.1958,-1.1577,-1.1281,-1.0831,0.0,0.0,0.0,0.0,0.0,0.0,0.0,0.0,-1.1488,-1.1851,-1.1851,-1.21,-1.2425,-1.2552,-1.3033,-1.353,-1.3674,-1.4384,-1.529,-1.604,-1.6825,0.0,0.0,-1.9068,-1.9469,-2.014,-2.0213,0.0,0.0,0.0,0.0,0.0,0.0,0.0,0.0,0.0,0.0,0.0,0.0,0.0,0.0,0.0,0.0,0.0,0.0,0.0,0.0,0.0,0.0,0.0,0.0,-2.0968,-2.0822,-2.0454,-2.0413,-2.0804,-2.0529,-2.0557,-2.0735,-2.0574,-2.0472,-2.0401,-2.0401,-2.023,-1.995,-1.995,-1.9785,-1.958,-1.9708,-1.9717,-1.9759,-1.9759,-1.9759,-1.9738,0.0,0.0,0.0,0.0,0.0,0.0,0.0,0.0,0.0,0.0,0.0,0.0,0.0,0.0,0.0,0.0,0.0,0.0,0.0,-0.6186,-0.6566,-0.6937,-0.7491,-0.8187,-0.9089,-0.9457,-1.0295,-1.1635,-1.242,-1.2885,-1.3086,-1.3095,-1.2964,-1.2715,-1.2714,-1.2635,-1.2486,-1.2297,-1.1975,-1.1577,-1.1252,-1.0781,0.0,0.0,0.0,0.0,0.0,0.0,0.0,0.0,-1.1116,-1.1384,-1.1434,-1.1703,-1.2056,-1.219,-1.2732,-1.3336,-1.3412,-1.435,-1.5506,-1.6249,0.0,0.0,-1.9468,-1.9835,-2.0215,-2.1172,-2.1434,0.0,0.0,0.0,0.0,0.0,0.0,0.0,0.0,0.0,0.0,0.0,0.0,0.0,0.0,0.0,0.0,0.0,0.0,0.0,0.0,0.0,0.0,0.0,0.0,0.0,-2.0359,-2.0086,-1.9983,-1.9983,-1.9776,-1.9851,-2.0016,-1.9963,-1.9885,-1.9776,-1.9776,-1.9607,-1.9377,-1.9377,-1.9271,-1.9104,-1.8995,-1.8995,-1.914,-1.914,-1.914,-1.9126,0.0,0.0,0.0,0.0,0.0,0.0,0.0,0.0,0.0,0.0,0.0,0.0,0.0,0.0,0.0,0.0,0.0,0.0,-0.5796,-0.5936,-0.6181,-0.6583,-0.7056,-0.7738,-0.8679,-0.9089,-0.9956,-1.1293,-1.2298,-1.2959,-1.3268,-1.2882,-1.2689,-1.2687,-1.2435,-1.2372,-1.2505,-1.2652,-1.227,-1.1606,-1.1596,-1.1066,-1.0322,0.0,0.0,0.0,0.0,0.0,0.0,0.0,-1.091,-1.093,-1.1063,0.0,-1.1233,-1.1365,-1.2101,-1.2889,-1.2889,-1.4328,-1.5879,0.0,0.0,0.0,-2.0105,-2.0294,-2.0663,-2.1865,0.0,0.0,0.0,0.0,0.0,0.0,0.0,0.0,0.0,0.0,0.0,0.0,0.0,0.0,0.0,0.0,0.0,0.0,0.0,0.0,0.0,0.0,0.0,0.0,0.0,0.0,-2.0078,-1.9828,-1.9672,-1.9672,-1.9116,-1.9168,-1.968,-1.9428,-1.913,-1.8921,-1.8921,-1.8705,-1.8422,-1.837,-1.8453,-1.8468,-1.8151,-1.8223,-1.8484,-1.8484,-1.8484,-1.8437,0.0,0.0,0.0,0.0,0.0,0.0,0.0,0.0,0.0,0.0,0.0,0.0,0.0,0.0,0.0,0.0,0.0,0.0,-0.5796,-0.5936,-0.6181,-0.6583,-0.692,-0.748,-0.8323,-0.9106,-0.9867,-1.0588,-1.127,-1.169,-1.1898,-1.2152,-1.2275,-1.2266,-1.228,-1.2372,-1.2486,-1.2278,-1.1975,-1.1577,-1.1252,-1.0812,-1.038,0.0,0.0,0.0,0.0,0.0,0.0,0.0,0.0,0.0,-1.1092,0.0,-1.1346,-1.1394,-1.2101,-1.2889,-1.2889,-1.4258,0.0,-1.6606,0.0,0.0,0.0,-2.1092,0.0,0.0,0.0,0.0,0.0,0.0,0.0,0.0,0.0,0.0,0.0,0.0,0.0,0.0,0.0,0.0,0.0,0.0,0.0,0.0,0.0,0.0,0.0,0.0,0.0,0.0,0.0,0.0,-1.9828,-1.9148,-1.8789,-1.8782,-1.8253,-1.8381,-1.9123,-1.8795,-1.8639,-1.8534,-1.8534,-1.8384,-1.8115,-1.7898,-1.7847,-1.7875,-1.7775,-1.7776,-1.7849,-1.7849,-1.7849,-1.7842,0.0,0.0,0.0,0.0,0.0,0.0,0.0,0.0,0.0,0.0,0.0,0.0,0.0,0.0,0.0,0.0,0.0,0.0,0.0,0.0,-0.6105,-0.6343,-0.672,-0.7334,-0.8174,-0.8966,-0.9499,-0.9779,-1.0505,-1.1012,-1.13,-1.1689,-1.1954,-1.2101,-1.2249,-1.2263,-1.2215,-1.2053,-1.173,-1.1301,-1.1016,-1.0695,-1.0418,0.0,0.0,0.0,0.0,0.0,0.0,0.0,0.0,0.0,-1.0872,0.0,-1.1402,-1.1421,-1.214,-1.2954,-1.3161,-1.4387,0.0,0.0,0.0,0.0,0.0,0.0,0.0,0.0,0.0,0.0,0.0,0.0,0.0,0.0,0.0,0.0,0.0,0.0,0.0,0.0,0.0,0.0,0.0,0.0,0.0,0.0,0.0,0.0,0.0,0.0,0.0,0.0,0.0,0.0,-1.9184,-1.8513,-1.816,-1.8102,-1.761,-1.7665,-1.8182,-1.8117,-1.8014,-1.7867,-1.7933,-1.7832,-1.7689,-1.764,-1.7529,-1.743,-1.743,-1.7378,-1.7265,-1.7265,-1.7265,-1.7193,0.0,0.0,0.0,0.0,0.0,0.0,0.0,0.0,0.0,0.0,0.0,0.0,0.0,0.0,0.0,0.0,0.0,0.0,0.0,0.0,-0.599,-0.599,-0.6528,-0.7232,-0.8086,-0.8661,-0.8944,-0.8944,-0.9956,-1.0695,-1.1237,-1.14,-1.17,-1.2101,-1.2224,-1.2098,-1.1799,-1.1877,-1.1525,-1.0908,-1.0869,-1.0675,-1.0418,-1.0494,0.0,0.0,0.0,0.0,0.0,0.0,0.0,0.0,-1.0499,-1.092,-1.1356,-1.142,-1.2136,-1.3019,-1.3477,0.0,0.0,0.0,0.0,0.0,0.0,0.0,0.0,0.0,0.0,0.0,0.0,0.0,0.0,0.0,0.0,0.0,0.0,0.0,0.0,0.0,0.0,0.0,0.0,0.0,0.0,0.0,0.0,0.0,0.0,0.0,0.0,0.0,0.0,0.0,-1.8354,-1.7989,-1.7676,0.0,-1.7145,-1.6989,-1.6989,-1.7342,-1.732,-1.7034,-1.7045,-1.7114,-1.7128,-1.7343,-1.7298,-1.7101,-1.7101,-1.6877,-1.6654,-1.6654,-1.6654,-1.6622,0.0,0.0,0.0,0.0,0.0,0.0,0.0,0.0,0.0,0.0,0.0,0.0,0.0,0.0,0.0,0.0,0.0,0.0,0.0,0.0,-0.599,-0.599,-0.6674,-0.7132,-0.734,-0.8173,-0.8609,-0.8609,-0.9511,-1.0197,-1.0677,-1.1115,-1.1595,-1.2101,-1.2126,-1.2026,-1.178,-1.1482,-1.119,-1.0879,-1.0547,-1.041,-1.036,-1.0153,-1.0074,0.0,0.0,0.0,0.0,0.0,0.0,0.0,-1.0029,-1.0448,-1.0937,-1.0954,-1.1875,-1.2922,0.0,-1.4191,0.0,0.0,0.0,0.0,0.0,0.0,0.0,0.0,0.0,0.0,0.0,0.0,0.0,0.0,0.0,0.0,0.0,0.0,0.0,0.0,0.0,0.0,0.0,0.0,0.0,0.0,0.0,0.0,0.0,0.0,0.0,0.0,0.0,-1.8117,-1.8024,-1.7316,-1.6918,0.0,-1.6332,-1.6019,-1.5888,-1.6549,-1.6764,-1.6476,-1.6333,-1.6258,-1.6265,-1.6323,-1.6298,-1.6247,-1.6247,-1.6196,-1.6145,-1.6145,-1.6145,-1.6081,0.0,0.0,0.0,0.0,0.0,0.0,0.0,0.0,0.0,0.0,0.0,0.0,0.0,0.0,0.0,0.0,0.0,0.0,0.0,0.0,0.0,-0.6137,-0.6763,-0.7099,-0.7099,-0.7833,-0.8308,-0.8507,-0.8963,-0.9619,-1.0507,-1.0849,-1.1413,-1.2101,-1.2101,-1.1842,-1.1406,-1.1267,-1.0934,-1.0506,-1.0351,-1.0214,-1.011,-0.9944,-0.9709,-0.9399,-0.9256,0.0,0.0,0.0,0.0,0.0,0.0,0.0,-1.0513,-1.0725,-1.1471,-1.2367,0.0,0.0,0.0,0.0,0.0,0.0,0.0,0.0,0.0,0.0,0.0,0.0,0.0,0.0,0.0,0.0,0.0,0.0,0.0,0.0,0.0,0.0,0.0,0.0,0.0,0.0,0.0,0.0,0.0,0.0,0.0,0.0,0.0,0.0,-1.7963,-1.7548,-1.7352,-1.676,-1.6409,-1.6258,-1.5858,-1.5547,-1.5322,-1.5716,-1.5859,-1.5725,-1.5754,-1.5769,-1.5775,-1.5909,-1.5916,-1.5758,-1.5758,-1.5657,-1.5563,-1.5563,-1.5512,-1.5336,0.0,0.0,0.0,0.0,0.0,0.0,0.0,0.0,0.0,0.0,0.0,0.0,0.0,0.0,0.0,0.0,0.0,0.0,0.0,0.0,0.0,-0.6268,-0.673,-0.6975,-0.6975,-0.7501,-0.798,-0.8367,-0.8454,-0.9174,-1.0476,-1.0611,-1.1172,-1.2076,-1.2076,-1.1698,-1.1018,-1.1129,-1.0747,-1.0108,-1.0225,-1.0106,-0.9893,-0.9894,-0.9423,-0.8786,-0.8854,-0.8565,-0.8197,-0.8276,0.0,0.0,0.0,0.0,-1.0015,-1.0402,-1.0991,-1.1727,0.0,0.0,0.0,0.0,0.0,0.0,0.0,0.0,0.0,0.0,0.0,0.0,0.0,0.0,0.0,0.0,0.0,0.0,0.0,0.0,0.0,0.0,0.0,0.0,0.0,0.0,0.0,0.0,0.0,0.0,0.0,0.0,-1.8341,-1.8081,-1.7543,-1.7077,-1.6601,-1.63,-1.5981,-1.5737,-1.5493,-1.5261,-1.5035,-1.4987,-1.4987,-1.5048,-1.5221,-1.5273,-1.5292,-1.5575,-1.5513,-1.5207,-1.5207,-1.5062,-1.4817,-1.4817,-1.4666,-1.448,0.0,0.0,0.0,0.0,0.0,0.0,0.0,0.0,0.0,0.0,0.0,0.0,0.0,0.0,0.0,0.0,0.0,0.0,-0.5692,0.0,0.0,-0.6207,-0.6393,-0.6486,-0.6486,-0.7015,-0.7484,-0.7891,-0.8306,0.0,0.0,0.0,-1.1032,-1.1927,-1.2051,-1.1698,-1.0995,-1.1018,-1.0674,-1.0098,-1.0118,-1.0167,-1.0195,-0.9933,-0.9484,-0.9024,-0.8799,-0.846,-0.8125,-0.8262,-0.8347,0.0,0.0,0.0,-0.9329,-0.9394,-1.0406,-1.151,0.0,0.0,0.0,0.0,0.0,0.0,0.0,0.0,0.0,0.0,0.0,0.0,0.0,0.0,0.0,0.0,0.0,0.0,0.0,0.0,0.0,0.0,0.0,0.0,0.0,0.0,0.0,0.0,0.0,0.0,0.0,-1.7976,-1.7623,-1.7196,-1.6862,-1.6557,-1.6286,-1.5994,-1.5737,-1.554,-1.5022,-1.4783,-1.4742,-1.4496,-1.4544,-1.4742,-1.4533,-1.4449,-1.4449,-1.4485,-1.4364,-1.4128,-1.4128,-1.3934,-1.3685,-1.3685,-1.3691,-1.3685,0.0,0.0,0.0,0.0,0.0,0.0,0.0,0.0,0.0,0.0,0.0,0.0,0.0,0.0,0.0,-0.5347,-0.541,-0.5536,-0.574,-0.5881,-0.6029,-0.6191,-0.6299,-0.636,-0.6398,-0.6662,-0.6998,-0.7408,0.0,0.0,0.0,-1.0214,-1.0939,0.0,0.0,-1.1779,-1.1274,-1.1088,-1.073,-1.0252,-1.0155,-1.0002,-0.9846,-0.9817,-0.9506,-0.9083,-0.9004,-0.8872,-0.8733,-0.8874,-0.8761,-0.8594,-0.8698,0.0,0.0,0.0,-0.9691,0.0,-1.1299,0.0,0.0,0.0,0.0,0.0,0.0,0.0,0.0,0.0,0.0,0.0,0.0,0.0,0.0,0.0,0.0,0.0,0.0,0.0,0.0,0.0,0.0,0.0,0.0,0.0,0.0,0.0,0.0,0.0,-1.7835,-1.7437,-1.7111,-1.6777,-1.6501,-1.6265,-1.5981,-1.5879,-1.5642,-1.5267,-1.4879,-1.464,-1.4496,-1.4346,-1.4346,-1.4442,-1.4208,-1.407,-1.4064,-1.3919,-1.3775,-1.369,-1.369,-1.3588,-1.3491,-1.3491,-1.3394,-1.3298,0.0,0.0,0.0,0.0,0.0,0.0,0.0,0.0,0.0,0.0,0.0,0.0,0.0,0.0,0.0,0.0,-0.537,-0.5512,-0.5756,-0.5834,-0.5951,-0.6114,-0.6215,-0.6299,-0.6345,-0.6429,-0.6663,-0.7074,0.0,0.0,-0.9355,-0.999,-1.0778,0.0,-1.1931,-1.1832,0.0,0.0,0.0,-1.0391,-1.0245,-1.004,-0.9858,-1.0117,-0.9938,-0.9562,-0.9635,-0.9532,-0.936,-0.949,-0.927,-0.8952,-0.8932,-0.8757,0.0,0.0,0.0,0.0,0.0,0.0,0.0,0.0,0.0,0.0,0.0,0.0,0.0,0.0,0.0,0.0,0.0,0.0,0.0,0.0,0.0,0.0,0.0,0.0,0.0,0.0,0.0,0.0,0.0,0.0,0.0,0.0,0.0,0.0,-1.7401,-1.6959,-1.6569,-1.639,-1.6208,-1.5967,-1.5718,-1.5656,-1.5458,-1.5083,-1.4742,-1.449,-1.4298,-1.4298,-1.425,-1.4208,-1.3979,-1.3883,-1.3786,-1.3588,-1.3443,-1.3394,-1.3346,-1.3298,-1.3201,-1.3152,-1.3001,-1.2807,0.0,0.0,0.0,0.0,0.0,0.0,0.0,0.0,0.0,0.0,0.0,0.0,-0.5293,-0.5293,-0.5293,-0.5293,-0.537,-0.548,-0.5692,-0.5772,-0.5834,-0.592,-0.6098,0.0,-0.6207,-0.6337,-0.66,0.0,0.0,0.0,-0.8942,-0.9812,-1.0461,-1.0987,-1.1608,-1.1759,-1.1462,0.0,0.0,0.0,0.0,-1.0518,-1.0784,-1.1156,0.0,0.0,0.0,0.0,-0.979,-0.9846,-0.9644,-0.9301,-0.8847,-0.8834,-0.8898,0.0,0.0,0.0,0.0,0.0,0.0,0.0,0.0,0.0,0.0,0.0,0.0,0.0,0.0,0.0,0.0,0.0,0.0,0.0,0.0,0.0,0.0,0.0,0.0,0.0,0.0,0.0,0.0,0.0,0.0,0.0,0.0,0.0,-1.6853,-1.6322,-1.5967,-1.5758,-1.578,-1.5701,-1.5418,-1.5233,-1.5131,-1.5083,-1.4592,-1.4298,-1.4298,-1.4298,-1.416,-1.3931,-1.3931,-1.3738,-1.3539,-1.3491,-1.3346,-1.3098,-1.2905,-1.2667,-1.2419,-1.2175,-1.2078,-1.2073,0.0,0.0,0.0,0.0,0.0,0.0,0.0,0.0,0.0,0.0,0.0,0.0,0.0,-0.5293,-0.5293,-0.5293,-0.537,-0.5433,-0.5503,-0.5568,-0.5686,-0.5834,-0.5897,-0.599,-0.6067,-0.6114,-0.6207,0.0,0.0,-0.7492,-0.8264,-0.8931,-0.9665,-1.0502,-1.1394,-1.1771,-1.174,-1.134,0.0,0.0,0.0,0.0,0.0,0.0,0.0,0.0,0.0,0.0,0.0,-1.1458,-1.0855,-1.0046,-1.0003,-0.944,-0.8761,-0.8488,0.0,0.0,0.0,0.0,0.0,0.0,0.0,0.0,0.0,0.0,0.0,0.0,0.0,0.0,0.0,0.0,0.0,0.0,0.0,0.0,0.0,0.0,0.0,0.0,0.0,0.0,0.0,0.0,0.0,0.0,0.0,0.0,-1.6406,-1.5806,-1.5549,-1.5702,-1.5424,-1.526,-1.5117,-1.4708,-1.453,-1.453,-1.42,-1.4045,-1.4051,-1.422,-1.4064,-1.3636,-1.3636,-1.3491,-1.3249,-1.3104,-1.2817,-1.2443,-1.2395,-1.211,-1.1759,-1.1813,-1.1821,-1.1841,0.0,0.0,0.0,0.0,0.0,0.0,0.0,0.0,0.0,0.0,0.0,0.0,0.0,0.0,-0.5246,-0.5198,-0.5236,-0.53,-0.537,-0.5404,-0.5507,-0.5686,-0.5733,-0.5811,-0.5936,-0.5951,-0.5982,0.0,0.0,0.0,0.0,-0.8143,-0.8894,-0.9729,-1.0591,-1.1131,0.0,0.0,0.0,-1.1232,0.0,0.0,-1.2077,0.0,0.0,0.0,0.0,0.0,0.0,0.0,0.0,0.0,0.0,0.0,0.0,0.0,0.0,0.0,-0.9037,0.0,0.0,0.0,0.0,0.0,0.0,0.0,0.0,0.0,0.0,0.0,0.0,0.0,0.0,0.0,0.0,0.0,0.0,0.0,0.0,0.0,0.0,0.0,0.0,0.0,0.0,0.0,0.0,0.0,-1.585,-1.5305,-1.5102,-1.5283,-1.4987,-1.4908,-1.5008,-1.445,-1.4218,-1.4224,-1.3918,-1.3821,-1.3912,-1.4087,-1.3933,-1.3491,-1.3491,-1.3298,-1.2996,-1.2678,-1.2363,-1.2083,-1.1812,-1.1543,-1.1292,-1.1382,-1.1419,-1.1449,0.0,0.0,0.0,0.0,0.0,0.0,0.0,0.0,0.0,-0.532,0.0,0.0,0.0,0.0,0.0,-0.502,-0.5004,-0.51,-0.5284,-0.5293,-0.5356,-0.5491,-0.5615,-0.5716,-0.5796,-0.585,-0.5928,0.0,0.0,0.0,0.0,0.0,-0.8156,-0.8687,-0.922,-0.9809,-1.0454,0.0,-1.0709,-1.0813,0.0,-1.2194,-1.2454,0.0,0.0,0.0,-1.4119,-1.3909,0.0,0.0,0.0,0.0,0.0,0.0,0.0,0.0,0.0,0.0,0.0,0.0,0.0,0.0,0.0,0.0,0.0,0.0,0.0,0.0,0.0,0.0,0.0,0.0,0.0,0.0,0.0,0.0,0.0,0.0,0.0,0.0,0.0,0.0,0.0,0.0,0.0,0.0,0.0,-1.5519,-1.5131,-1.4824,-1.462,-1.4496,-1.4502,-1.4643,-1.4981,-1.4469,-1.4193,-1.4148,-1.3716,-1.364,-1.3894,-1.3906,-1.3767,-1.3491,-1.3491,-1.3249,-1.2743,-1.2273,-1.2083,-1.2005,-1.1301,-1.0976,-1.0954,-1.0901,-1.0886,-1.0915,0.0,0.0,0.0,0.0,0.0,0.0,0.0,0.0,-0.5912,0.0,0.0,0.0,-0.5657,-0.5633,-0.5538,-0.5307,-0.5289,-0.524,-0.5084,-0.5087,-0.5166,-0.534,-0.5395,-0.5474,-0.5585,-0.5608,-0.5624,0.0,0.0,0.0,0.0,0.0,0.0,0.0,-0.8007,-0.8408,-0.8973,-0.9983,0.0,0.0,-1.1719,-1.2434,0.0,0.0,0.0,0.0,0.0,-1.5514,0.0,0.0,-1.404,-1.2871,0.0,0.0,0.0,0.0,0.0,0.0,-0.8532,0.0,0.0,0.0,0.0,0.0,0.0,0.0,0.0,0.0,0.0,0.0,0.0,0.0,0.0,0.0,0.0,0.0,0.0,0.0,0.0,0.0,0.0,0.0,0.0,0.0,0.0,0.0,-1.5551,-1.5331,-1.5117,-1.4699,-1.4397,-1.4202,-1.4208,-1.4249,-1.4329,-1.4015,-1.3756,-1.3627,-1.3523,-1.3542,-1.3628,-1.3815,-1.3767,-1.3491,-1.3491,-1.3249,-1.2743,-1.2273,-1.189,-1.1528,-1.0985,-1.0577,-1.0302,-1.0578,-1.0664,-1.0712,0.0,0.0,0.0,0.0,0.0,0.0,0.0,0.0,-0.6005,0.0,0.0,0.0,-0.5764,-0.5745,-0.5658,-0.5503,-0.5384,-0.5271,-0.5131,-0.5022,-0.5023,-0.5166,-0.5166,-0.523,-0.5327,-0.5381,-0.5428,0.0,0.0,0.0,0.0,0.0,0.0,0.0,0.0,0.0,0.0,0.0,0.0,0.0,-1.1798,0.0,0.0,-1.4545,-1.5156,0.0,0.0,0.0,-1.589,-1.5359,-1.4279,0.0,0.0,0.0,0.0,0.0,0.0,0.0,0.0,0.0,0.0,0.0,0.0,0.0,0.0,-1.1512,0.0,0.0,0.0,0.0,0.0,0.0,0.0,0.0,0.0,0.0,0.0,0.0,0.0,0.0,0.0,0.0,0.0,0.0,0.0,0.0,-1.5053,-1.4794,-1.4662,-1.4427,-1.4201,-1.4088,-1.4088,-1.4088,-1.4088,-1.3737,-1.3525,-1.3398,-1.3256,-1.3217,-1.3357,-1.3507,-1.3461,-1.3326,-1.3326,-1.3149,-1.2743,-1.2178,-1.1708,-1.1344,-1.0858,-1.0452,-1.018,-1.0597,-1.066,-1.0566,0.0,0.0,0.0,0.0,0.0,0.0,0.0,0.0,0.0,0.0,-0.5939,-0.5926,-0.5881,-0.5817,-0.5754,-0.5693,-0.5474,-0.5322,-0.5289,-0.5059,-0.4953,-0.4992,-0.4992,-0.5017,-0.5084,-0.5207,-0.5309,0.0,0.0,0.0,0.0,0.0,0.0,0.0,0.0,0.0,0.0,0.0,0.0,-1.0391,-1.1831,-1.2662,0.0,0.0,-1.5321,0.0,-1.6074,-1.6307,-1.6166,-1.5291,-1.4032,0.0,0.0,0.0,0.0,0.0,-1.0056,0.0,0.0,0.0,0.0,0.0,0.0,0.0,-1.0752,-1.0693,0.0,0.0,0.0,0.0,0.0,0.0,0.0,0.0,0.0,0.0,0.0,0.0,0.0,0.0,0.0,0.0,0.0,0.0,-1.4973,-1.505,-1.4474,-1.4108,-1.3966,-1.3992,-1.3999,-1.3999,-1.4026,-1.3997,-1.3997,-1.361,-1.3392,-1.3349,-1.2918,-1.285,-1.3083,-1.3083,-1.3072,-1.3059,-1.3087,-1.2945,-1.2662,-1.2002,-1.1603,-1.1395,-1.0815,-1.0466,-1.0312,-1.0702,-1.0705,-1.0494,-0.5918,0.0,0.0,0.0,0.0,0.0,0.0,0.0,-0.6557,-0.6678,-0.6818,-0.6936,-0.6913,-0.689,-0.6714,-0.6274,-0.6189,-0.59,-0.5267,-0.517,-0.5075,-0.4928,-0.4922,-0.4953,-0.5017,-0.5039,-0.5119,0.0,0.0,0.0,0.0,0.0,0.0,0.0,0.0,0.0,0.0,0.0,0.0,-1.0154,-1.1242,0.0,-1.3267,-1.4869,-1.5538,-1.5735,-1.6673,-1.7002,-1.6857,0.0,-1.5018,-1.4232,0.0,0.0,0.0,0.0,0.0,0.0,0.0,0.0,0.0,0.0,0.0,0.0,-1.0283,-1.0431,0.0,0.0,0.0,0.0,0.0,0.0,0.0,0.0,0.0,0.0,0.0,0.0,0.0,0.0,0.0,0.0,0.0,0.0,-1.4051,-1.4659,-1.4181,-1.3805,-1.3624,-1.352,-1.348,-1.348,-1.3494,-1.3525,-1.3525,-1.344,-1.3313,-1.3137,-1.3052,-1.3071,-1.3077,-1.2951,-1.2843,-1.2865,-1.2843,-1.2578,-1.2157,-1.2004,-1.1836,-1.1571,-1.0873,-1.0459,-1.0269,-1.047,-1.0419,-1.0158,-0.5991,0.0,0.0,0.0,0.0,0.0,0.0,0.0,-0.6764,-0.6849,-0.7059,-0.72,-0.72,-0.72,-0.7097,-0.6829,-0.6684,-0.638,-0.5839,-0.5605,-0.5329,-0.4973,-0.4945,-0.4901,-0.48,-0.489,-0.4985,0.0,0.0,0.0,0.0,0.0,0.0,0.0,0.0,0.0,0.0,0.0,-0.871,-1.0086,-1.109,0.0,-1.3036,-1.4826,-1.5528,-1.5734,-1.6708,-1.6908,-1.6646,-1.5886,-1.5259,0.0,0.0,-1.2963,-1.2411,0.0,-1.1504,-1.113,0.0,0.0,0.0,-1.0724,0.0,0.0,0.0,-1.0222,0.0,0.0,0.0,0.0,0.0,0.0,0.0,0.0,0.0,0.0,0.0,0.0,0.0,0.0,0.0,0.0,0.0,0.0,-1.3357,-1.3477,-1.3404,-1.331,-1.3147,-1.3134,-1.317,-1.3313,-1.3243,-1.3252,-1.3398,-1.3307,-1.3185,-1.3094,-1.2966,-1.2912,-1.2873,-1.2699,-1.2578,-1.2603,-1.2461,-1.224,-1.1994,-1.1869,-1.1722,-1.1611,-1.1115,-1.0678,-1.0382,-1.0583,-1.0418,-1.0042,-0.5997,0.0,0.0,0.0,0.0,0.0,0.0,0.0,-0.6843,-0.6994,-0.7243,-0.7424,-0.7479,-0.7485,-0.7461,-0.7412,-0.717,-0.6879,0.0,0.0,-0.5662,-0.5168,-0.5074,-0.4935,-0.4683,-0.484,-0.4907,-0.4899,0.0,0.0,0.0,0.0,0.0,0.0,0.0,0.0,0.0,0.0,0.0,-0.9994,0.0,-1.1921,-1.2804,-1.4662,-1.5398,-1.5571,-1.6503,-1.6663,-1.6358,-1.5854,0.0,-1.4796,-1.4258,-1.3474,0.0,0.0,0.0,0.0,0.0,0.0,0.0,0.0,0.0,-1.0795,0.0,0.0,0.0,0.0,0.0,0.0,0.0,0.0,0.0,0.0,0.0,0.0,0.0,0.0,0.0,0.0,0.0,0.0,0.0,0.0,-1.2811,-1.2374,-1.2578,-1.2705,-1.2671,-1.2679,-1.2778,-1.3056,-1.287,-1.2911,-1.3182,-1.302,-1.296,-1.3009,-1.279,-1.2705,-1.2705,-1.2454,-1.2313,-1.2296,-1.2032,-1.1868,-1.1817,-1.1664,-1.1566,-1.1434,-1.1228,-1.0852,-1.0491,-1.06,-1.0364,-0.992,-0.5954,-0.6019,0.0,0.0,0.0,0.0,0.0,0.0,0.0,-0.7699,-0.8018,-0.8271,0.0,0.0,0.0,0.0,0.0,0.0,-0.7145,0.0,-0.6008,-0.5726,-0.5372,-0.5099,-0.4963,-0.4975,-0.4959,-0.4899,0.0,0.0,0.0,0.0,0.0,0.0,-0.6173,0.0,0.0,0.0,-0.8824,0.0,-1.0903,-1.1886,0.0,-1.435,-1.5074,-1.5352,-1.6289,-1.6724,-1.6725,0.0,-1.5657,-1.5422,0.0,-1.4017,0.0,0.0,0.0,0.0,0.0,0.0,0.0,0.0,-1.1202,0.0,0.0,0.0,0.0,0.0,0.0,-0.9474,-0.9722,0.0,0.0,0.0,0.0,0.0,0.0,0.0,0.0,0.0,0.0,0.0,0.0,0.0,0.0,-1.2073,-1.2075,-1.211,-1.2201,-1.1964,-1.1961,-1.2234,-1.2086,-1.2136,-1.2438,-1.2402,-1.2517,-1.2747,-1.2705,-1.2705,-1.2705,-1.2246,-1.2055,-1.2008,-1.1827,-1.1507,-1.1141,-1.149,-1.1334,-1.0948,-1.0879,-1.069,-1.0382,-1.0158,-0.992,-0.9628,-0.5809,-0.5868,0.0,0.0,0.0,0.0,0.0,0.0,0.0,-0.8066,-0.8219,0.0,0.0,0.0,0.0,0.0,0.0,-0.8357,0.0,0.0,-0.6781,0.0,0.0,0.0,-0.5238,-0.5042,-0.4929,-0.4897,-0.4863,0.0,0.0,0.0,0.0,0.0,-0.6211,0.0,-0.7163,0.0,0.0,0.0,0.0,0.0,0.0,-1.3898,-1.4891,-1.5655,-1.6336,-1.6638,-1.6633,0.0,-1.5689,0.0,0.0,0.0,0.0,0.0,0.0,0.0,0.0,0.0,0.0,0.0,0.0,0.0,0.0,0.0,-1.0404,0.0,0.0,0.0,0.0,0.0,0.0,0.0,0.0,0.0,0.0,0.0,0.0,0.0,0.0,0.0,0.0,0.0,0.0,0.0,0.0,-1.1537,-1.1574,-1.1627,-1.1721,-1.1866,-1.1868,-1.1897,-1.2083,-1.224,-1.2367,-1.2481,-1.2632,-1.2619,-1.2491,-1.2166,-1.1957,-1.1791,-1.1587,-1.131,-1.1,-1.1187,-1.1061,-1.0684,-1.0459,-1.0414,-1.0364,-1.0117,-0.9821,-0.9579,-0.5701,0.0,0.0,0.0,0.0,0.0,0.0,0.0,0.0,0.0,0.0,0.0,-0.9269,-0.9384,0.0,0.0,0.0,-0.9008,0.0,0.0,-0.7457,0.0,0.0,0.0,0.0,0.0,-0.5131,-0.5081,-0.4916,0.0,0.0,0.0,0.0,0.0,0.0,-0.6603,-0.7115,0.0,0.0,-0.9369,-1.0488,-1.1432,-1.2299,-1.3667,-1.4813,-1.5776,-1.6295,-1.6508,-1.6426,-1.5833,-1.5624,0.0,-1.4732,0.0,0.0,0.0,0.0,0.0,-1.3248,0.0,0.0,0.0,0.0,0.0,0.0,0.0,0.0,0.0,0.0,0.0,0.0,0.0,-0.9124,0.0,0.0,0.0,0.0,0.0,0.0,0.0,0.0,0.0,0.0,0.0,0.0,0.0,-1.0834,0.0,-1.1134,-1.1235,-1.1407,-1.1562,-1.1583,-1.1666,-1.1772,-1.1964,-1.2131,-1.221,-1.2475,-1.2469,-1.2263,-1.2089,-1.1871,-1.1699,-1.144,-1.114,-1.0943,-1.0959,-1.081,-1.0467,-1.0162,-1.0119,-1.0294,-1.0002,-0.9776,-0.9579,-0.5701,-0.5701,0.0,0.0,0.0,0.0,0.0,0.0,0.0,0.0,0.0,0.0,0.0,0.0,0.0,0.0,0.0,-0.9499,-0.9282,0.0,-0.7894,0.0,0.0,-0.6615,0.0,0.0,-0.5712,-0.5585,-0.5128,-0.4929,0.0,0.0,0.0,0.0,0.0,-0.6225,-0.678,-0.7843,-0.8468,-0.8836,-1.0235,-1.1512,-1.27,0.0,-1.4856,-1.5556,-1.5965,0.0,0.0,-1.5611,-1.5416,0.0,0.0,0.0,0.0,0.0,0.0,0.0,0.0,0.0,0.0,-1.2706,0.0,0.0,0.0,0.0,-1.1133,0.0,0.0,0.0,0.0,-0.9589,-0.944,-0.9064,0.0,0.0,0.0,0.0,0.0,0.0,0.0,0.0,0.0,0.0,0.0,-1.0022,-1.0041,-1.0322,-1.0986,-1.0708,-1.0758,-1.128,-1.1139,-1.1187,-1.1501,-1.1513,-1.1645,-1.1938,-1.2198,-1.22,-1.2005,-1.2008,-1.1871,-1.1699,-1.144,-1.1089,-1.0715,-1.0938,-1.0721,-1.026,-0.9951,-0.9918,-1.0071,-0.971,-0.9628,-0.9579,0.0,0.0,0.0,0.0,0.0,0.0,0.0,-0.7515,0.0,0.0,0.0,0.0,0.0,0.0,-1.0165,0.0,0.0,-0.9788,-0.944,-0.9002,0.0,0.0,0.0,-0.7252,0.0,0.0,0.0,-0.5529,-0.5019,-0.4705,0.0,0.0,0.0,0.0,0.0,-0.5904,0.0,0.0,0.0,0.0,0.0,-1.1506,-1.2708,0.0,0.0,-1.484,-1.5488,-1.5887,0.0,-1.5479,-1.5254,-1.5144,-1.4389,-1.4169,-1.4142,-1.3998,-1.3962,0.0,0.0,0.0,-1.3168,-1.2625,0.0,0.0,0.0,0.0,0.0,0.0,0.0,0.0,0.0,0.0,-0.9564,-0.9406,-0.8958,0.0,0.0,0.0,0.0,0.0,0.0,0.0,0.0,0.0,0.0,-0.9603,-0.976,-0.9916,0.0,-1.046,-1.0807,-1.1026,-1.1131,-1.1253,-1.1439,-1.1476,-1.1537,-1.1627,-1.1944,-1.1981,-1.1738,-1.1796,-1.1656,-1.144,-1.1181,-1.0959,-1.0694,-1.0596,-1.0275,-0.9818,-0.9664,-0.955,-0.9503,-0.9479,-0.9522,-0.9579,-0.555,0.0,0.0,0.0,0.0,0.0,0.0,0.0,0.0,0.0,-0.9015,0.0,-1.0049,0.0,-1.0384,0.0,-1.031,-1.0129,-0.9774,-0.9454,0.0,-0.877,-0.8307,0.0,0.0,0.0,0.0,-0.5792,-0.5151,-0.4703,0.0,0.0,0.0,0.0,0.0,0.0,0.0,0.0,-0.7743,0.0,0.0,-1.1329,0.0,0.0,-1.3947,-1.4487,0.0,-1.561,-1.5913,-1.5314,-1.5083,-1.4974,-1.4228,-1.401,-1.401,-1.401,-1.401,-1.3927,-1.3679,-1.356,0.0,-1.2886,-1.2752,0.0,-1.2124,0.0,0.0,0.0,0.0,0.0,0.0,0.0,0.0,-0.9624,-0.9064,-0.8482,0.0,-0.7723,0.0,0.0,0.0,0.0,0.0,0.0,-0.91,-0.9178,-0.9272,-0.9395,0.0,0.0,-1.0492,-1.075,-1.0985,-1.1173,-1.1261,-1.132,-1.1306,-1.1274,-1.168,-1.1682,-1.1359,-1.1586,-1.1527,-1.1181,-1.1051,-1.0824,-1.0554,-1.0294,-0.9951,-0.9572,-0.9353,-0.9261,-0.9224,-0.9364,-0.9421,-0.9381,0.0,0.0,0.0,0.0,-0.636,0.0,0.0,0.0,-0.8515,0.0,-0.9389,-0.9861,-1.0064,-1.0578,-1.0868,-1.0857,-1.0673,0.0,-1.0197,-0.9828,0.0,0.0,-0.8769,-0.8446,-0.8204,0.0,0.0,0.0,0.0,0.0,-0.4456,0.0,0.0,0.0,-0.4578,0.0,-0.5722,-0.6596,-0.7314,-0.803,-0.9824,-1.0982,-1.1722,-1.2702,0.0,-1.4421,-1.4816,-1.5333,-1.5685,-1.5073,-1.487,-1.4772,-1.4166,-1.398,-1.398,-1.398,-1.398,-1.398,-1.398,-1.3685,-1.3411,-1.3385,0.0,0.0,0.0,0.0,-1.1948,0.0,0.0,0.0,0.0,0.0,0.0,-0.967,-0.9104,-0.8486,-0.7914,0.0,0.0,0.0,0.0,0.0,0.0,-0.8223,-0.8306,-0.8767,-0.8626,0.0,0.0,0.0,-0.9871,-1.047,-1.0696,-1.0855,-1.1006,-1.1052,-1.1005,-1.0842,-1.1353,-1.1324,-1.0908,-1.1435,-1.144,-1.0965,-1.0965,-1.0699,-1.025,-1.0038,-0.982,-0.9515,-0.9082,-0.8981,-0.9191,-0.9321,-0.9279,-0.9084,-0.5936,-0.6134,-0.6433,0.0,-0.6951,-0.7182,0.0,0.0,0.0,0.0,-0.9329,-0.9723,-0.9915,-1.0259,-1.0373,-1.0182,-1.0302,0.0,0.0,0.0,0.0,-0.9491,-0.923,-0.8814,-0.8214,-0.7593,0.0,-0.6066,0.0,0.0,-0.4046,0.0,0.0,0.0,0.0,0.0,-0.5168,-0.6206,-0.7573,-0.91,-0.9695,-1.0596,0.0,0.0,-1.3062,-1.3899,-1.4544,-1.5124,-1.5458,-1.4781,-1.4634,-1.4603,-1.3882,-1.3631,-1.3631,-1.3631,-1.3631,-1.3631,-1.3631,-1.3661,-1.362,-1.3339,-1.3248,-1.312,0.0,0.0,0.0,0.0,0.0,0.0,0.0,0.0,0.0,0.0,-0.9188,0.0,0.0,0.0,0.0,0.0,0.0,0.0,0.0,-0.8195,-0.8376,-0.87,-0.8731,0.0,0.0,0.0,0.0,-1.0492,-1.0497,-1.0729,-1.1215,-1.1126,-1.1101,-1.1085,-1.1249,-1.1166,-1.0896,-1.1081,-1.1046,-1.0776,-1.0391,-1.0168,-1.0038,-0.965,-0.9301,-0.9038,-0.8771,-0.8608,-0.8579,-0.8937,-0.8886,-0.8584,-0.6318,0.0,0.0,-0.7346,0.0,0.0,-0.7685,0.0,0.0,-0.9042,-0.9308,0.0,-0.9857,-1.006,-1.0112,-0.9968,-1.0008,0.0,0.0,0.0,0.0,-0.9479,-0.9264,-0.8908,-0.8285,-0.7641,0.0,-0.6136,0.0,0.0,-0.3981,0.0,0.0,0.0,0.0,-0.4224,0.0,-0.6007,-0.7579,-0.923,-0.9499,0.0,0.0,-1.2196,-1.293,-1.37,-1.434,-1.4898,-1.5273,-1.4614,-1.4469,-1.4441,-1.3728,-1.3511,-1.3511,-1.3511,-1.3511,-1.3511,-1.3511,-1.3571,-1.3618,-1.3381,-1.3388,-1.3322,-1.2874,-1.2759,-1.2659,0.0,0.0,0.0,0.0,0.0,0.0,0.0,0.0,0.0,0.0,0.0,0.0,0.0,0.0,0.0,0.0,0.0,0.0,0.0,0.0,0.0,0.0,0.0,0.0,-1.03,-1.0353,-1.0636,-1.1067,-1.0991,-1.0985,-1.1068,-1.0959,-1.0874,-1.0773,-1.085,-1.0694,-1.0381,-1.0125,-0.982,-0.9476,-0.9122,-0.8815,-0.8564,-0.8419,-0.8341,-0.8273,-0.8409,-0.8443,-0.8382,0.0,0.0,0.0,0.0,0.0,0.0,0.0,-0.8374,0.0,-0.9223,0.0,-0.9443,-0.9787,-0.99,-0.9948,-0.9917,0.0,-0.9679,-0.9649,-0.9428,-0.9284,-0.9284,-0.9092,-0.8803,-0.8422,-0.7631,0.0,0.0,0.0,0.0,0.0,0.0,0.0,0.0,0.0,0.0,0.0,-0.5938,-0.7402,0.0,-0.9259,-1.017,-1.1359,-1.2241,-1.2978,-1.3587,-1.4201,-1.4748,-1.5062,-1.4513,-1.4371,-1.4302,-1.3667,-1.348,-1.3511,-1.3511,-1.3511,-1.3511,-1.3511,-1.3511,-1.3511,-1.3511,-1.3511,-1.3425,-1.3117,-1.3078,-1.2925,-1.2414,-1.229,-1.2217,0.0,0.0,0.0,0.0,0.0,0.0,0.0,0.0,0.0,0.0,0.0,0.0,0.0,0.0,0.0,0.0,0.0,0.0,0.0,0.0,0.0,-1.0016,-1.0209,0.0,-1.0798,0.0,-1.0784,-1.0886,-1.0701,-1.0567,-1.0526,-1.0598,-1.0342,-0.9907,-0.9864,-0.9471,-0.8819,-0.8596,-0.8344,-0.8118,-0.8091,-0.8063,-0.8066,-0.7834,-0.7923,-0.8184,0.0,0.0,0.0,0.0,0.0,-0.8666,-0.8775,-0.8886,-0.8974,-0.9051,-0.9187,0.0,-0.9392,-0.9596,-0.9657,-0.9436,-0.9583,0.0,0.0,0.0,0.0,-0.9284,-0.9097,-0.882,-0.8422,-0.7786,-0.6976,0.0,0.0,0.0,0.0,0.0,0.0,0.0,0.0,0.0,-0.5325,-0.5925,0.0,-0.8504,-0.8909,-0.9863,-1.1161,-1.2032,-1.2662,-1.3229,-1.4094,-1.4649,-1.4857,-1.4127,-1.4123,-1.4277,-1.356,-1.3407,-1.3511,-1.3511,-1.3511,-1.3511,-1.3511,-1.3511,-1.3511,-1.3511,-1.3511,-1.3494,-1.3434,-1.3417,-1.3309,-1.295,-1.2852,-1.2671,-1.2105,0.0,0.0,0.0,0.0,0.0,0.0,0.0,0.0,0.0,0.0,0.0,0.0,0.0,0.0,0.0,0.0,0.0,0.0,0.0,0.0,0.0,0.0,0.0,0.0,0.0,-1.0622,-1.0895,-1.0697,-1.0445,-1.0115,-1.0111,-0.9864,-0.9388,-0.903,-0.8767,-0.864,-0.8204,-0.793,-0.7804,-0.7816,-0.7719,-0.754,-0.7359,-0.7366,-0.7388,0.0,0.0,0.0,0.0,0.0,0.0,0.0,-0.9006,0.0,-0.9151,-0.9231,-0.9294,-0.9299,-0.9302,-0.9284,-0.9146,-0.9149,-0.912,-0.898,-0.8975,-0.8975,-0.8975,-0.8899,0.0,-0.8099,-0.7644,-0.6902,-0.5902,0.0,0.0,-0.3755,0.0,0.0,0.0,0.0,-0.4445,0.0,0.0,0.0,-0.828,-0.8771,-0.98,-1.1168,-1.1689,-1.2451,-1.3315,-1.3759,-1.4094,-1.4283,-1.3927,-1.3802,-1.3768,-1.3417,-1.3333,-1.3407,-1.348,-1.3511,-1.3511,-1.3511,-1.3511,-1.3511,-1.3511,-1.3511,-1.3511,-1.3511,-1.3665,-1.3718,-1.3385,-1.3322,-1.3026,-1.2174,-1.1684,0.0,0.0,0.0,0.0,0.0,0.0,0.0,0.0,0.0,0.0,0.0,0.0,0.0,0.0,0.0,0.0,0.0,0.0,0.0,0.0,0.0,0.0,0.0,0.0,0.0,-1.0754,-1.0395,-1.0133,-0.9994,-0.9733,-0.9388,-0.8903,-0.8548,-0.8197,-0.7808,-0.7406,-0.7256,-0.7335,-0.7376,-0.7326,-0.7248,-0.7068,-0.6992,-0.6992,0.0,-0.8816,0.0,0.0,-0.9224,0.0,0.0,-0.905,-0.9087,-0.9159,-0.9123,-0.9111,-0.9101,-0.8932,-0.8794,-0.8794,-0.867,-0.8589,-0.8589,-0.8627,-0.8627,-0.8627,-0.8665,-0.8454,-0.7879,-0.7534,-0.6875,0.0,0.0,0.0,0.0,0.0,0.0,0.0,0.0,0.0,0.0,0.0,-0.7084,-0.8049,-0.8665,-0.9713,-1.0974,-1.1348,-1.2186,-1.3172,-1.336,-1.3454,-1.3531,-1.3526,-1.3437,-1.3283,-1.3205,-1.3211,-1.3272,-1.3398,-1.3459,-1.3459,-1.348,-1.3511,-1.3511,-1.3511,-1.3511,-1.3528,-1.3613,-1.3879,-1.4024,-1.3773,-1.3662,-1.3329,-1.2391,-1.2276,0.0,0.0,0.0,0.0,0.0,0.0,0.0,0.0,0.0,0.0,0.0,0.0,0.0,0.0,0.0,0.0,0.0,0.0,0.0,0.0,0.0,-0.9755,-1.0286,0.0,-1.0136,0.0,-1.0024,-0.98,-0.9825,-0.9345,-0.8903,-0.8504,-0.8109,-0.7602,-0.6977,-0.6761,-0.6776,-0.7,-0.6979,-0.7002,-0.7089,-0.6792,-0.6692,-0.6642,0.0,0.0,0.0,0.0,0.0,0.0,0.0,-0.9291,-0.9116,-0.874,-0.8573,-0.8493,-0.8475,-0.8319,-0.8178,-0.8178,-0.8178,-0.814,-0.814,-0.8327,-0.8441,-0.8441,-0.8589,-0.8487,-0.8088,-0.7744,-0.7048,0.0,0.0,0.0,0.0,0.0,0.0,0.0,0.0,0.0,0.0,-0.6209,-0.6938,-0.7717,-0.8573,-0.938,-1.0208,-1.1132,-1.1741,-1.2124,-1.2806,-1.284,-1.262,-1.2689,-1.2979,-1.3251,-1.295,-1.2928,-1.308,-1.3272,-1.3333,-1.3354,-1.348,-1.3511,-1.3511,-1.3511,-1.3511,-1.3605,-1.3956,-1.4067,-1.4092,-1.4073,-1.3801,-1.3491,-1.306,-1.2758,-1.2407,0.0,0.0,0.0,0.0,0.0,0.0,0.0,0.0,0.0,0.0,0.0,0.0,0.0,0.0,0.0,0.0,0.0,0.0,-0.8943,0.0,-0.9569,-1.0286,-0.9729,0.0,-1.0227,-0.9653,-0.934,-0.9345,-0.8859,-0.8504,-0.8201,-0.7492,-0.6994,-0.6673,-0.6765,-0.6864,-0.7009,-0.688,-0.6833,-0.6792,-0.6539,-0.6289,-0.6092,0.0,0.0,0.0,0.0,0.0,0.0,0.0,-0.9043,-0.8943,-0.8623,-0.8591,-0.8515,-0.8396,-0.8216,-0.8102,-0.8102,-0.8102,-0.8102,-0.8102,-0.8178,-0.8217,-0.8217,-0.8289,-0.8161,-0.7742,-0.7515,-0.6983,0.0,0.0,0.0,0.0,0.0,0.0,0.0,0.0,-0.5086,-0.5735,-0.645,-0.714,-0.7843,-0.8426,-0.9188,-1.0025,-1.0432,-1.0981,-1.154,-1.1957,-1.1996,-1.1947,-1.2145,-1.2424,-1.2711,-1.2692,-1.2775,-1.2897,-1.308,-1.3111,-1.3141,-1.3194,-1.3285,-1.3385,-1.3385,-1.3428,-1.3613,-1.4007,-1.4281,-1.4458,-1.4454,-1.4148,-1.3791,-1.3449,-1.3307,-1.3092,0.0,0.0,0.0,0.0,0.0,0.0,0.0,0.0,0.0,0.0,0.0,0.0,0.0,0.0,0.0,0.0,0.0,0.0,-0.8998,0.0,-0.9314,-0.9939,-0.9491,-0.9543,-1.0024,-0.9531,-0.921,-0.9043,-0.8552,-0.7981,-0.7323,-0.6745,-0.6512,-0.6479,-0.6394,-0.6486,-0.6621,-0.657,-0.6439,-0.6292,-0.6189,-0.5989,-0.5739,-0.879,0.0,-0.9087,0.0,-0.9087,-0.8999,-0.8732,-0.8688,-0.8604,-0.8432,-0.8377,-0.8357,-0.8288,-0.8103,-0.7975,-0.7915,-0.791,-0.791,-0.791,-0.7987,-0.803,-0.803,-0.8063,0.0,-0.7601,-0.7396,-0.6972,-0.6289,-0.5666,0.0,0.0,0.0,0.0,0.0,-0.5151,-0.5578,-0.6027,-0.6746,-0.7318,-0.7798,-0.8217,-0.8875,-0.9573,-0.9777,-1.0257,-1.0868,-1.1106,-1.1269,-1.1369,-1.1571,-1.1838,-1.2151,-1.2428,-1.259,-1.2674,-1.2889,-1.2928,-1.2958,-1.2989,-1.3111,-1.3211,-1.3211,-1.343,-1.3723,-1.4115,-1.4531,-1.4849,-1.4836,-1.4555,-1.4191,-1.3807,-1.3735,-1.3624,-1.329,0.0,0.0,0.0,0.0,0.0,0.0,0.0,-1.0116,-0.9863,0.0,0.0,0.0,0.0,0.0,0.0,0.0,0.0,0.0,0.0,0.0,0.0,-0.9352,-0.9426,-0.9785,-0.9327,-0.9001,-0.8775,-0.8157,-0.7452,-0.6656,-0.6169,-0.6042,-0.6175,-0.5942,-0.5983,-0.6187,-0.6187,-0.6037,-0.5889,-0.5889,-0.5687,-0.5336,-0.8608,-0.8608,-0.8612,-0.8612,-0.8612,-0.852,-0.8245,-0.8201,-0.8157,-0.794,-0.7746,-0.7701,-0.7987,-0.7898,-0.7722,-0.7535,-0.7522,-0.7522,-0.7522,-0.7684,-0.7804,0.0,0.0,-0.7991,-0.7799,-0.7464,-0.7035,-0.6512,0.0,0.0,-0.5204,0.0,-0.5126,-0.541,-0.5748,-0.6081,-0.644,-0.7121,-0.7394,-0.7445,-0.7982,-0.8339,-0.8576,-0.9236,-0.9707,-1.0053,-1.038,-1.0738,-1.0981,-1.0846,-1.1185,-1.1685,-1.2151,-1.2305,-1.2367,-1.2713,-1.2805,-1.2836,-1.2958,-1.2989,-1.2989,-1.2989,-1.3447,-1.3965,-1.4311,-1.4807,-1.5172,-1.5192,-1.5026,-1.4715,-1.4207,-1.4109,-1.3989,-1.3632,0.0,0.0,0.0,0.0,0.0,0.0,-1.0902,-1.0345,-0.993,0.0,0.0,0.0,0.0,0.0,0.0,0.0,0.0,-0.8886,-0.9157,0.0,-0.9701,-0.9382,-0.9327,-0.9586,-0.8923,-0.8623,-0.8592,-0.758,-0.6874,-0.6384,-0.5897,-0.5724,-0.5666,-0.5424,-0.5451,-0.5586,-0.5586,-0.5586,-0.5586,-0.5586,-0.5286,-0.4784,-0.812,-0.812,-0.812,-0.812,-0.812,-0.8076,-0.8028,-0.7984,-0.7984,-0.79,-0.7851,-0.7797,-0.7751,-0.7482,-0.7295,0.0,-0.7285,-0.7296,0.0,-0.7488,-0.7603,-0.7603,-0.7638,-0.7676,-0.7603,-0.7281,-0.703,-0.6832,0.0,0.0,0.0,-0.5384,-0.5535,-0.562,-0.5914,-0.6168,-0.6417,-0.6719,-0.7008,-0.727,-0.7465,-0.7787,-0.8192,-0.8396,-0.8783,-0.9213,-0.9403,-0.9689,-1.0026,-1.0359,-1.0784,-1.1309,-1.1914,-1.2146,-1.2259,-1.2688,-1.2649,-1.249,-1.2683,-1.2805,-1.2867,-1.2867,-1.3283,-1.3773,-1.4106,-1.4738,-1.5205,-1.5215,-1.5034,-1.4796,-1.449,-1.4439,-1.432,-1.4005,-1.3656,0.0,0.0,0.0,0.0,0.0,0.0,-1.0563,0.0,-0.9634,0.0,0.0,0.0,0.0,0.0,0.0,0.0,0.0,-0.9315,0.0,-0.9701,-0.9268,-0.9246,-0.9586,-0.8928,-0.8329,-0.7841,-0.7003,-0.6476,-0.6169,-0.568,-0.5593,-0.5666,-0.5424,-0.5402,-0.5586,-0.5586,-0.5386,-0.5035,-0.5035,-0.4734,-0.4234,-0.79,-0.79,-0.79,-0.79,-0.79,-0.7856,-0.7768,-0.7768,-0.7724,-0.7632,-0.7588,-0.7548,-0.7444,-0.7164,0.0,-0.7086,-0.7222,-0.7254,-0.7188,-0.7373,-0.7484,-0.7484,-0.7484,-0.7484,-0.7484,0.0,0.0,-0.6885,-0.6148,-0.568,-0.5457,-0.5767,-0.5923,-0.5989,-0.6204,-0.6392,-0.6506,-0.6598,-0.6795,-0.6999,-0.6858,-0.709,-0.7508,-0.7508,-0.7861,-0.8414,-0.8565,-0.8914,-0.9364,-0.9786,-1.0361,-1.1015,-1.1621,-1.1949,-1.222,-1.2724,-1.2708,-1.2531,-1.2633,-1.2694,-1.2745,-1.2882,-1.333,-1.3843,-1.4378,-1.4874,-1.5169,-1.5098,-1.5007,-1.4828,-1.4641,-1.4605,-1.4534,-1.4312,-1.3902,-1.3546,-1.3306,0.0,0.0,0.0,0.0,0.0,0.0,-1.013,0.0,0.0,0.0,0.0,0.0,0.0,0.0,-0.9479,-0.9441,0.0,-0.9596,-0.928,-0.9173,-0.9337,-0.8655,-0.799,-0.7312,-0.6694,-0.6254,-0.5947,-0.5458,-0.5317,-0.5377,-0.514,-0.5063,-0.5138,-0.5138,-0.4885,-0.4483,-0.4383,-0.4081,-0.3682,-0.7856,-0.7856,0.0,0.0,-0.7856,0.0,-0.7503,-0.7462,-0.737,-0.7143,-0.7095,-0.7095,-0.7095,-0.6977,-0.695,-0.7097,0.0,0.0,0.0,-0.7369,-0.7484,-0.7446,-0.7484,-0.7484,-0.7446,-0.6956,-0.6662,-0.6639,-0.6143,-0.5888,-0.5888,-0.6115,-0.628,-0.6387,-0.6576,-0.6675,-0.6675,-0.6642,-0.6634,-0.6608,-0.6277,-0.6356,-0.663,-0.663,-0.7041,-0.7669,-0.7854,-0.8361,-0.8952,-0.9177,-0.988,-1.0736,-1.1281,-1.1806,-1.2305,-1.2833,-1.2877,-1.2755,-1.2795,-1.2688,-1.2679,-1.3004,-1.3493,-1.4144,-1.4977,-1.5169,-1.5133,-1.4935,-1.4908,-1.4828,-1.4641,-1.4605,-1.4605,-1.4605,-1.4045,-1.3618,-1.3584,0.0,0.0,0.0,0.0,0.0,0.0,-1.0851,-1.073,0.0,0.0,0.0,0.0,0.0,-0.9643,-0.9628,-0.9551,-0.9508,-0.9414,-0.9326,-0.915,-0.8841,-0.8213,-0.7632,-0.7051,-0.6609,-0.6118,-0.5675,-0.5186,-0.4947,-0.4849,-0.4664,-0.4485,-0.4388,-0.4338,-0.4185,-0.3932,-0.3629,-0.3379,-0.3079,0.0,0.0,-0.7275,-0.7275,-0.7275,-0.7275,-0.7187,-0.7187,-0.7187,-0.7095,-0.7095,-0.7095,-0.7095,-0.7065,-0.7017,-0.6964,-0.6941,-0.6893,-0.6767,-0.7065,-0.7219,-0.7057,-0.7176,-0.7219,-0.7057,-0.6654,-0.6253,-0.5865,-0.5892,-0.5822,-0.5683,-0.6046,-0.6214,-0.6247,-0.6309,-0.6313,-0.6313,-0.6152,-0.6042,-0.5918,-0.5844,-0.5876,-0.5941,-0.5941,-0.6366,-0.697,-0.7169,-0.7676,-0.8306,-0.8765,-0.9513,-1.0339,-1.0861,-1.1596,-1.2375,-1.2853,-1.2725,-1.2432,-1.2521,-1.2565,-1.259,-1.2804,-1.347,-1.4204,-1.483,-1.4971,-1.4971,-1.49,-1.4908,-1.4828,-1.4641,-1.4605,-1.4605,-1.4605,-1.4045,-1.3559,-1.3441,-1.2773,0.0,0.0,-1.1539,-1.1292,-1.0738,-1.0673,-1.053,0.0,0.0,0.0,0.0,-1.0065,-1.0008,-0.9926,-0.9892,-0.984,-0.9702,-0.9441,-0.8999,-0.8435,-0.8084,-0.7544,-0.6881,-0.6564,-0.6077,-0.546,-0.5144,-0.4858,-0.4569,-0.4379,-0.4238,-0.4085,-0.3882,-0.363,-0.3381,-0.3078,-0.2674,-0.2269,-0.6786,-0.6786,-0.683,-0.6922,-0.6969,-0.701,-0.7095,-0.7095,-0.7095,-0.7095,-0.7095,-0.7095,-0.7095,-0.7095,-0.7041,-0.69,-0.6878,-0.6837,-0.6681,-0.6913,-0.7022,-0.6903,-0.7022,-0.7022,-0.6903,-0.6474,-0.6007,-0.5521,-0.5624,-0.5657,-0.5617,-0.5815,-0.5984,-0.6053,-0.6053,-0.6053,-0.605,-0.5851,-0.5669,-0.5546,-0.5339,-0.5229,-0.5207,-0.5225,-0.5597,-0.6154,-0.6519,-0.7063,-0.7694,-0.8149,-0.8915,-0.9782,-1.0353,-1.1172,-1.1952,-1.2403,-1.2522,-1.2479,-1.2498,-1.2552,-1.2689,-1.3014,-1.3684,-1.4297,-1.4601,-1.4721,-1.4756,-1.4756,-1.4756,-1.4721,-1.4605,-1.4605,-1.4569,-1.4533,-1.395,-1.3441,-1.3282,-1.2589,0.0,-1.1677,-1.1502,-1.1277,-1.0958,-1.0984,-1.088,-1.0551,0.0,0.0,-1.0419,-1.0326,-1.0162,-0.9958,-0.9995,-0.9867,-0.9535,-0.9177,-0.8626,-0.7983,-0.7821,-0.7319,-0.6612,-0.6254,-0.5766,-0.5193,-0.4883,-0.4577,-0.4336,-0.4133,-0.388,-0.3632,-0.3481,-0.3127,-0.2623,-0.2372,-0.1969,-0.1615,-0.6384,-0.6384,-0.6476,-0.6704,-0.6748,-0.6792,-0.6962,-0.7007,-0.7007,-0.7007,-0.7007,-0.7007,-0.7007,-0.7007,-0.695,-0.6814,-0.687,-0.6839,-0.6769,-0.6802,-0.6826,-0.6826,-0.6826,-0.6815,-0.6751,-0.6218,-0.5745,-0.5296,-0.5326,-0.5422,-0.5514,-0.558,-0.5683,-0.5855,-0.5855,-0.5855,-0.5855,-0.5653,-0.5474,-0.5304,-0.4894,-0.4657,-0.4564,-0.4624,-0.4958,-0.541,-0.5903,-0.6519,-0.7138,-0.7498,-0.8292,-0.918,-0.9794,-1.0567,-1.1335,-1.1717,-1.2134,-1.2438,-1.2402,-1.2519,-1.281,-1.3372,-1.393,-1.4353,-1.4353,-1.4461,-1.4569,-1.4569,-1.4605,-1.4605,-1.4569,-1.4569,-1.4533,-1.4389,-1.3793,-1.3282,-1.308,0.0,-1.1771,-1.174,-1.1503,-1.1343,-1.128,-1.1402,-1.1353,-1.1022,-1.1188,-1.1114,0.0,-1.0467,-1.0187,-0.9858,-0.996,-0.9734,-0.9112,-0.8757,-0.8226,-0.7608,-0.7469,-0.7048,-0.6343,-0.5897,-0.5408,-0.4882,-0.4532,-0.4253,-0.4005,-0.3841,-0.347,-0.3027,-0.2978,-0.2523,-0.1866,-0.1515,-0.1263,-0.096,-0.6384,-0.6384,-0.6428,-0.6476,-0.6476,-0.6476,-0.652,-0.6517,-0.6517,-0.6517,-0.6517,-0.6517,-0.6517,-0.6517,-0.6467,-0.638,-0.6412,-0.6432,-0.6525,-0.6606,-0.6563,-0.6412,-0.6563,-0.6423,-0.5986,-0.5516,-0.5121,-0.4897,-0.5057,-0.5153,-0.5186,-0.5451,-0.5617,-0.565,-0.565,-0.565,-0.565,-0.5491,-0.5255,-0.498,-0.4903,-0.4684,-0.4418,-0.4457,-0.475,-0.5192,-0.5445,-0.5944,-0.6613,-0.7106,-0.7851,-0.8629,-0.923,-0.9977,-1.0691,-1.0913,-1.1107,-1.1336,-1.1716,-1.2221,-1.2748,-1.3344,-1.3846,-1.4165,-1.4165,-1.4281,-1.4425,-1.4425,-1.4533,-1.4569,-1.4461,-1.4425,-1.4353,-1.4165,-1.3577,-1.308,-1.2871,0.0,-1.1677,-1.1397,-1.1578,-1.1574,-1.1242,-1.135,-1.1322,-1.1118,-1.0854,-1.0604,-1.0396,-1.0361,-1.0139,-0.9567,-0.957,-0.9332,-0.8765,-0.8511,-0.8102,-0.7608,-0.73,-0.6786,-0.6124,-0.5855,-0.5233,-0.4393,-0.4395,-0.3926,-0.3196,-0.3212,-0.2827,-0.217,-0.1919,-0.1616,-0.1263,-0.0758,-0.0404,-0.0152,-0.6038,-0.6038,-0.6083,-0.6213,-0.6257,-0.6254,-0.6387,-0.6384,-0.6384,-0.6384,-0.6384,-0.6384,-0.6384,-0.6384,-0.638,-0.6294,-0.6201,-0.6144,-0.616,-0.6214,-0.6173,-0.6099,-0.606,-0.5879,-0.5469,-0.523,-0.4993,-0.4797,-0.4894,-0.499,-0.5087,-0.5253,-0.5385,-0.5488,-0.5488,-0.5488,-0.5491,-0.5428,-0.5256,-0.499,-0.4817,-0.4589,-0.44,-0.4329,-0.4507,-0.4877,-0.5131,-0.5682,-0.6346,-0.6646,-0.7362,-0.8176,-0.8674,-0.9304,-0.9946,-1.0366,-1.0676,-1.1,-1.1517,-1.1861,-1.2268,-1.2854,-1.3411,-1.3775,-1.3775,-1.4029,-1.4245,-1.4245,-1.4281,-1.4317,-1.4245,-1.4245,-1.4173,-1.3964,-1.3527,0.0,0.0,-1.2372,-1.1974,-1.1811,-1.1774,-1.1625,-1.1357,-1.1421,-1.1383,-1.1067,-1.0957,-1.0785,-1.0569,-1.0284,-1.0014,-0.9723,-0.9309,-0.8835,-0.8365,-0.8203,-0.7814,-0.7116,-0.6867,-0.6432,-0.5855,-0.5233,-0.4699,-0.4263,-0.3846,-0.34,-0.2961,-0.2657,-0.2203,-0.1767,-0.1313,-0.0909,-0.0505,-0.0101,0.0202,0.0455,-0.5688,-0.5688,-0.5777,-0.5952,-0.5994,-0.6038,-0.621,-0.6257,-0.6257,-0.6257,-0.6257,-0.6257,-0.6257,-0.6257,-0.6192,-0.608,-0.6011,-0.5882,-0.5756,-0.5764,-0.5786,-0.5825,-0.5576,-0.537,-0.5162,-0.4996,-0.4826,-0.4697,-0.4731,-0.4827,-0.4987,-0.5024,-0.5123,-0.5326,-0.5326,-0.5359,-0.5395,-0.5395,-0.5292,-0.5077,-0.4776,-0.4578,-0.4443,-0.4279,-0.4396,-0.4672,-0.4926,-0.5517,-0.6156,-0.6332,-0.6971,-0.7783,-0.8261,-0.8737,-0.9284,-0.983,-1.0241,-1.0635,-1.1236,-1.1493,-1.1761,-1.2396,-1.29,-1.3309,-1.3419,-1.3702,-1.4015,-1.4128,-1.4179,-1.4202,-1.4242,-1.4196,-1.4077,-1.3829,0.0,0.0,0.0,-1.2448,-1.2105,-1.2003,-1.1833,-1.1627,-1.1391,-1.1472,-1.1425,-1.1063,-1.1034,-1.0887,-1.0625,-1.0143,-0.9803,-0.9614,-0.9008,-0.846,-0.8013,-0.7902,-0.7458,-0.6756,-0.6405,-0.5985,-0.5497,-0.4699,-0.4166,-0.395,-0.323,-0.281,-0.2628,-0.2036,-0.1564,-0.1162,-0.0758,-0.0303,0.0202,0.0556,0.0808,0.101,-0.5688,-0.5688,-0.5688,-0.5733,-0.5733,-0.5733,-0.5733,-0.5733,-0.5733,-0.5733,-0.5733,-0.5733,-0.5733,-0.5733,-0.5681,-0.5488,-0.5627,-0.5601,-0.5349,-0.5326,-0.5437,-0.5598,-0.525,-0.5038,-0.502,-0.4568,-0.4342,-0.4334,-0.4528,-0.4625,-0.4625,-0.4761,-0.4927,-0.512,-0.512,-0.5223,-0.5395,-0.5395,-0.5292,-0.5087,-0.4882,-0.4716,-0.4577,-0.4375,-0.4511,-0.4782,-0.4815,-0.5282,-0.5981,-0.6301,-0.6816,-0.7459,-0.8166,-0.8556,-0.8836,-0.9241,-0.9484,-0.9763,-1.0533,-1.103,-1.1481,-1.2151,-1.2489,-1.2753,-1.3119,-1.3382,-1.3689,-1.4186,-1.4426,-1.4592,-1.4642,-1.4455,-1.4178,-1.3757,0.0,0.0,-1.2473,-1.213,-1.1799,-1.1491,-1.1663,-1.1646,-1.1333,-1.137,-1.1341,-1.1118,-1.0913,-1.0556,-0.9997,-0.9916,-0.9539,-0.8813,-0.8737,-0.8374,-0.7736,-0.7479,-0.7192,-0.6873,-0.6101,-0.5497,-0.5055,-0.452,-0.3807,-0.3008,-0.2761,-0.2239,-0.1579,-0.1342,-0.0808,-0.0101,-0.0051,0.0253,0.0808,0.1314,0.1516,0.1616,-0.5508,-0.5599,-0.5688,-0.5688,-0.5688,-0.5688,-0.5688,-0.5688,-0.5688,-0.5688,-0.5688,-0.5688,-0.5688,-0.5688,-0.5635,-0.5432,-0.5455,-0.535,-0.4948,-0.4932,-0.4971,-0.5051,-0.4673,-0.4439,-0.4439,-0.4145,-0.3995,-0.3995,-0.4059,-0.4159,-0.4228,-0.4398,-0.4597,-0.4791,-0.4891,-0.496,-0.503,-0.503,-0.4994,-0.4894,-0.4728,-0.4661,-0.4595,-0.4364,-0.45,-0.4797,-0.4797,-0.5252,-0.5845,-0.5975,-0.6557,-0.7277,-0.7569,-0.7981,-0.8403,-0.8818,-0.9062,-0.9335,-1.0005,-1.0554,-1.1068,-1.16,-1.2077,-1.2489,-1.2753,-1.3121,-1.344,-1.3644,-1.3892,-1.4103,-1.4155,-1.4044,-1.3856,-1.3504,0.0,-1.2979,-1.2746,-1.2398,-1.2107,-1.1971,-1.1847,-1.1584,-1.1218,-1.1199,-1.1074,-1.0738,-1.0438,-1.0143,-0.9922,-0.9425,-0.8952,-0.8542,-0.8234,-0.7919,-0.7509,-0.7217,-0.6783,-0.6279,-0.5577,-0.501,-0.452,-0.3762,-0.3135,-0.2604,-0.2154,-0.1668,-0.1196,-0.0696,-0.0253,0.0051,0.0556,0.096,0.1364,0.1718,0.1969,0.2119,-0.528,-0.5463,-0.5599,-0.5599,-0.5644,-0.5688,-0.5688,-0.5688,-0.5688,-0.5688,-0.5688,-0.5688,-0.5688,-0.5688,-0.5591,-0.5346,-0.5327,-0.5102,-0.4636,-0.4545,-0.4545,-0.4621,-0.4298,-0.4114,-0.4114,-0.3902,-0.3758,-0.3694,-0.3694,-0.3761,-0.3863,-0.3997,-0.4164,-0.4425,-0.4495,-0.4628,-0.4728,-0.4728,-0.4764,-0.4797,-0.4661,-0.4592,-0.4595,-0.4364,-0.4464,-0.4728,-0.4728,-0.5116,-0.5655,-0.5773,-0.6287,-0.6935,-0.7139,-0.758,-0.8097,-0.8475,-0.8737,-0.9041,-0.9576,-1.0059,-1.0595,-1.118,-1.1706,-1.2214,-1.2567,-1.2938,-1.3289,-1.3561,-1.3817,-1.3992,-1.409,-1.4027,-1.3854,-1.356,-1.3372,-1.3164,-1.2921,-1.2505,-1.2221,-1.2146,-1.1764,-1.1372,-1.1037,-1.0962,-1.0738,-1.0331,-1.0067,-0.9803,-0.9647,-0.8918,-0.8429,-0.8266,-0.7886,-0.7512,-0.7263,-0.6863,-0.6387,-0.582,-0.5107,-0.452,-0.4032,-0.327,-0.2643,-0.2111,-0.1593,-0.1144,-0.0717,-0.0099,0.0202,0.0455,0.1061,0.1465,0.1768,0.2122,0.2373,0.2522,-0.5013,-0.5193,-0.5419,-0.5419,-0.5555,-0.5691,-0.5691,-0.5691,-0.5691,-0.5688,-0.5688,-0.5688,-0.5688,-0.5688,-0.5547,-0.5134,-0.5113,-0.4895,-0.4435,-0.4194,-0.4194,-0.4384,-0.4187,-0.4077,-0.4077,-0.3902,-0.3694,-0.3498,-0.3498,-0.3498,-0.3498,-0.3498,-0.3663,-0.3995,-0.3995,-0.4225,-0.4592,-0.4592,-0.4661,-0.4797,-0.4661,-0.4592,-0.4561,-0.4364,-0.4431,-0.4592,-0.4592,-0.4913,-0.5363,-0.5681,-0.6011,-0.6387,-0.7011,-0.7484,-0.7859,-0.8284,-0.8551,-0.878,-0.917,-0.9582,-1.0105,-1.0887,-1.1409,-1.1895,-1.2641,-1.2898,-1.326,-1.4112,-1.4286,-1.4377,-1.4636,-1.4489,-1.4245,-1.4035,-1.3507,-1.3041,-1.2929,-1.2447,-1.2036,-1.1805,-1.14,-1.1005,-1.0818,-1.0631,-1.0336,-0.9927,-0.9889,-0.9647,-0.9015,-0.8431,-0.8074,-0.8008,-0.7728,-0.735,-0.6886,-0.6414,-0.6043,-0.5675,-0.4743,-0.4032,-0.3587,-0.3092,-0.2331,-0.1394,-0.1171,-0.0668,0.0048,0.0298,0.0707,0.1212,0.1516,0.1768,0.2071,0.2624,0.2826,0.2826,-0.4951,-0.5139,-0.5376,-0.5565,-0.5658,-0.5724,-0.582,-0.5852,-0.5822,-0.5699,-0.5688,-0.5688,-0.5688,-0.5552,-0.537,-0.5134,-0.4907,-0.4654,-0.4208,-0.388,-0.3722,-0.3761,-0.3614,-0.3526,-0.3461,-0.3238,-0.3048,-0.2922,-0.2922,-0.2922,-0.2956,-0.3092,-0.3192,-0.3291,-0.3393,-0.3594,-0.383,-0.383,-0.3928,-0.4092,-0.4059,-0.4025,-0.4025,-0.3959,-0.4061,-0.4195,-0.4195,-0.4565,-0.511,-0.5219,-0.5569,-0.6113,-0.6623,-0.7065,-0.7446,-0.7676,-0.8021,-0.8365,-0.878,-0.9273,-0.9884,-1.07,-1.1074,-1.1446,-1.2152,-1.2531,-1.2857,-1.331,-1.3546,-1.3675,-1.376,-1.3701,-1.3576,-1.3339,-1.3153,-1.2949,-1.267,-1.2251,-1.1924,-1.1885,-1.1451,-1.105,-1.0694,-1.0615,-1.0383,-0.9946,-0.9622,-0.9247,-0.8752,-0.826,-0.8057,-0.8157,-0.7453,-0.693,-0.6549,-0.6289,-0.5822,-0.5186,-0.4255,-0.3585,-0.3092,-0.2241,-0.1614,-0.1169,-0.0562,-0.0095,0.0335,0.0796,0.1162,0.1516,0.1768,0.2172,0.2575,0.2725,0.2927,0.313,-0.4759,-0.4996,-0.5185,-0.5377,-0.5569,-0.5737,-0.5802,-0.5928,-0.5934,-0.5814,-0.5801,-0.5737,-0.5694,-0.5508,-0.53,-0.5032,-0.4645,-0.4243,-0.389,-0.3643,-0.3448,-0.3333,-0.3172,-0.3099,-0.31,-0.291,-0.2728,-0.2587,-0.2587,-0.2587,-0.2587,-0.269,-0.279,-0.2889,-0.2956,-0.3125,-0.3295,-0.3295,-0.3393,-0.3558,-0.3558,-0.3558,-0.3558,-0.3558,-0.3661,-0.3797,-0.3797,-0.4176,-0.4656,-0.4726,-0.5147,-0.5747,-0.6293,-0.6644,-0.6914,-0.7369,-0.7676,-0.7983,-0.8551,-0.897,-0.9425,-1.0143,-1.0663,-1.1109,-1.1654,-1.2165,-1.2567,-1.2845,-1.3159,-1.3398,-1.3398,-1.3398,-1.3341,-1.3169,-1.3102,-1.292,-1.2622,-1.2225,-1.1915,-1.1787,-1.1295,-1.0875,-1.0632,-1.0435,-1.0146,-0.9699,-0.9205,-0.879,-0.8455,-0.8126,-0.7912,-0.7778,-0.727,-0.6702,-0.6118,-0.5813,-0.5366,-0.4699,-0.3853,-0.3138,-0.2599,-0.1793,-0.1121,-0.0629,-0.0186,0.0284,0.0765,0.1184,0.1506,0.1819,0.2172,0.2524,0.2826,0.3029,0.323,0.3383,-0.4596,-0.4782,-0.4923,-0.4923,-0.5308,-0.5646,-0.5683,-0.5916,-0.6006,-0.5874,-0.5901,-0.5858,-0.5702,-0.5508,-0.524,-0.4913,-0.4253,-0.378,-0.3532,-0.3487,-0.3333,-0.3102,-0.2865,-0.2764,-0.2817,-0.2779,-0.2636,-0.2366,-0.236,-0.2357,-0.2322,-0.2322,-0.2421,-0.2586,-0.2586,-0.272,-0.2889,-0.2889,-0.2991,-0.3125,-0.3125,-0.3125,-0.3125,-0.3125,-0.3261,-0.3431,-0.3439,-0.3698,-0.4077,-0.4346,-0.4787,-0.5398,-0.6025,-0.6261,-0.6451,-0.7215,-0.7446,-0.7672,-0.8399,-0.8627,-0.8818,-0.9354,-1.0067,-1.0732,-1.1103,-1.167,-1.2209,-1.248,-1.2912,-1.3233,-1.3226,-1.3252,-1.3264,-1.3264,-1.31,-1.2924,-1.2662,-1.2247,-1.185,-1.1594,-1.1032,-1.0616,-1.0575,-1.0167,-0.9717,-0.9256,-0.8689,-0.8267,-0.8172,-0.7971,-0.7613,-0.7136,-0.7007,-0.6564,-0.5677,-0.5188,-0.4699,-0.421,-0.3496,-0.278,-0.2109,-0.157,-0.0852,0.0,0.0046,0.0515,0.1242,0.151,0.1788,0.2122,0.2624,0.2826,0.2927,0.3433,0.3635,0.3685,-0.4777,-0.4777,-0.4876,-0.5077,-0.5228,-0.5351,-0.5516,-0.579,-0.5862,-0.5611,-0.5766,-0.5767,-0.5518,-0.5235,-0.497,-0.4608,-0.417,-0.378,-0.3532,-0.3294,-0.31,-0.2865,-0.2511,-0.2322,-0.2256,-0.2346,-0.2285,-0.2086,-0.204,-0.1918,-0.1783,-0.1783,-0.1782,-0.1849,-0.1849,-0.195,-0.2153,-0.2153,-0.2253,-0.2423,-0.2423,-0.249,-0.2557,-0.2557,-0.269,-0.2896,-0.3099,-0.3366,-0.3732,-0.4414,-0.4809,-0.5162,-0.5595,-0.5986,-0.6377,-0.6718,-0.7138,-0.7522,-0.771,-0.8093,-0.8479,-0.8632,-0.8894,-0.94,-1.029,-1.0623,-1.0852,-1.1272,-1.1605,-1.186,-1.2028,-1.2197,-1.2295,-1.2295,-1.2252,-1.2209,-1.2166,-1.1949,-1.1653,-1.1423,-1.1091,-1.0766,-1.0414,-0.9947,-0.9427,-0.8819,-0.8603,-0.8368,-0.7971,-0.7534,-0.7241,-0.7095,-0.6384,-0.5811,-0.546,-0.4788,-0.421,-0.3765,-0.3005,-0.2288,-0.157,-0.1076,-0.0538,0.0045,0.0458,0.0983,0.1528,0.1802,0.2184,0.2675,0.2978,0.323,0.3484,0.3783,0.3934,0.3984,-0.4587,-0.4736,-0.4834,-0.4987,-0.514,-0.5225,-0.5322,-0.5607,-0.5676,-0.5415,-0.5526,-0.5506,-0.5253,-0.5013,-0.4687,-0.4284,-0.3976,-0.3662,-0.3342,-0.31,-0.2826,-0.2511,-0.2314,-0.2145,-0.2006,-0.2033,-0.2006,-0.1858,-0.1832,-0.1738,-0.1614,-0.1614,-0.1614,-0.1614,-0.1614,-0.1648,-0.1749,-0.1749,-0.1817,-0.1918,-0.1918,-0.2018,-0.2154,-0.2154,-0.2341,-0.2645,-0.2856,-0.3228,-0.3649,-0.4332,-0.4618,-0.481,-0.5282,-0.5676,-0.6025,-0.6374,-0.6756,-0.7099,-0.7296,-0.7603,-0.7872,-0.7944,-0.8055,-0.8388,-0.9337,-0.9725,-0.9956,-1.0319,-1.0649,-1.0975,-1.118,-1.1386,-1.1516,-1.1516,-1.161,-1.1639,-1.1553,-1.1429,-1.1295,-1.1025,-1.0733,-1.0347,-0.9864,-0.9384,-0.8986,-0.8636,-0.8376,-0.8069,-0.754,-0.7275,-0.6874,-0.6428,-0.5941,-0.5455,-0.4879,-0.4255,-0.3676,-0.3051,-0.2602,-0.1974,-0.1256,-0.0628,-0.009,0.0359,0.0771,0.1245,0.1742,0.2018,0.2449,0.299,0.327,0.3533,0.3835,0.4085,0.4336,0.4636,-0.4388,-0.4587,-0.4734,-0.4784,-0.4987,-0.514,-0.514,-0.5338,-0.5464,-0.526,-0.528,-0.5199,-0.499,-0.4703,-0.4408,-0.3966,-0.3783,-0.3463,-0.3071,-0.2904,-0.2628,-0.2235,-0.2157,-0.2041,-0.1848,-0.1772,-0.1714,-0.167,-0.1655,-0.1594,-0.1524,-0.1516,-0.1513,-0.1513,-0.1513,-0.1513,-0.1513,-0.1513,-0.1513,-0.1513,-0.1513,-0.1648,-0.1851,-0.1861,-0.2097,-0.2493,-0.2725,-0.3181,-0.3699,-0.4237,-0.4396,-0.4526,-0.5132,-0.5416,-0.5668,-0.6074,-0.6335,-0.656,-0.6872,-0.6988,-0.7061,-0.7292,-0.733,-0.7522,-0.8241,-0.8763,-0.9125,-0.936,-0.9766,-1.0115,-1.0402,-1.063,-1.0773,-1.0815,-1.1006,-1.1068,-1.0982,-1.0944,-1.0857,-1.0598,-1.0125,-0.9646,-0.9213,-0.8771,-0.846,-0.8372,-0.7981,-0.7544,-0.7007,-0.6918,-0.652,-0.5719,-0.5542,-0.5099,-0.43,-0.3764,-0.3139,-0.2424,-0.2154,-0.166,-0.0987,-0.0314,0.0269,0.0718,0.1031,0.1407,0.1901,0.2271,0.2749,0.3195,0.3609,0.3885,0.4183,0.4487,0.4939,0.5391,-0.4338,-0.4438,-0.4537,-0.4784,-0.4834,-0.4834,-0.4834,-0.5087,-0.5169,-0.497,-0.5138,-0.5155,-0.477,-0.4304,-0.3925,-0.3754,-0.357,-0.3256,-0.2874,-0.2826,-0.2628,-0.2235,-0.2042,-0.1847,-0.165,-0.1449,-0.1427,-0.1537,-0.147,-0.1364,-0.1184,-0.1156,-0.1176,-0.1176,-0.1176,-0.1176,-0.1176,-0.1176,-0.1176,-0.1176,-0.1176,-0.1344,-0.1652,-0.1692,-0.1957,-0.2293,-0.2803,-0.3317,-0.3824,-0.4263,-0.4486,-0.4666,-0.516,-0.5398,-0.5548,-0.5671,-0.5828,-0.6015,-0.6057,-0.6209,-0.6398,-0.6637,-0.6714,-0.6791,-0.7096,-0.7462,-0.7868,-0.8257,-0.8521,-0.882,-0.9226,-0.9635,-0.9944,-1.0107,-1.0285,-1.0511,-1.0727,-1.0727,-1.0598,-1.0168,-0.9476,-0.8951,-0.8723,-0.8416,-0.7977,-0.736,-0.7231,-0.7007,-0.6517,-0.6118,-0.5852,-0.5719,-0.4921,-0.4431,-0.43,-0.3449,-0.2734,-0.2243,-0.157,-0.1076,-0.0718,-0.0224,0.0269,0.0718,0.1166,0.1679,0.2179,0.2741,0.3182,0.3491,0.4057,0.4437,0.4734,0.5236,0.5639,0.5942,-0.3937,-0.4189,-0.4438,-0.4537,-0.4684,-0.4784,-0.4784,-0.4887,-0.4922,-0.4737,-0.4856,-0.4782,-0.4499,-0.4125,-0.3793,-0.3542,-0.332,-0.3052,-0.2833,-0.2589,-0.2354,-0.2042,-0.1847,-0.165,-0.1454,-0.1218,-0.1094,-0.116,-0.125,-0.1209,-0.1085,-0.109,-0.1109,-0.1109,-0.1109,-0.1109,-0.1109,-0.1109,-0.1109,-0.1109,-0.1109,-0.1255,-0.1516,-0.1639,-0.1893,-0.221,-0.2708,-0.3226,-0.369,-0.4018,-0.4228,-0.4427,-0.4844,-0.5119,-0.5296,-0.5323,-0.5535,-0.575,-0.575,-0.5786,-0.5902,-0.6022,-0.6022,-0.606,-0.6135,-0.6328,-0.6676,-0.745,-0.7665,-0.7875,-0.8302,-0.8702,-0.9054,-0.9225,-0.953,-0.9777,-0.9907,-0.9907,-0.9733,-0.9292,-0.8947,-0.8552,-0.8017,-0.7757,-0.7404,-0.6969,-0.67,-0.6387,-0.603,-0.5722,-0.5322,-0.4921,-0.452,-0.403,-0.3539,-0.2959,-0.2377,-0.1749,-0.1166,-0.0673,-0.0314,0.0179,0.0628,0.1121,0.148,0.1895,0.2416,0.2835,0.332,0.3774,0.4339,0.4945,0.5539,0.5887,0.6237,0.6492]}]]